<?xml version='1.0' encoding='UTF-8'?><gpx version="1.1" creator="JPX - https://github.com/jenetics/jpx" xmlns="http://www.topografix.com/GPX/1/1"><trk><trkseg><trkpt lat="42.08888315115479" lon="12.39741181675338"><ele>270.0</ele><time>2026-04-09T16:57:16Z</time></trkpt><trkpt lat="42.08882246119952" lon="12.39734875685356"><ele>270.0</ele><time>2026-04-09T16:57:17Z</time></trkpt><trkpt lat="42.08877102917562" lon="12.397268731890932"><ele>270.0</ele><time>2026-04-09T16:57:18Z</time></trkpt><trkpt lat="42.088655350310894" lon="12.39718963992192"><ele>270.0</ele><time>2026-04-09T16:57:19.999Z</time></trkpt><trkpt lat="42.08856048175984" lon="12.39715383069868"><ele>270.0</ele><time>2026-04-09T16:57:20.999Z</time></trkpt><trkpt lat="42.088465511181695" lon="12.397119598259296"><ele>269.1666666666667</ele><time>2026-04-09T16:57:21.999Z</time></trkpt><trkpt lat="42.088364939397266" lon="12.397092845880653"><ele>268.3333333333333</ele><time>2026-04-09T16:57:22.999Z</time></trkpt><trkpt lat="42.08826706332061" lon="12.397048595042396"><ele>267.5</ele><time>2026-04-09T16:57:23.999Z</time></trkpt><trkpt lat="42.088178561144524" lon="12.397050478185518"><ele>266.66666666666663</ele><time>2026-04-09T16:57:24.999Z</time></trkpt><trkpt lat="42.08809872660945" lon="12.397038159561252"><ele>265.8333333333333</ele><time>2026-04-09T16:57:25.999Z</time></trkpt><trkpt lat="42.08802764810706" lon="12.397021608420939"><ele>265.0</ele><time>2026-04-09T16:57:26.999Z</time></trkpt><trkpt lat="42.08795593548954" lon="12.39699977158937"><ele>265.0</ele><time>2026-04-09T16:57:27.999Z</time></trkpt><trkpt lat="42.08787929441294" lon="12.396965066516442"><ele>265.0</ele><time>2026-04-09T16:57:28.999Z</time></trkpt><trkpt lat="42.08780842326979" lon="12.396934984780431"><ele>265.0</ele><time>2026-04-09T16:57:29.999Z</time></trkpt><trkpt lat="42.0877369602991" lon="12.396905898850047"><ele>265.0</ele><time>2026-04-09T16:57:30.999Z</time></trkpt><trkpt lat="42.087669584998395" lon="12.396879676037457"><ele>265.0</ele><time>2026-04-09T16:57:31.999Z</time></trkpt><trkpt lat="42.087597058080675" lon="12.396860145386725"><ele>265.0</ele><time>2026-04-09T16:57:32.999Z</time></trkpt><trkpt lat="42.0875156055594" lon="12.396844855741971"><ele>265.0</ele><time>2026-04-09T16:57:33.999Z</time></trkpt><trkpt lat="42.08743995194681" lon="12.39684261877217"><ele>265.0</ele><time>2026-04-09T16:57:34.999Z</time></trkpt><trkpt lat="42.08737027260183" lon="12.396859497978507"><ele>265.0</ele><time>2026-04-09T16:57:35.999Z</time></trkpt><trkpt lat="42.087300024959085" lon="12.396882481436743"><ele>265.0</ele><time>2026-04-09T16:57:36.999Z</time></trkpt><trkpt lat="42.08721828973641" lon="12.396906871483587"><ele>265.0</ele><time>2026-04-09T16:57:37.999Z</time></trkpt><trkpt lat="42.08714855973641" lon="12.39694284614394"><ele>265.0</ele><time>2026-04-09T16:57:38.999Z</time></trkpt><trkpt lat="42.08707805872947" lon="12.396982986149867"><ele>267.16666666666663</ele><time>2026-04-09T16:57:39.999Z</time></trkpt><trkpt lat="42.08700035476881" lon="12.397029497205649"><ele>269.3333333333333</ele><time>2026-04-09T16:57:40.999Z</time></trkpt><trkpt lat="42.086924526058326" lon="12.397072057207954"><ele>271.5</ele><time>2026-04-09T16:57:41.999Z</time></trkpt><trkpt lat="42.086855619540515" lon="12.397091700292691"><ele>273.6666666666667</ele><time>2026-04-09T16:57:42.999Z</time></trkpt><trkpt lat="42.08678668295445" lon="12.397095494291769"><ele>275.83333333333337</ele><time>2026-04-09T16:57:43.999Z</time></trkpt><trkpt lat="42.08671610520533" lon="12.39706647811632"><ele>278.0</ele><time>2026-04-09T16:57:44.999Z</time></trkpt><trkpt lat="42.08662982902518" lon="12.397034294513086"><ele>277.8</ele><time>2026-04-09T16:57:45.999Z</time></trkpt><trkpt lat="42.08653641686579" lon="12.397007108721827"><ele>277.6</ele><time>2026-04-09T16:57:46.999Z</time></trkpt><trkpt lat="42.086463857262515" lon="12.39698445606956"><ele>277.4</ele><time>2026-04-09T16:57:47.999Z</time></trkpt><trkpt lat="42.08634906862884" lon="12.396940018419295"><ele>277.2</ele><time>2026-04-09T16:57:49.999Z</time></trkpt><trkpt lat="42.086253330430715" lon="12.396901585259537"><ele>277.0</ele><time>2026-04-09T16:57:51.999Z</time></trkpt><trkpt lat="42.08617313510934" lon="12.396863355509193"><ele>277.0</ele><time>2026-04-09T16:57:53.999Z</time></trkpt><trkpt lat="42.08594426272286" lon="12.396672151837947"><ele>277.0</ele><time>2026-04-09T16:57:56.998Z</time></trkpt><trkpt lat="42.085844032467264" lon="12.396581965760884"><ele>277.0</ele><time>2026-04-09T16:57:57.998Z</time></trkpt><trkpt lat="42.085757320512" lon="12.396523345682658"><ele>276.16666666666663</ele><time>2026-04-09T16:57:58.998Z</time></trkpt><trkpt lat="42.08568281104055" lon="12.39648665471741"><ele>275.3333333333333</ele><time>2026-04-09T16:57:59.998Z</time></trkpt><trkpt lat="42.085628782972904" lon="12.396429335062079"><ele>274.5</ele><time>2026-04-09T16:58:00.998Z</time></trkpt><trkpt lat="42.08551729906774" lon="12.396370161119368"><ele>273.6666666666667</ele><time>2026-04-09T16:58:02.998Z</time></trkpt><trkpt lat="42.08540911524763" lon="12.39631897031619"><ele>272.83333333333337</ele><time>2026-04-09T16:58:04.998Z</time></trkpt><trkpt lat="42.08534395114072" lon="12.396312951427205"><ele>272.0</ele><time>2026-04-09T16:58:05.998Z</time></trkpt><trkpt lat="42.08527423710743" lon="12.396285253333215"><ele>272.0</ele><time>2026-04-09T16:58:06.998Z</time></trkpt><trkpt lat="42.085201523483" lon="12.396258633576657"><ele>272.0</ele><time>2026-04-09T16:58:07.998Z</time></trkpt><trkpt lat="42.08512359258334" lon="12.396251037112513"><ele>272.0</ele><time>2026-04-09T16:58:08.998Z</time></trkpt><trkpt lat="42.085033333429806" lon="12.396257754308543"><ele>272.0</ele><time>2026-04-09T16:58:09.998Z</time></trkpt><trkpt lat="42.08495772493769" lon="12.396269540672579"><ele>272.0</ele><time>2026-04-09T16:58:10.998Z</time></trkpt><trkpt lat="42.0848906634992" lon="12.396271017468678"><ele>272.0</ele><time>2026-04-09T16:58:11.998Z</time></trkpt><trkpt lat="42.08476269562082" lon="12.396256446288971"><ele>270.99999999999994</ele><time>2026-04-09T16:58:13.998Z</time></trkpt><trkpt lat="42.08469472274921" lon="12.396258152548377"><ele>270.0</ele><time>2026-04-09T16:58:14.998Z</time></trkpt><trkpt lat="42.08462866628777" lon="12.39627260238365"><ele>269.0</ele><time>2026-04-09T16:58:15.998Z</time></trkpt><trkpt lat="42.084558618109604" lon="12.396283567541783"><ele>268.0</ele><time>2026-04-09T16:58:16.998Z</time></trkpt><trkpt lat="42.084476081058185" lon="12.396283148355419"><ele>267.0</ele><time>2026-04-09T16:58:17.998Z</time></trkpt><trkpt lat="42.08439757218713" lon="12.396273355195229"><ele>265.99999999999994</ele><time>2026-04-09T16:58:18.998Z</time></trkpt><trkpt lat="42.08432264571476" lon="12.396264587441156"><ele>265.0</ele><time>2026-04-09T16:58:19.998Z</time></trkpt><trkpt lat="42.08423997453097" lon="12.396251843968228"><ele>265.0</ele><time>2026-04-09T16:58:20.998Z</time></trkpt><trkpt lat="42.084164029267065" lon="12.396238169547582"><ele>265.0</ele><time>2026-04-09T16:58:21.998Z</time></trkpt><trkpt lat="42.08409521866045" lon="12.396216734171107"><ele>265.0</ele><time>2026-04-09T16:58:22.998Z</time></trkpt><trkpt lat="42.084010658717496" lon="12.396197852536083"><ele>265.0</ele><time>2026-04-09T16:58:23.998Z</time></trkpt><trkpt lat="42.083928175941836" lon="12.396184449645645"><ele>265.0</ele><time>2026-04-09T16:58:24.998Z</time></trkpt><trkpt lat="42.08384735806673" lon="12.396173697119089"><ele>265.0</ele><time>2026-04-09T16:58:25.998Z</time></trkpt><trkpt lat="42.083755944578854" lon="12.396157205806334"><ele>263.8333333333333</ele><time>2026-04-09T16:58:26.998Z</time></trkpt><trkpt lat="42.08367053661557" lon="12.396149708326936"><ele>262.66666666666663</ele><time>2026-04-09T16:58:27.998Z</time></trkpt><trkpt lat="42.08358131599456" lon="12.396148930542903"><ele>261.5</ele><time>2026-04-09T16:58:28.998Z</time></trkpt><trkpt lat="42.083502968907794" lon="12.39616466933627"><ele>260.3333333333333</ele><time>2026-04-09T16:58:29.998Z</time></trkpt><trkpt lat="42.08341672659815" lon="12.39619965457966"><ele>259.1666666666667</ele><time>2026-04-09T16:58:30.998Z</time></trkpt><trkpt lat="42.083325227486526" lon="12.396233380477414"><ele>258.0</ele><time>2026-04-09T16:58:31.998Z</time></trkpt><trkpt lat="42.0832363977378" lon="12.396269309207915"><ele>257.6666666666667</ele><time>2026-04-09T16:58:32.998Z</time></trkpt><trkpt lat="42.08314540435019" lon="12.396299875648161"><ele>257.3333333333333</ele><time>2026-04-09T16:58:33.998Z</time></trkpt><trkpt lat="42.083052573954" lon="12.396308440191074"><ele>257.0</ele><time>2026-04-09T16:58:34.997Z</time></trkpt><trkpt lat="42.08297264040807" lon="12.396302825932752"><ele>256.66666666666663</ele><time>2026-04-09T16:58:35.997Z</time></trkpt><trkpt lat="42.082889350237394" lon="12.39628739706536"><ele>256.3333333333333</ele><time>2026-04-09T16:58:36.997Z</time></trkpt><trkpt lat="42.08279532812975" lon="12.39625930793757"><ele>256.0</ele><time>2026-04-09T16:58:37.997Z</time></trkpt><trkpt lat="42.08270107285999" lon="12.396223483147262"><ele>255.99999999999997</ele><time>2026-04-09T16:58:38.997Z</time></trkpt><trkpt lat="42.08260485991659" lon="12.396188933306757"><ele>256.0</ele><time>2026-04-09T16:58:39.997Z</time></trkpt><trkpt lat="42.082522791770195" lon="12.396154960509719"><ele>256.0</ele><time>2026-04-09T16:58:40.997Z</time></trkpt><trkpt lat="42.08244483308143" lon="12.396121241515262"><ele>256.0</ele><time>2026-04-09T16:58:41.997Z</time></trkpt><trkpt lat="42.08236003623012" lon="12.396093112347161"><ele>255.99999999999997</ele><time>2026-04-09T16:58:42.997Z</time></trkpt><trkpt lat="42.082287113086345" lon="12.39606363556064"><ele>256.0</ele><time>2026-04-09T16:58:43.997Z</time></trkpt><trkpt lat="42.082224974277885" lon="12.396048362714867"><ele>256.0</ele><time>2026-04-09T16:58:44.997Z</time></trkpt><trkpt lat="42.082128366337635" lon="12.39605567220015"><ele>256.0</ele><time>2026-04-09T16:58:46.997Z</time></trkpt><trkpt lat="42.082048503321424" lon="12.396129463610887"><ele>256.0</ele><time>2026-04-09T16:58:49Z</time></trkpt><trkpt lat="42.081985596102655" lon="12.396205791020082"><ele>256.0</ele><time>2026-04-09T16:58:51Z</time></trkpt><trkpt lat="42.08194810170254" lon="12.396290501063701"><ele>256.0</ele><time>2026-04-09T16:59:12Z</time></trkpt><trkpt lat="42.081945433782714" lon="12.396478809423485"><ele>255.16666666666666</ele><time>2026-04-09T16:59:35.999Z</time></trkpt><trkpt lat="42.08194123144647" lon="12.396612630243862"><ele>254.33333333333331</ele><time>2026-04-09T16:59:36.999Z</time></trkpt><trkpt lat="42.08192546251176" lon="12.396726862997113"><ele>253.5</ele><time>2026-04-09T16:59:37.999Z</time></trkpt><trkpt lat="42.08189864925507" lon="12.396844272233972"><ele>252.66666666666669</ele><time>2026-04-09T16:59:38.999Z</time></trkpt><trkpt lat="42.081866403715864" lon="12.396957208554644"><ele>251.83333333333334</ele><time>2026-04-09T16:59:39.999Z</time></trkpt><trkpt lat="42.08183515512134" lon="12.397056273899482"><ele>251.0</ele><time>2026-04-09T16:59:40.999Z</time></trkpt><trkpt lat="42.081800864255435" lon="12.397155675778864"><ele>249.83333333333334</ele><time>2026-04-09T16:59:41.999Z</time></trkpt><trkpt lat="42.08177130973317" lon="12.397241845053982"><ele>248.66666666666669</ele><time>2026-04-09T16:59:42.999Z</time></trkpt><trkpt lat="42.081740581221474" lon="12.397336152487433"><ele>247.5</ele><time>2026-04-09T16:59:43.999Z</time></trkpt><trkpt lat="42.08171335160804" lon="12.397431604184392"><ele>246.33333333333331</ele><time>2026-04-09T16:59:44.999Z</time></trkpt><trkpt lat="42.08168229604157" lon="12.397545234727517"><ele>245.16666666666666</ele><time>2026-04-09T16:59:45.999Z</time></trkpt><trkpt lat="42.08162938393428" lon="12.397662143001858"><ele>244.0</ele><time>2026-04-09T16:59:46.999Z</time></trkpt><trkpt lat="42.081597180079264" lon="12.397791981712034"><ele>242.66666666666666</ele><time>2026-04-09T16:59:47.999Z</time></trkpt><trkpt lat="42.08156905593712" lon="12.397912464124506"><ele>241.33333333333331</ele><time>2026-04-09T16:59:48.999Z</time></trkpt><trkpt lat="42.081531916434464" lon="12.3980238027413"><ele>240.0</ele><time>2026-04-09T16:59:49.999Z</time></trkpt><trkpt lat="42.08150519412371" lon="12.398111520842399"><ele>238.66666666666669</ele><time>2026-04-09T16:59:50.999Z</time></trkpt><trkpt lat="42.08148335475284" lon="12.39820866134639"><ele>237.33333333333334</ele><time>2026-04-09T16:59:51.999Z</time></trkpt><trkpt lat="42.08145715279119" lon="12.398289143981225"><ele>236.0</ele><time>2026-04-09T16:59:52.999Z</time></trkpt><trkpt lat="42.08142254878707" lon="12.398365614878166"><ele>234.8</ele><time>2026-04-09T16:59:53.999Z</time></trkpt><trkpt lat="42.0813256151181" lon="12.398440352196884"><ele>233.60000000000002</ele><time>2026-04-09T16:59:55.999Z</time></trkpt><trkpt lat="42.081215874557806" lon="12.398469256999089"><ele>232.4</ele><time>2026-04-09T16:59:57.999Z</time></trkpt><trkpt lat="42.08116602083095" lon="12.398577137303517"><ele>231.2</ele><time>2026-04-09T16:59:59.998Z</time></trkpt><trkpt lat="42.08123055193255" lon="12.398681988693424"><ele>230.0</ele><time>2026-04-09T17:00:01.998Z</time></trkpt><trkpt lat="42.08133442591841" lon="12.398714696967318"><ele>230.0</ele><time>2026-04-09T17:00:03.998Z</time></trkpt><trkpt lat="42.08143309460498" lon="12.398767340363431"><ele>230.0</ele><time>2026-04-09T17:00:05.998Z</time></trkpt><trkpt lat="42.08154686319731" lon="12.39876911562076"><ele>230.0</ele><time>2026-04-09T17:00:07.998Z</time></trkpt><trkpt lat="42.08165680538107" lon="12.398813971414041"><ele>230.0</ele><time>2026-04-09T17:00:09.998Z</time></trkpt><trkpt lat="42.081729928341474" lon="12.398851179127943"><ele>230.0</ele><time>2026-04-09T17:00:10.998Z</time></trkpt><trkpt lat="42.0818025584808" lon="12.398883790748451"><ele>228.83333333333334</ele><time>2026-04-09T17:00:11.998Z</time></trkpt><trkpt lat="42.081872342989456" lon="12.398894646600601"><ele>227.66666666666669</ele><time>2026-04-09T17:00:12.998Z</time></trkpt><trkpt lat="42.08193508650574" lon="12.398903813426667"><ele>226.5</ele><time>2026-04-09T17:00:13.998Z</time></trkpt><trkpt lat="42.0820119007945" lon="12.398915699762087"><ele>225.33333333333331</ele><time>2026-04-09T17:00:14.998Z</time></trkpt><trkpt lat="42.08209590530957" lon="12.398877527605668"><ele>224.16666666666666</ele><time>2026-04-09T17:00:15.998Z</time></trkpt><trkpt lat="42.08218397621341" lon="12.398864539497588"><ele>223.0</ele><time>2026-04-09T17:00:16.998Z</time></trkpt><trkpt lat="42.08226155563098" lon="12.398874072885748"><ele>222.99999999999997</ele><time>2026-04-09T17:00:17.998Z</time></trkpt><trkpt lat="42.08233620514839" lon="12.398895758038135"><ele>223.0</ele><time>2026-04-09T17:00:18.998Z</time></trkpt><trkpt lat="42.082391661468094" lon="12.398839691646945"><ele>223.0</ele><time>2026-04-09T17:00:19.998Z</time></trkpt><trkpt lat="42.082464527301525" lon="12.39883124603582"><ele>223.0</ele><time>2026-04-09T17:00:20.998Z</time></trkpt><trkpt lat="42.08253059260319" lon="12.398824296105872"><ele>222.99999999999997</ele><time>2026-04-09T17:00:21.998Z</time></trkpt><trkpt lat="42.082629820670526" lon="12.398814223285063"><ele>223.0</ele><time>2026-04-09T17:00:23.998Z</time></trkpt><trkpt lat="42.082693236850034" lon="12.398792094944417"><ele>223.0</ele><time>2026-04-09T17:00:25.998Z</time></trkpt><trkpt lat="42.08272083071418" lon="12.398986266099918"><ele>223.0</ele><time>2026-04-09T17:00:28.998Z</time></trkpt><trkpt lat="42.082686550222476" lon="12.399124296440894"><ele>223.0</ele><time>2026-04-09T17:00:30.998Z</time></trkpt><trkpt lat="42.08257796248762" lon="12.399111392639803"><ele>223.0</ele><time>2026-04-09T17:00:34.998Z</time></trkpt><trkpt lat="42.08251215584388" lon="12.399070357455635"><ele>223.0</ele><time>2026-04-09T17:00:36.997Z</time></trkpt><trkpt lat="42.0824293516848" lon="12.399061184017926"><ele>223.0</ele><time>2026-04-09T17:00:38.997Z</time></trkpt><trkpt lat="42.08233808806935" lon="12.39905607152642"><ele>223.0</ele><time>2026-04-09T17:00:40.997Z</time></trkpt><trkpt lat="42.08224091839813" lon="12.399075911666712"><ele>223.0</ele><time>2026-04-09T17:00:42.997Z</time></trkpt><trkpt lat="42.082139038726154" lon="12.399100138547459"><ele>223.0</ele><time>2026-04-09T17:00:44.997Z</time></trkpt><trkpt lat="42.08202083650474" lon="12.399139222263951"><ele>223.0</ele><time>2026-04-09T17:00:46.997Z</time></trkpt><trkpt lat="42.08192357595188" lon="12.39919056785923"><ele>222.99999999999997</ele><time>2026-04-09T17:00:48.997Z</time></trkpt><trkpt lat="42.08185812974525" lon="12.399214284614054"><ele>223.0</ele><time>2026-04-09T17:00:49.997Z</time></trkpt><trkpt lat="42.081786646406265" lon="12.399243566808309"><ele>223.0</ele><time>2026-04-09T17:00:50.997Z</time></trkpt><trkpt lat="42.081699576075124" lon="12.399289929301807"><ele>223.0</ele><time>2026-04-09T17:00:52.997Z</time></trkpt><trkpt lat="42.081618818613784" lon="12.399328601987461"><ele>222.99999999999997</ele><time>2026-04-09T17:00:55Z</time></trkpt><trkpt lat="42.08155177543444" lon="12.399345756247627"><ele>223.0</ele><time>2026-04-09T17:00:58Z</time></trkpt><trkpt lat="42.08146993238983" lon="12.399236029555643"><ele>221.99999999999997</ele><time>2026-04-09T17:01:05Z</time></trkpt><trkpt lat="42.08139329140388" lon="12.399110391925717"><ele>221.0</ele><time>2026-04-09T17:01:07Z</time></trkpt><trkpt lat="42.08133048685219" lon="12.399079113217983"><ele>220.0</ele><time>2026-04-09T17:01:08Z</time></trkpt><trkpt lat="42.08123360516993" lon="12.39906704495683"><ele>219.0</ele><time>2026-04-09T17:01:10Z</time></trkpt><trkpt lat="42.08115557922952" lon="12.39908446843445"><ele>217.99999999999997</ele><time>2026-04-09T17:01:12Z</time></trkpt><trkpt lat="42.08109029712401" lon="12.399100378207173"><ele>217.0</ele><time>2026-04-09T17:01:14Z</time></trkpt><trkpt lat="42.0809902611379" lon="12.39912234468225"><ele>217.0</ele><time>2026-04-09T17:01:17Z</time></trkpt><trkpt lat="42.08086220841239" lon="12.399148481602712"><ele>217.0</ele><time>2026-04-09T17:01:19Z</time></trkpt><trkpt lat="42.08074163151309" lon="12.399160852479827"><ele>217.0</ele><time>2026-04-09T17:01:21Z</time></trkpt><trkpt lat="42.080610409374586" lon="12.399178741357014"><ele>217.0</ele><time>2026-04-09T17:01:23Z</time></trkpt><trkpt lat="42.080535180822885" lon="12.399189325511603"><ele>217.14285714285714</ele><time>2026-04-09T17:01:24Z</time></trkpt><trkpt lat="42.080458098447664" lon="12.399201241205448"><ele>217.28571428571428</ele><time>2026-04-09T17:01:24.999Z</time></trkpt><trkpt lat="42.08038153285" lon="12.399210036080486"><ele>217.42857142857144</ele><time>2026-04-09T17:01:25.999Z</time></trkpt><trkpt lat="42.08031798240733" lon="12.399214395165856"><ele>217.57142857142856</ele><time>2026-04-09T17:01:26.999Z</time></trkpt><trkpt lat="42.08025059608681" lon="12.39922013341531"><ele>217.71428571428572</ele><time>2026-04-09T17:01:27.999Z</time></trkpt><trkpt lat="42.0801784988639" lon="12.399227858160142"><ele>217.85714285714286</ele><time>2026-04-09T17:01:28.999Z</time></trkpt><trkpt lat="42.08010699238516" lon="12.399239175760826"><ele>218.0</ele><time>2026-04-09T17:01:29.999Z</time></trkpt><trkpt lat="42.08003681355831" lon="12.399238708091048"><ele>218.00000000000003</ele><time>2026-04-09T17:01:30.999Z</time></trkpt><trkpt lat="42.0799543388985" lon="12.39923447840321"><ele>218.0</ele><time>2026-04-09T17:01:31.999Z</time></trkpt><trkpt lat="42.079866029510825" lon="12.399231769397883"><ele>218.0</ele><time>2026-04-09T17:01:32.999Z</time></trkpt><trkpt lat="42.07976446171003" lon="12.399224582878613"><ele>218.0</ele><time>2026-04-09T17:01:33.999Z</time></trkpt><trkpt lat="42.07968401142555" lon="12.399224347591126"><ele>218.00000000000003</ele><time>2026-04-09T17:01:34.999Z</time></trkpt><trkpt lat="42.07959838346854" lon="12.399218126485247"><ele>218.0</ele><time>2026-04-09T17:01:35.999Z</time></trkpt><trkpt lat="42.07952186523103" lon="12.399199538161703"><ele>217.50000000000003</ele><time>2026-04-09T17:01:36.999Z</time></trkpt><trkpt lat="42.07944085985979" lon="12.399198576562458"><ele>217.0</ele><time>2026-04-09T17:01:37.999Z</time></trkpt><trkpt lat="42.07935863922993" lon="12.399165307106992"><ele>216.5</ele><time>2026-04-09T17:01:38.999Z</time></trkpt><trkpt lat="42.0792898066074" lon="12.399154383872466"><ele>216.0</ele><time>2026-04-09T17:01:39.999Z</time></trkpt><trkpt lat="42.0792209634169" lon="12.399144387202437"><ele>215.50000000000003</ele><time>2026-04-09T17:01:40.999Z</time></trkpt><trkpt lat="42.07914643849383" lon="12.399134356726423"><ele>215.0</ele><time>2026-04-09T17:01:41.999Z</time></trkpt><trkpt lat="42.07907107054217" lon="12.399124212786644"><ele>214.33333333333334</ele><time>2026-04-09T17:01:42.999Z</time></trkpt><trkpt lat="42.07898511661638" lon="12.399122178662282"><ele>213.66666666666669</ele><time>2026-04-09T17:01:43.999Z</time></trkpt><trkpt lat="42.07889374855825" lon="12.399099258380641"><ele>213.0</ele><time>2026-04-09T17:01:44.999Z</time></trkpt><trkpt lat="42.07880222152242" lon="12.399098124708283"><ele>212.33333333333331</ele><time>2026-04-09T17:01:45.999Z</time></trkpt><trkpt lat="42.07871524136168" lon="12.399098894884064"><ele>211.66666666666666</ele><time>2026-04-09T17:01:46.999Z</time></trkpt><trkpt lat="42.078625804947876" lon="12.399105080603375"><ele>211.0</ele><time>2026-04-09T17:01:47.999Z</time></trkpt><trkpt lat="42.078530991896" lon="12.399122130594806"><ele>210.99999999999997</ele><time>2026-04-09T17:01:48.999Z</time></trkpt><trkpt lat="42.07844479771208" lon="12.399137422834265"><ele>211.0</ele><time>2026-04-09T17:01:49.999Z</time></trkpt><trkpt lat="42.07837105443767" lon="12.3991491272541"><ele>211.0</ele><time>2026-04-09T17:01:50.999Z</time></trkpt><trkpt lat="42.07829092796177" lon="12.399164145552533"><ele>211.0</ele><time>2026-04-09T17:01:51.999Z</time></trkpt><trkpt lat="42.078209186470836" lon="12.39918016945999"><ele>210.99999999999997</ele><time>2026-04-09T17:01:52.999Z</time></trkpt><trkpt lat="42.07812471723376" lon="12.399204917809087"><ele>211.0</ele><time>2026-04-09T17:01:53.999Z</time></trkpt><trkpt lat="42.07803591513268" lon="12.399222640413194"><ele>211.4</ele><time>2026-04-09T17:01:54.999Z</time></trkpt><trkpt lat="42.07794508066084" lon="12.399237976083782"><ele>211.8</ele><time>2026-04-09T17:01:55.999Z</time></trkpt><trkpt lat="42.077838099783676" lon="12.399256891295463"><ele>212.20000000000002</ele><time>2026-04-09T17:01:56.999Z</time></trkpt><trkpt lat="42.07774438944805" lon="12.399264792389914"><ele>212.60000000000002</ele><time>2026-04-09T17:01:57.999Z</time></trkpt><trkpt lat="42.077654231170754" lon="12.39927191477345"><ele>213.0</ele><time>2026-04-09T17:01:58.999Z</time></trkpt><trkpt lat="42.07756135769203" lon="12.399280995146144"><ele>213.0</ele><time>2026-04-09T17:01:59.999Z</time></trkpt><trkpt lat="42.07747032353681" lon="12.399274405143556"><ele>213.0</ele><time>2026-04-09T17:02:00.999Z</time></trkpt><trkpt lat="42.07737656314308" lon="12.399254661044253"><ele>213.0</ele><time>2026-04-09T17:02:01.999Z</time></trkpt><trkpt lat="42.07729335512892" lon="12.399226270183437"><ele>213.0</ele><time>2026-04-09T17:02:02.998Z</time></trkpt><trkpt lat="42.07720446084262" lon="12.399192161735664"><ele>213.0</ele><time>2026-04-09T17:02:03.998Z</time></trkpt><trkpt lat="42.0771124443864" lon="12.399173573213773"><ele>212.33333333333334</ele><time>2026-04-09T17:02:04.998Z</time></trkpt><trkpt lat="42.077026145834026" lon="12.399149790349934"><ele>211.66666666666669</ele><time>2026-04-09T17:02:05.998Z</time></trkpt><trkpt lat="42.07694162029533" lon="12.399133223943055"><ele>211.0</ele><time>2026-04-09T17:02:06.998Z</time></trkpt><trkpt lat="42.07686530704034" lon="12.399109605538849"><ele>210.33333333333334</ele><time>2026-04-09T17:02:07.998Z</time></trkpt><trkpt lat="42.076801763766476" lon="12.399085458503055"><ele>209.66666666666669</ele><time>2026-04-09T17:02:08.998Z</time></trkpt><trkpt lat="42.07673447648708" lon="12.399061034296034"><ele>209.0</ele><time>2026-04-09T17:02:09.998Z</time></trkpt><trkpt lat="42.07665830610703" lon="12.39903021621343"><ele>208.79999999999998</ele><time>2026-04-09T17:02:10.998Z</time></trkpt><trkpt lat="42.07657342555507" lon="12.398997761823582"><ele>208.6</ele><time>2026-04-09T17:02:11.998Z</time></trkpt><trkpt lat="42.07647865328719" lon="12.398946088445166"><ele>208.4</ele><time>2026-04-09T17:02:12.998Z</time></trkpt><trkpt lat="42.076388453948844" lon="12.398860659968703"><ele>208.2</ele><time>2026-04-09T17:02:13.998Z</time></trkpt><trkpt lat="42.07630657062145" lon="12.398759751410848"><ele>208.0</ele><time>2026-04-09T17:02:14.998Z</time></trkpt><trkpt lat="42.07624530105262" lon="12.398671284292819"><ele>208.0</ele><time>2026-04-09T17:02:15.998Z</time></trkpt><trkpt lat="42.07617027577974" lon="12.398594825188672"><ele>208.0</ele><time>2026-04-09T17:02:16.998Z</time></trkpt><trkpt lat="42.07608237381398" lon="12.398522591577294"><ele>208.0</ele><time>2026-04-09T17:02:17.998Z</time></trkpt><trkpt lat="42.0759899247619" lon="12.398454693569436"><ele>208.0</ele><time>2026-04-09T17:02:18.998Z</time></trkpt><trkpt lat="42.07589664748128" lon="12.398415589170574"><ele>208.0</ele><time>2026-04-09T17:02:19.998Z</time></trkpt><trkpt lat="42.07581340808371" lon="12.398397699363368"><ele>207.66666666666666</ele><time>2026-04-09T17:02:20.998Z</time></trkpt><trkpt lat="42.07573605788299" lon="12.398376999791367"><ele>207.33333333333331</ele><time>2026-04-09T17:02:21.998Z</time></trkpt><trkpt lat="42.0756680032401" lon="12.398338345048314"><ele>207.0</ele><time>2026-04-09T17:02:22.998Z</time></trkpt><trkpt lat="42.075614689315366" lon="12.398290751845273"><ele>206.66666666666669</ele><time>2026-04-09T17:02:23.998Z</time></trkpt><trkpt lat="42.07553775352972" lon="12.398200243197882"><ele>206.33333333333334</ele><time>2026-04-09T17:02:25.998Z</time></trkpt><trkpt lat="42.075492481922076" lon="12.398119255926607"><ele>206.0</ele><time>2026-04-09T17:02:27.998Z</time></trkpt><trkpt lat="42.075429719751384" lon="12.398005028162194"><ele>206.00000000000003</ele><time>2026-04-09T17:02:29.998Z</time></trkpt><trkpt lat="42.075361402452366" lon="12.397986491249451"><ele>206.0</ele><time>2026-04-09T17:02:30.998Z</time></trkpt><trkpt lat="42.075238984766536" lon="12.398015151868169"><ele>206.0</ele><time>2026-04-09T17:02:32.998Z</time></trkpt><trkpt lat="42.07517570200769" lon="12.3980574123901"><ele>206.0</ele><time>2026-04-09T17:02:33.998Z</time></trkpt><trkpt lat="42.07509779091314" lon="12.398091189774673"><ele>206.00000000000003</ele><time>2026-04-09T17:02:34.998Z</time></trkpt><trkpt lat="42.07501228609564" lon="12.39810037513846"><ele>206.0</ele><time>2026-04-09T17:02:35.998Z</time></trkpt><trkpt lat="42.07492195008434" lon="12.398093898130938"><ele>206.20000000000002</ele><time>2026-04-09T17:02:36.998Z</time></trkpt><trkpt lat="42.07482739790895" lon="12.398084486550815"><ele>206.4</ele><time>2026-04-09T17:02:37.998Z</time></trkpt><trkpt lat="42.07472278666576" lon="12.398060968029348"><ele>206.6</ele><time>2026-04-09T17:02:38.998Z</time></trkpt><trkpt lat="42.07461266098637" lon="12.398031296344168"><ele>206.8</ele><time>2026-04-09T17:02:39.997Z</time></trkpt><trkpt lat="42.074495290896074" lon="12.397996510122534"><ele>207.0</ele><time>2026-04-09T17:02:40.997Z</time></trkpt><trkpt lat="42.074398802877276" lon="12.397969310895474"><ele>207.0</ele><time>2026-04-09T17:02:41.997Z</time></trkpt><trkpt lat="42.07430750409507" lon="12.397948575802628"><ele>207.0</ele><time>2026-04-09T17:02:42.997Z</time></trkpt><trkpt lat="42.07420675375986" lon="12.39792634425825"><ele>207.0</ele><time>2026-04-09T17:02:43.997Z</time></trkpt><trkpt lat="42.074106148139535" lon="12.397902079670907"><ele>207.0</ele><time>2026-04-09T17:02:44.997Z</time></trkpt><trkpt lat="42.07399804204774" lon="12.397882892658783"><ele>207.0</ele><time>2026-04-09T17:02:45.997Z</time></trkpt><trkpt lat="42.07388534991252" lon="12.39786046183572"><ele>206.75</ele><time>2026-04-09T17:02:46.997Z</time></trkpt><trkpt lat="42.07375922880867" lon="12.397836553937875"><ele>206.5</ele><time>2026-04-09T17:02:47.997Z</time></trkpt><trkpt lat="42.07364150059154" lon="12.397811848443233"><ele>206.25</ele><time>2026-04-09T17:02:48.997Z</time></trkpt><trkpt lat="42.073522318947454" lon="12.397788448613102"><ele>206.0</ele><time>2026-04-09T17:02:49.997Z</time></trkpt><trkpt lat="42.073394040707036" lon="12.397775622728863"><ele>204.33333333333334</ele><time>2026-04-09T17:02:50.997Z</time></trkpt><trkpt lat="42.07325143135855" lon="12.397730466416386"><ele>202.66666666666669</ele><time>2026-04-09T17:02:51.997Z</time></trkpt><trkpt lat="42.073073477193326" lon="12.397694530639251"><ele>201.0</ele><time>2026-04-09T17:02:52.997Z</time></trkpt><trkpt lat="42.072879100648095" lon="12.397655486381023"><ele>201.0</ele><time>2026-04-09T17:02:53.997Z</time></trkpt><trkpt lat="42.07268888419479" lon="12.397628068176923"><ele>201.0</ele><time>2026-04-09T17:02:54.997Z</time></trkpt><trkpt lat="42.07252016063504" lon="12.397588162781664"><ele>201.0</ele><time>2026-04-09T17:02:55.997Z</time></trkpt><trkpt lat="42.07237063829956" lon="12.397557793755665"><ele>200.5</ele><time>2026-04-09T17:02:56.997Z</time></trkpt><trkpt lat="42.072241970791374" lon="12.397529621145027"><ele>200.0</ele><time>2026-04-09T17:02:57.997Z</time></trkpt><trkpt lat="42.072123650375815" lon="12.397502123041162"><ele>199.5</ele><time>2026-04-09T17:02:58.997Z</time></trkpt><trkpt lat="42.07201818117043" lon="12.397475323907384"><ele>199.0</ele><time>2026-04-09T17:03:00Z</time></trkpt><trkpt lat="42.07191668248348" lon="12.397447850084943"><ele>199.0</ele><time>2026-04-09T17:03:01Z</time></trkpt><trkpt lat="42.07180790296845" lon="12.397425548936424"><ele>199.0</ele><time>2026-04-09T17:03:02Z</time></trkpt><trkpt lat="42.07169454469139" lon="12.397399313590427"><ele>199.0</ele><time>2026-04-09T17:03:03Z</time></trkpt><trkpt lat="42.07157761822327" lon="12.397374711216417"><ele>199.0</ele><time>2026-04-09T17:03:04Z</time></trkpt><trkpt lat="42.07146282824069" lon="12.39735004818458"><ele>198.75</ele><time>2026-04-09T17:03:05Z</time></trkpt><trkpt lat="42.071348662878044" lon="12.39732237586837"><ele>198.5</ele><time>2026-04-09T17:03:06Z</time></trkpt><trkpt lat="42.07123084172752" lon="12.397299930871668"><ele>198.25</ele><time>2026-04-09T17:03:07Z</time></trkpt><trkpt lat="42.07110989668089" lon="12.397281087410185"><ele>198.0</ele><time>2026-04-09T17:03:08Z</time></trkpt><trkpt lat="42.070984188893156" lon="12.397302121755938"><ele>198.0</ele><time>2026-04-09T17:03:09Z</time></trkpt><trkpt lat="42.07086284029322" lon="12.397317787804777"><ele>198.0</ele><time>2026-04-09T17:03:10Z</time></trkpt><trkpt lat="42.07073605276078" lon="12.397337445282005"><ele>198.0</ele><time>2026-04-09T17:03:11Z</time></trkpt><trkpt lat="42.07060815448493" lon="12.397353356795099"><ele>198.0</ele><time>2026-04-09T17:03:12Z</time></trkpt><trkpt lat="42.070481394759824" lon="12.397366662814598"><ele>197.75</ele><time>2026-04-09T17:03:13Z</time></trkpt><trkpt lat="42.07035251774112" lon="12.397383547000368"><ele>197.5</ele><time>2026-04-09T17:03:14Z</time></trkpt><trkpt lat="42.07022190626869" lon="12.39740084390485"><ele>197.25</ele><time>2026-04-09T17:03:15Z</time></trkpt><trkpt lat="42.07009072129145" lon="12.397417432183545"><ele>197.0</ele><time>2026-04-09T17:03:16Z</time></trkpt><trkpt lat="42.069960220263184" lon="12.397439665256682"><ele>196.5</ele><time>2026-04-09T17:03:17Z</time></trkpt><trkpt lat="42.06982764993018" lon="12.397457085304467"><ele>196.0</ele><time>2026-04-09T17:03:18Z</time></trkpt><trkpt lat="42.06969555061888" lon="12.397469577971929"><ele>195.5</ele><time>2026-04-09T17:03:19Z</time></trkpt><trkpt lat="42.069571487989045" lon="12.397467561080086"><ele>195.0</ele><time>2026-04-09T17:03:20Z</time></trkpt><trkpt lat="42.06944938898959" lon="12.397421242384567"><ele>195.0</ele><time>2026-04-09T17:03:21Z</time></trkpt><trkpt lat="42.06933321088594" lon="12.397320943069612"><ele>195.0</ele><time>2026-04-09T17:03:22Z</time></trkpt><trkpt lat="42.069226489707006" lon="12.397153203947552"><ele>195.0</ele><time>2026-04-09T17:03:23Z</time></trkpt><trkpt lat="42.06918617969541" lon="12.397408843941763"><ele>182.0</ele><time>2026-04-09T17:03:24Z</time></trkpt><trkpt lat="42.06857197101688" lon="12.396790001148238"><ele>182.0</ele><time>2026-04-09T17:03:25Z</time></trkpt><trkpt lat="42.069072604286696" lon="12.396393526458514"><ele>191.0</ele><time>2026-04-09T17:03:26Z</time></trkpt><trkpt lat="42.06863751002898" lon="12.39762335856502"><ele>191.0</ele><time>2026-04-09T17:03:27Z</time></trkpt><trkpt lat="42.06850904542689" lon="12.397651680643479"><ele>191.0</ele><time>2026-04-09T17:03:28Z</time></trkpt><trkpt lat="42.06836279582527" lon="12.397568564065288"><ele>191.0</ele><time>2026-04-09T17:03:29Z</time></trkpt><trkpt lat="42.06810845042779" lon="12.397628704885664"><ele>190.0</ele><time>2026-04-09T17:03:31Z</time></trkpt><trkpt lat="42.06798452539953" lon="12.39765375517245"><ele>189.0</ele><time>2026-04-09T17:03:31.999Z</time></trkpt><trkpt lat="42.067855326587775" lon="12.397668558636193"><ele>188.0</ele><time>2026-04-09T17:03:32.999Z</time></trkpt><trkpt lat="42.06772352312623" lon="12.397679049052991"><ele>187.0</ele><time>2026-04-09T17:03:33.999Z</time></trkpt><trkpt lat="42.067591559584464" lon="12.397684872794391"><ele>187.0</ele><time>2026-04-09T17:03:34.999Z</time></trkpt><trkpt lat="42.06746145275462" lon="12.397690771077976"><ele>187.0</ele><time>2026-04-09T17:03:35.999Z</time></trkpt><trkpt lat="42.06733299541627" lon="12.397696721261246"><ele>187.0</ele><time>2026-04-09T17:03:36.999Z</time></trkpt><trkpt lat="42.067219424236555" lon="12.397700852245686"><ele>187.0</ele><time>2026-04-09T17:03:37.999Z</time></trkpt><trkpt lat="42.067121961738316" lon="12.397700968660187"><ele>187.0</ele><time>2026-04-09T17:03:38.999Z</time></trkpt><trkpt lat="42.06704649110711" lon="12.39769779466131"><ele>187.0</ele><time>2026-04-09T17:03:39.999Z</time></trkpt><trkpt lat="42.0669788552055" lon="12.397694950192575"><ele>187.0</ele><time>2026-04-09T17:03:41.999Z</time></trkpt><trkpt lat="42.06691000470548" lon="12.397699028024396"><ele>187.0</ele><time>2026-04-09T17:04:00.999Z</time></trkpt><trkpt lat="42.06682865990926" lon="12.397706989030478"><ele>187.0</ele><time>2026-04-09T17:04:02.999Z</time></trkpt><trkpt lat="42.06690379561266" lon="12.397734396341091"><ele>187.0</ele><time>2026-04-09T17:06:32.998Z</time></trkpt><trkpt lat="42.06697680615582" lon="12.397697745306004"><ele>187.0</ele><time>2026-04-09T17:06:42.998Z</time></trkpt><trkpt lat="42.06730249722832" lon="12.397834939591121"><ele>187.0</ele><time>2026-04-09T17:06:45.998Z</time></trkpt><trkpt lat="42.067422826671674" lon="12.397829141286"><ele>187.0</ele><time>2026-04-09T17:06:46.998Z</time></trkpt><trkpt lat="42.06754755816182" lon="12.39782828865426"><ele>187.0</ele><time>2026-04-09T17:06:47.998Z</time></trkpt><trkpt lat="42.06767429721858" lon="12.397820280723352"><ele>187.0</ele><time>2026-04-09T17:06:48.998Z</time></trkpt><trkpt lat="42.06780041405217" lon="12.3978023933943"><ele>187.0</ele><time>2026-04-09T17:06:49.998Z</time></trkpt><trkpt lat="42.06792744955194" lon="12.397800967023002"><ele>187.0</ele><time>2026-04-09T17:06:50.998Z</time></trkpt><trkpt lat="42.068055054103226" lon="12.397785750578954"><ele>187.0</ele><time>2026-04-09T17:06:51.997Z</time></trkpt><trkpt lat="42.068181890654664" lon="12.39776711498884"><ele>187.0</ele><time>2026-04-09T17:06:52.997Z</time></trkpt><trkpt lat="42.06830657913322" lon="12.397723572856455"><ele>188.0</ele><time>2026-04-09T17:06:53.997Z</time></trkpt><trkpt lat="42.06843099988876" lon="12.397703285942251"><ele>189.0</ele><time>2026-04-09T17:06:54.997Z</time></trkpt><trkpt lat="42.06855270348334" lon="12.397683284164678"><ele>190.0</ele><time>2026-04-09T17:06:55.997Z</time></trkpt><trkpt lat="42.06867505605176" lon="12.397662010984135"><ele>191.0</ele><time>2026-04-09T17:06:56.997Z</time></trkpt><trkpt lat="42.068795572169755" lon="12.39763204991583"><ele>191.0</ele><time>2026-04-09T17:06:57.997Z</time></trkpt><trkpt lat="42.06891926481732" lon="12.39762816605977"><ele>191.0</ele><time>2026-04-09T17:06:58.997Z</time></trkpt><trkpt lat="42.069039905479805" lon="12.397589495079096"><ele>191.0</ele><time>2026-04-09T17:06:59.997Z</time></trkpt><trkpt lat="42.069161367733614" lon="12.397592746063877"><ele>191.0</ele><time>2026-04-09T17:07:00.997Z</time></trkpt><trkpt lat="42.06928078260348" lon="12.397576636585676"><ele>192.0</ele><time>2026-04-09T17:07:01.997Z</time></trkpt><trkpt lat="42.06940139548337" lon="12.39756036543051"><ele>193.0</ele><time>2026-04-09T17:07:02.997Z</time></trkpt><trkpt lat="42.06952045741862" lon="12.39754325347433"><ele>194.0</ele><time>2026-04-09T17:07:03.997Z</time></trkpt><trkpt lat="42.06964186367697" lon="12.397527154048715"><ele>195.0</ele><time>2026-04-09T17:07:04.997Z</time></trkpt><trkpt lat="42.06978013399905" lon="12.397507866405"><ele>195.0</ele><time>2026-04-09T17:07:05.997Z</time></trkpt><trkpt lat="42.06993652102397" lon="12.397486131004007"><ele>195.0</ele><time>2026-04-09T17:07:06.997Z</time></trkpt><trkpt lat="42.07010914410973" lon="12.397461671923244"><ele>195.0</ele><time>2026-04-09T17:07:07.997Z</time></trkpt><trkpt lat="42.07027778015934" lon="12.397438412359904"><ele>195.5</ele><time>2026-04-09T17:07:08.997Z</time></trkpt><trkpt lat="42.07038783592538" lon="12.397423915836255"><ele>196.0</ele><time>2026-04-09T17:07:10Z</time></trkpt><trkpt lat="42.07051971071668" lon="12.397406431553062"><ele>196.5</ele><time>2026-04-09T17:07:11Z</time></trkpt><trkpt lat="42.070652506260764" lon="12.397370019895527"><ele>197.0</ele><time>2026-04-09T17:07:12Z</time></trkpt><trkpt lat="42.070769201613636" lon="12.397362903117177"><ele>197.25</ele><time>2026-04-09T17:07:13Z</time></trkpt><trkpt lat="42.070895471994575" lon="12.397349357157886"><ele>197.5</ele><time>2026-04-09T17:07:14Z</time></trkpt><trkpt lat="42.07101521471649" lon="12.397332824775686"><ele>197.75</ele><time>2026-04-09T17:07:15Z</time></trkpt><trkpt lat="42.07113254633792" lon="12.397318097293109"><ele>198.0</ele><time>2026-04-09T17:07:16Z</time></trkpt><trkpt lat="42.07124943184126" lon="12.39734277557554"><ele>198.0</ele><time>2026-04-09T17:07:17Z</time></trkpt><trkpt lat="42.07136388727336" lon="12.397367838829096"><ele>198.0</ele><time>2026-04-09T17:07:18Z</time></trkpt><trkpt lat="42.07147986807386" lon="12.397394700649407"><ele>198.0</ele><time>2026-04-09T17:07:19Z</time></trkpt><trkpt lat="42.07159553409964" lon="12.397422486321497"><ele>198.0</ele><time>2026-04-09T17:07:20Z</time></trkpt><trkpt lat="42.071705736949255" lon="12.397450237252698"><ele>198.2</ele><time>2026-04-09T17:07:21Z</time></trkpt><trkpt lat="42.07181485170996" lon="12.397478595229773"><ele>198.4</ele><time>2026-04-09T17:07:22Z</time></trkpt><trkpt lat="42.07193010589408" lon="12.397508822158679"><ele>198.6</ele><time>2026-04-09T17:07:23Z</time></trkpt><trkpt lat="42.072042333324276" lon="12.397533520365172"><ele>198.79999999999998</ele><time>2026-04-09T17:07:24Z</time></trkpt><trkpt lat="42.07214827011377" lon="12.397537677820583"><ele>199.0</ele><time>2026-04-09T17:07:25Z</time></trkpt><trkpt lat="42.07223896719185" lon="12.39756284044357"><ele>199.0</ele><time>2026-04-09T17:07:26Z</time></trkpt><trkpt lat="42.072326083600196" lon="12.397585192899284"><ele>199.0</ele><time>2026-04-09T17:07:27Z</time></trkpt><trkpt lat="42.0724177249138" lon="12.397605680395225"><ele>199.0</ele><time>2026-04-09T17:07:28Z</time></trkpt><trkpt lat="42.07251116191393" lon="12.397623350613145"><ele>199.0</ele><time>2026-04-09T17:07:29Z</time></trkpt><trkpt lat="42.07261144035696" lon="12.397645068821575"><ele>199.0</ele><time>2026-04-09T17:07:30Z</time></trkpt><trkpt lat="42.07270826671516" lon="12.397663686368716"><ele>199.33333333333331</ele><time>2026-04-09T17:07:31Z</time></trkpt><trkpt lat="42.072792734116675" lon="12.397678977603183"><ele>199.66666666666666</ele><time>2026-04-09T17:07:32Z</time></trkpt><trkpt lat="42.07287173214504" lon="12.397693889086156"><ele>200.0</ele><time>2026-04-09T17:07:33Z</time></trkpt><trkpt lat="42.072952254957436" lon="12.39771290782264"><ele>200.33333333333331</ele><time>2026-04-09T17:07:34Z</time></trkpt><trkpt lat="42.07303466207667" lon="12.397727100932734"><ele>200.66666666666666</ele><time>2026-04-09T17:07:35Z</time></trkpt><trkpt lat="42.07311752859911" lon="12.397737257473793"><ele>201.0</ele><time>2026-04-09T17:07:36Z</time></trkpt><trkpt lat="42.073203336775975" lon="12.397756066863952"><ele>202.0</ele><time>2026-04-09T17:07:37Z</time></trkpt><trkpt lat="42.07329037921792" lon="12.397770172916669"><ele>203.0</ele><time>2026-04-09T17:07:38Z</time></trkpt><trkpt lat="42.073374597244296" lon="12.397797416892814"><ele>204.0</ele><time>2026-04-09T17:07:39Z</time></trkpt><trkpt lat="42.07346622088233" lon="12.39781777710739"><ele>205.0</ele><time>2026-04-09T17:07:40Z</time></trkpt><trkpt lat="42.073556824827456" lon="12.397826166504514"><ele>206.0</ele><time>2026-04-09T17:07:40.999Z</time></trkpt><trkpt lat="42.07365443689483" lon="12.397850940526707"><ele>206.0</ele><time>2026-04-09T17:07:41.999Z</time></trkpt><trkpt lat="42.07375259192224" lon="12.397869736087115"><ele>206.0</ele><time>2026-04-09T17:07:42.999Z</time></trkpt><trkpt lat="42.07385210025896" lon="12.39788969066253"><ele>206.0</ele><time>2026-04-09T17:07:43.999Z</time></trkpt><trkpt lat="42.073953405885405" lon="12.397911504588723"><ele>206.0</ele><time>2026-04-09T17:07:44.999Z</time></trkpt><trkpt lat="42.07406401576005" lon="12.39792880986951"><ele>206.0</ele><time>2026-04-09T17:07:45.999Z</time></trkpt><trkpt lat="42.0741690453489" lon="12.397971757213414"><ele>206.20000000000002</ele><time>2026-04-09T17:07:46.999Z</time></trkpt><trkpt lat="42.07427403671642" lon="12.397996110859951"><ele>206.4</ele><time>2026-04-09T17:07:47.999Z</time></trkpt><trkpt lat="42.07438818110911" lon="12.398003775834514"><ele>206.6</ele><time>2026-04-09T17:07:48.999Z</time></trkpt><trkpt lat="42.074496040186716" lon="12.398036229597565"><ele>206.8</ele><time>2026-04-09T17:07:49.999Z</time></trkpt><trkpt lat="42.0746049601247" lon="12.398052989515365"><ele>207.0</ele><time>2026-04-09T17:07:50.999Z</time></trkpt><trkpt lat="42.07469506790946" lon="12.398079357548243"><ele>206.8</ele><time>2026-04-09T17:07:51.999Z</time></trkpt><trkpt lat="42.07479346231552" lon="12.39810894743722"><ele>206.6</ele><time>2026-04-09T17:07:52.999Z</time></trkpt><trkpt lat="42.07489736270677" lon="12.398144789647882"><ele>206.4</ele><time>2026-04-09T17:07:53.999Z</time></trkpt><trkpt lat="42.0749914994739" lon="12.398145806964207"><ele>206.20000000000002</ele><time>2026-04-09T17:07:54.999Z</time></trkpt><trkpt lat="42.07508055693589" lon="12.39814851980329"><ele>206.0</ele><time>2026-04-09T17:07:55.999Z</time></trkpt><trkpt lat="42.07515476598411" lon="12.398155256256604"><ele>206.00000000000003</ele><time>2026-04-09T17:07:56.999Z</time></trkpt><trkpt lat="42.07522415880544" lon="12.398184584355864"><ele>206.0</ele><time>2026-04-09T17:07:57.999Z</time></trkpt><trkpt lat="42.075288874006866" lon="12.398229772413602"><ele>206.0</ele><time>2026-04-09T17:07:58.999Z</time></trkpt><trkpt lat="42.07535224832305" lon="12.398256730753484"><ele>206.0</ele><time>2026-04-09T17:07:59.999Z</time></trkpt><trkpt lat="42.07545148703787" lon="12.398209642956127"><ele>206.00000000000003</ele><time>2026-04-09T17:08:01.999Z</time></trkpt><trkpt lat="42.07546388679372" lon="12.398061835833495"><ele>206.0</ele><time>2026-04-09T17:08:03.999Z</time></trkpt><trkpt lat="42.075419154018014" lon="12.397993241291337"><ele>206.0</ele><time>2026-04-09T17:08:04.999Z</time></trkpt><trkpt lat="42.07528486119292" lon="12.397987142014923"><ele>206.0</ele><time>2026-04-09T17:08:06.999Z</time></trkpt><trkpt lat="42.07520763414235" lon="12.398050479834737"><ele>206.0</ele><time>2026-04-09T17:08:07.999Z</time></trkpt><trkpt lat="42.075117200867616" lon="12.398089537997944"><ele>206.0</ele><time>2026-04-09T17:08:08.999Z</time></trkpt><trkpt lat="42.07500460070424" lon="12.398098192847577"><ele>206.0</ele><time>2026-04-09T17:08:09.999Z</time></trkpt><trkpt lat="42.07487394765867" lon="12.398081433022604"><ele>206.33333333333334</ele><time>2026-04-09T17:08:10.999Z</time></trkpt><trkpt lat="42.074736966399804" lon="12.398056028719756"><ele>206.66666666666669</ele><time>2026-04-09T17:08:11.999Z</time></trkpt><trkpt lat="42.07458677119681" lon="12.398020127236386"><ele>207.0</ele><time>2026-04-09T17:08:12.999Z</time></trkpt><trkpt lat="42.07443082154946" lon="12.397979283378051"><ele>207.0</ele><time>2026-04-09T17:08:13.999Z</time></trkpt><trkpt lat="42.07426704971595" lon="12.397942272475662"><ele>207.0</ele><time>2026-04-09T17:08:14.999Z</time></trkpt><trkpt lat="42.07412530899731" lon="12.397919437883335"><ele>207.0</ele><time>2026-04-09T17:08:15.999Z</time></trkpt><trkpt lat="42.07399189595627" lon="12.397889413344117"><ele>207.0</ele><time>2026-04-09T17:08:16.999Z</time></trkpt><trkpt lat="42.07386312424106" lon="12.397856217219598"><ele>206.75</ele><time>2026-04-09T17:08:17.998Z</time></trkpt><trkpt lat="42.07373368355661" lon="12.397830363932062"><ele>206.5</ele><time>2026-04-09T17:08:18.998Z</time></trkpt><trkpt lat="42.07360637041517" lon="12.397807390731094"><ele>206.25</ele><time>2026-04-09T17:08:19.998Z</time></trkpt><trkpt lat="42.07348009000269" lon="12.397782028838055"><ele>206.0</ele><time>2026-04-09T17:08:20.998Z</time></trkpt><trkpt lat="42.07335711575041" lon="12.39775514699045"><ele>205.0</ele><time>2026-04-09T17:08:21.998Z</time></trkpt><trkpt lat="42.07324631029762" lon="12.39773661044222"><ele>204.0</ele><time>2026-04-09T17:08:22.998Z</time></trkpt><trkpt lat="42.073147796848545" lon="12.397714782947475"><ele>203.0</ele><time>2026-04-09T17:08:23.998Z</time></trkpt><trkpt lat="42.073051927515664" lon="12.397694248080159"><ele>202.0</ele><time>2026-04-09T17:08:24.998Z</time></trkpt><trkpt lat="42.07296299304619" lon="12.397675828308925"><ele>201.0</ele><time>2026-04-09T17:08:25.998Z</time></trkpt><trkpt lat="42.07287405257359" lon="12.397662131981187"><ele>201.0</ele><time>2026-04-09T17:08:26.998Z</time></trkpt><trkpt lat="42.07278915867861" lon="12.397644290631947"><ele>201.0</ele><time>2026-04-09T17:08:27.998Z</time></trkpt><trkpt lat="42.07270072182325" lon="12.39762558726225"><ele>201.0</ele><time>2026-04-09T17:08:28.998Z</time></trkpt><trkpt lat="42.07261803134488" lon="12.397605686551188"><ele>201.0</ele><time>2026-04-09T17:08:29.998Z</time></trkpt><trkpt lat="42.072530199852295" lon="12.39759105799412"><ele>201.0</ele><time>2026-04-09T17:08:30.998Z</time></trkpt><trkpt lat="42.07244476922064" lon="12.397575344945734"><ele>201.0</ele><time>2026-04-09T17:08:31.998Z</time></trkpt><trkpt lat="42.07235496711798" lon="12.397555044833235"><ele>200.66666666666666</ele><time>2026-04-09T17:08:32.998Z</time></trkpt><trkpt lat="42.07226755278533" lon="12.397533985326746"><ele>200.33333333333331</ele><time>2026-04-09T17:08:33.998Z</time></trkpt><trkpt lat="42.07218037785866" lon="12.397518449063254"><ele>200.0</ele><time>2026-04-09T17:08:34.998Z</time></trkpt><trkpt lat="42.072103574554106" lon="12.3974973458998"><ele>199.66666666666666</ele><time>2026-04-09T17:08:35.998Z</time></trkpt><trkpt lat="42.07203327726719" lon="12.397479031399332"><ele>199.33333333333331</ele><time>2026-04-09T17:08:36.998Z</time></trkpt><trkpt lat="42.07196162897207" lon="12.397463455519409"><ele>199.0</ele><time>2026-04-09T17:08:37.998Z</time></trkpt><trkpt lat="42.07188671492785" lon="12.397448754851181"><ele>199.0</ele><time>2026-04-09T17:08:38.998Z</time></trkpt><trkpt lat="42.071798418478025" lon="12.397427937705892"><ele>199.0</ele><time>2026-04-09T17:08:39.998Z</time></trkpt><trkpt lat="42.07171369124746" lon="12.397406883279132"><ele>199.0</ele><time>2026-04-09T17:08:40.998Z</time></trkpt><trkpt lat="42.071623452295555" lon="12.39738671890192"><ele>199.0</ele><time>2026-04-09T17:08:41.998Z</time></trkpt><trkpt lat="42.071533722071536" lon="12.39736280466255"><ele>199.0</ele><time>2026-04-09T17:08:42.998Z</time></trkpt><trkpt lat="42.071438052666984" lon="12.39733471929142"><ele>198.79999999999998</ele><time>2026-04-09T17:08:43.998Z</time></trkpt><trkpt lat="42.071337169119566" lon="12.397319825307074"><ele>198.6</ele><time>2026-04-09T17:08:44.998Z</time></trkpt><trkpt lat="42.07123323398753" lon="12.397296080585821"><ele>198.4</ele><time>2026-04-09T17:08:45.998Z</time></trkpt><trkpt lat="42.07112994448524" lon="12.397290639033132"><ele>198.2</ele><time>2026-04-09T17:08:46.998Z</time></trkpt><trkpt lat="42.07101656288347" lon="12.39729910561565"><ele>198.0</ele><time>2026-04-09T17:08:47.998Z</time></trkpt><trkpt lat="42.070902969841804" lon="12.39731240955975"><ele>198.0</ele><time>2026-04-09T17:08:48.998Z</time></trkpt><trkpt lat="42.07079056908137" lon="12.397324686520058"><ele>198.0</ele><time>2026-04-09T17:08:49.998Z</time></trkpt><trkpt lat="42.07067480088985" lon="12.397338514846364"><ele>198.0</ele><time>2026-04-09T17:08:50.998Z</time></trkpt><trkpt lat="42.070556521559304" lon="12.39735529072476"><ele>198.0</ele><time>2026-04-09T17:08:51.998Z</time></trkpt><trkpt lat="42.070441773860196" lon="12.397370021794641"><ele>197.75</ele><time>2026-04-09T17:08:52.998Z</time></trkpt><trkpt lat="42.070322250896716" lon="12.397391328498648"><ele>197.5</ele><time>2026-04-09T17:08:53.998Z</time></trkpt><trkpt lat="42.07020374917135" lon="12.397408086378073"><ele>197.25</ele><time>2026-04-09T17:08:54.998Z</time></trkpt><trkpt lat="42.07008249972912" lon="12.397424262550725"><ele>197.0</ele><time>2026-04-09T17:08:55.997Z</time></trkpt><trkpt lat="42.069960626415906" lon="12.397444336996823"><ele>196.5</ele><time>2026-04-09T17:08:56.997Z</time></trkpt><trkpt lat="42.06983482343302" lon="12.397456970023068"><ele>196.0</ele><time>2026-04-09T17:08:57.997Z</time></trkpt><trkpt lat="42.069704407807485" lon="12.397472862026405"><ele>195.5</ele><time>2026-04-09T17:08:58.997Z</time></trkpt><trkpt lat="42.06957488999653" lon="12.397491789338751"><ele>195.0</ele><time>2026-04-09T17:08:59.997Z</time></trkpt><trkpt lat="42.06943705745254" lon="12.397514102551511"><ele>195.0</ele><time>2026-04-09T17:09:00.997Z</time></trkpt><trkpt lat="42.06930223012308" lon="12.397534829611091"><ele>195.0</ele><time>2026-04-09T17:09:01.997Z</time></trkpt><trkpt lat="42.06916480920266" lon="12.397544994068253"><ele>195.0</ele><time>2026-04-09T17:09:02.997Z</time></trkpt><trkpt lat="42.06902108034183" lon="12.397566307089676"><ele>195.0</ele><time>2026-04-09T17:09:03.997Z</time></trkpt><trkpt lat="42.068885745207574" lon="12.397593071477912"><ele>194.0</ele><time>2026-04-09T17:09:04.997Z</time></trkpt><trkpt lat="42.068752103933" lon="12.397616084515517"><ele>193.0</ele><time>2026-04-09T17:09:05.997Z</time></trkpt><trkpt lat="42.06862046663901" lon="12.397634345524974"><ele>192.0</ele><time>2026-04-09T17:09:06.997Z</time></trkpt><trkpt lat="42.06848291823499" lon="12.39766451343413"><ele>191.0</ele><time>2026-04-09T17:09:07.997Z</time></trkpt><trkpt lat="42.06835183154637" lon="12.39769269597961"><ele>190.0</ele><time>2026-04-09T17:09:08.997Z</time></trkpt><trkpt lat="42.06820787554129" lon="12.397719436197672"><ele>189.0</ele><time>2026-04-09T17:09:09.997Z</time></trkpt><trkpt lat="42.06806117848331" lon="12.39773736577164"><ele>188.0</ele><time>2026-04-09T17:09:10.997Z</time></trkpt><trkpt lat="42.06790839099687" lon="12.397756147235308"><ele>187.0</ele><time>2026-04-09T17:09:11.997Z</time></trkpt><trkpt lat="42.067749802665695" lon="12.39777501333388"><ele>187.0</ele><time>2026-04-09T17:09:12.997Z</time></trkpt><trkpt lat="42.06759931890635" lon="12.397786197515844"><ele>187.0</ele><time>2026-04-09T17:09:13.997Z</time></trkpt><trkpt lat="42.067462331735804" lon="12.397792673119378"><ele>187.0</ele><time>2026-04-09T17:09:15Z</time></trkpt><trkpt lat="42.06734260861631" lon="12.397791320036234"><ele>187.0</ele><time>2026-04-09T17:09:16Z</time></trkpt><trkpt lat="42.06722599805023" lon="12.397798426371851"><ele>187.0</ele><time>2026-04-09T17:09:17Z</time></trkpt><trkpt lat="42.06711249359814" lon="12.397804514208595"><ele>187.0</ele><time>2026-04-09T17:09:18Z</time></trkpt><trkpt lat="42.066996362948295" lon="12.397806196788533"><ele>187.0</ele><time>2026-04-09T17:09:19Z</time></trkpt><trkpt lat="42.06687198581025" lon="12.397813163943761"><ele>187.0</ele><time>2026-04-09T17:09:20Z</time></trkpt><trkpt lat="42.06674599138204" lon="12.397810256328055"><ele>187.0</ele><time>2026-04-09T17:09:21Z</time></trkpt><trkpt lat="42.06661543584316" lon="12.397797145022533"><ele>187.0</ele><time>2026-04-09T17:09:22Z</time></trkpt><trkpt lat="42.06646976771384" lon="12.397771860578219"><ele>187.0</ele><time>2026-04-09T17:09:23Z</time></trkpt><trkpt lat="42.06631602276262" lon="12.39772759799898"><ele>187.0</ele><time>2026-04-09T17:09:24Z</time></trkpt><trkpt lat="42.06614744626889" lon="12.397669267147082"><ele>186.33333333333334</ele><time>2026-04-09T17:09:25Z</time></trkpt><trkpt lat="42.06596671004956" lon="12.397604397143155"><ele>185.66666666666666</ele><time>2026-04-09T17:09:26Z</time></trkpt><trkpt lat="42.06579246510802" lon="12.397549513648064"><ele>185.0</ele><time>2026-04-09T17:09:27Z</time></trkpt><trkpt lat="42.06563980945903" lon="12.39751563130083"><ele>184.75</ele><time>2026-04-09T17:09:28Z</time></trkpt><trkpt lat="42.065497794564564" lon="12.397498782203938"><ele>184.5</ele><time>2026-04-09T17:09:29Z</time></trkpt><trkpt lat="42.065355206443996" lon="12.397491037892744"><ele>184.25</ele><time>2026-04-09T17:09:30Z</time></trkpt><trkpt lat="42.06521075629387" lon="12.397489633113794"><ele>184.0</ele><time>2026-04-09T17:09:31Z</time></trkpt><trkpt lat="42.06506476390799" lon="12.397496314840525"><ele>182.33333333333334</ele><time>2026-04-09T17:09:32Z</time></trkpt><trkpt lat="42.06491764321406" lon="12.397511502176528"><ele>180.66666666666666</ele><time>2026-04-09T17:09:33Z</time></trkpt><trkpt lat="42.064766946242884" lon="12.397534500709444"><ele>179.0</ele><time>2026-04-09T17:09:34Z</time></trkpt><trkpt lat="42.06461144134946" lon="12.397564245198453"><ele>179.0</ele><time>2026-04-09T17:09:35Z</time></trkpt><trkpt lat="42.06445505970688" lon="12.397600367081438"><ele>179.0</ele><time>2026-04-09T17:09:36Z</time></trkpt><trkpt lat="42.064295007916954" lon="12.397641542735435"><ele>179.0</ele><time>2026-04-09T17:09:37Z</time></trkpt><trkpt lat="42.06414901273972" lon="12.397676978160675"><ele>178.66666666666666</ele><time>2026-04-09T17:09:38Z</time></trkpt><trkpt lat="42.06400177888481" lon="12.397708942080726"><ele>178.33333333333334</ele><time>2026-04-09T17:09:39Z</time></trkpt><trkpt lat="42.0638516308185" lon="12.397747212148943"><ele>178.0</ele><time>2026-04-09T17:09:40Z</time></trkpt><trkpt lat="42.06370261631367" lon="12.397784229572185"><ele>178.0</ele><time>2026-04-09T17:09:41Z</time></trkpt><trkpt lat="42.06356647356798" lon="12.397824373039233"><ele>178.0</ele><time>2026-04-09T17:09:42Z</time></trkpt><trkpt lat="42.06342946581691" lon="12.397862434575845"><ele>178.0</ele><time>2026-04-09T17:09:43Z</time></trkpt><trkpt lat="42.06329297851618" lon="12.397906183947592"><ele>178.0</ele><time>2026-04-09T17:09:44Z</time></trkpt><trkpt lat="42.063154425857746" lon="12.39794585879842"><ele>176.66666666666669</ele><time>2026-04-09T17:09:45Z</time></trkpt><trkpt lat="42.06301052743064" lon="12.397991866149033"><ele>175.33333333333334</ele><time>2026-04-09T17:09:45.999Z</time></trkpt><trkpt lat="42.06286147200433" lon="12.398041176754312"><ele>174.0</ele><time>2026-04-09T17:09:46.999Z</time></trkpt><trkpt lat="42.06270697964411" lon="12.39809012787384"><ele>174.0</ele><time>2026-04-09T17:09:47.999Z</time></trkpt><trkpt lat="42.06254430230919" lon="12.398145501333286"><ele>174.0</ele><time>2026-04-09T17:09:48.999Z</time></trkpt><trkpt lat="42.06238265423915" lon="12.398195937405296"><ele>174.0</ele><time>2026-04-09T17:09:49.999Z</time></trkpt><trkpt lat="42.062205817631934" lon="12.398254526637702"><ele>172.66666666666666</ele><time>2026-04-09T17:09:50.999Z</time></trkpt><trkpt lat="42.062035701164355" lon="12.398299942141053"><ele>171.33333333333331</ele><time>2026-04-09T17:09:51.999Z</time></trkpt><trkpt lat="42.06187731563803" lon="12.398335998533879"><ele>170.0</ele><time>2026-04-09T17:09:52.999Z</time></trkpt><trkpt lat="42.0617304184788" lon="12.398357040397572"><ele>169.75</ele><time>2026-04-09T17:09:53.999Z</time></trkpt><trkpt lat="42.06159508214733" lon="12.39836186093824"><ele>169.5</ele><time>2026-04-09T17:09:54.999Z</time></trkpt><trkpt lat="42.06147775226858" lon="12.398357394647126"><ele>169.25</ele><time>2026-04-09T17:09:55.999Z</time></trkpt><trkpt lat="42.06137439269443" lon="12.398352653786093"><ele>169.0</ele><time>2026-04-09T17:09:56.999Z</time></trkpt><trkpt lat="42.061278062146314" lon="12.398352675911736"><ele>169.0</ele><time>2026-04-09T17:09:57.999Z</time></trkpt><trkpt lat="42.06120132356251" lon="12.39835168545629"><ele>169.0</ele><time>2026-04-09T17:09:58.999Z</time></trkpt><trkpt lat="42.0611231294163" lon="12.398332186625773"><ele>169.0</ele><time>2026-04-09T17:09:59.999Z</time></trkpt><trkpt lat="42.06104066688331" lon="12.39829908800011"><ele>169.0</ele><time>2026-04-09T17:10:00.999Z</time></trkpt><trkpt lat="42.06095409469974" lon="12.39828490709344"><ele>169.0</ele><time>2026-04-09T17:10:01.999Z</time></trkpt><trkpt lat="42.06086477934738" lon="12.398276751245108"><ele>169.0</ele><time>2026-04-09T17:10:02.999Z</time></trkpt><trkpt lat="42.06079098094511" lon="12.398404695869582"><ele>168.2</ele><time>2026-04-09T17:10:03.999Z</time></trkpt><trkpt lat="42.0607144425185" lon="12.398490020898448"><ele>167.39999999999998</ele><time>2026-04-09T17:10:04.999Z</time></trkpt><trkpt lat="42.0606408059414" lon="12.398554528364821"><ele>166.6</ele><time>2026-04-09T17:10:05.999Z</time></trkpt><trkpt lat="42.06056681543322" lon="12.398605699361536"><ele>165.8</ele><time>2026-04-09T17:10:06.999Z</time></trkpt><trkpt lat="42.06049821945327" lon="12.398649636284203"><ele>165.0</ele><time>2026-04-09T17:10:07.999Z</time></trkpt><trkpt lat="42.06033575797895" lon="12.39873916510282"><ele>165.0</ele><time>2026-04-09T17:10:09.999Z</time></trkpt><trkpt lat="42.060230680055795" lon="12.39877928383507"><ele>165.0</ele><time>2026-04-09T17:10:10.999Z</time></trkpt><trkpt lat="42.06010754623081" lon="12.398824443262251"><ele>165.0</ele><time>2026-04-09T17:10:11.999Z</time></trkpt><trkpt lat="42.05996051068275" lon="12.398858408370065"><ele>165.0</ele><time>2026-04-09T17:10:12.999Z</time></trkpt><trkpt lat="42.059809950159554" lon="12.398895672388905"><ele>164.4</ele><time>2026-04-09T17:10:13.999Z</time></trkpt><trkpt lat="42.05971728090831" lon="12.398925776147482"><ele>163.8</ele><time>2026-04-09T17:10:14.999Z</time></trkpt><trkpt lat="42.059599411025005" lon="12.398946434662156"><ele>163.2</ele><time>2026-04-09T17:10:15.999Z</time></trkpt><trkpt lat="42.059485743895415" lon="12.398967817900946"><ele>162.6</ele><time>2026-04-09T17:10:16.999Z</time></trkpt><trkpt lat="42.05937373292596" lon="12.398988673309454"><ele>162.0</ele><time>2026-04-09T17:10:17.999Z</time></trkpt><trkpt lat="42.059261342276905" lon="12.398989725892733"><ele>162.0</ele><time>2026-04-09T17:10:18.999Z</time></trkpt><trkpt lat="42.05914872117424" lon="12.398986725033371"><ele>162.0</ele><time>2026-04-09T17:10:19.999Z</time></trkpt><trkpt lat="42.05903354787595" lon="12.398973768659092"><ele>162.0</ele><time>2026-04-09T17:10:20.999Z</time></trkpt><trkpt lat="42.058913894115975" lon="12.39895975702612"><ele>162.0</ele><time>2026-04-09T17:10:21.999Z</time></trkpt><trkpt lat="42.05879381300448" lon="12.398951570281586"><ele>161.25</ele><time>2026-04-09T17:10:22.998Z</time></trkpt><trkpt lat="42.05866665393635" lon="12.398934302748208"><ele>160.5</ele><time>2026-04-09T17:10:23.998Z</time></trkpt><trkpt lat="42.058536816909424" lon="12.398912607641465"><ele>159.75</ele><time>2026-04-09T17:10:24.998Z</time></trkpt><trkpt lat="42.058402052310534" lon="12.39889545889334"><ele>159.0</ele><time>2026-04-09T17:10:25.998Z</time></trkpt><trkpt lat="42.05827880925305" lon="12.398885419489446"><ele>158.0</ele><time>2026-04-09T17:10:26.998Z</time></trkpt><trkpt lat="42.058160453384026" lon="12.39887150075343"><ele>157.0</ele><time>2026-04-09T17:10:27.998Z</time></trkpt><trkpt lat="42.058038591336434" lon="12.398845244443605"><ele>156.0</ele><time>2026-04-09T17:10:28.998Z</time></trkpt><trkpt lat="42.057907897053376" lon="12.39880928706314"><ele>155.0</ele><time>2026-04-09T17:10:29.998Z</time></trkpt><trkpt lat="42.05779847464298" lon="12.398775929789466"><ele>154.6</ele><time>2026-04-09T17:10:30.998Z</time></trkpt><trkpt lat="42.05769177080801" lon="12.398744088650638"><ele>154.2</ele><time>2026-04-09T17:10:31.998Z</time></trkpt><trkpt lat="42.05758557088435" lon="12.398717043865048"><ele>153.8</ele><time>2026-04-09T17:10:32.998Z</time></trkpt><trkpt lat="42.05748973995626" lon="12.398692746131381"><ele>153.4</ele><time>2026-04-09T17:10:33.998Z</time></trkpt><trkpt lat="42.05739762055291" lon="12.398663553335728"><ele>153.0</ele><time>2026-04-09T17:10:34.998Z</time></trkpt><trkpt lat="42.0573008803084" lon="12.398636744806685"><ele>152.75</ele><time>2026-04-09T17:10:35.998Z</time></trkpt><trkpt lat="42.057196443824395" lon="12.398605555960195"><ele>152.5</ele><time>2026-04-09T17:10:36.998Z</time></trkpt><trkpt lat="42.05708467720902" lon="12.398565647818348"><ele>152.25</ele><time>2026-04-09T17:10:37.998Z</time></trkpt><trkpt lat="42.05696691952971" lon="12.39853737081869"><ele>152.0</ele><time>2026-04-09T17:10:38.998Z</time></trkpt><trkpt lat="42.05684637975742" lon="12.398503952277819"><ele>152.0</ele><time>2026-04-09T17:10:39.998Z</time></trkpt><trkpt lat="42.05672235632477" lon="12.398466425247333"><ele>152.0</ele><time>2026-04-09T17:10:40.998Z</time></trkpt><trkpt lat="42.05660884381245" lon="12.39843476362319"><ele>152.0</ele><time>2026-04-09T17:10:41.998Z</time></trkpt><trkpt lat="42.05651174244512" lon="12.398383662769621"><ele>152.0</ele><time>2026-04-09T17:10:42.998Z</time></trkpt><trkpt lat="42.05640116695104" lon="12.398358978995628"><ele>151.0</ele><time>2026-04-09T17:10:43.998Z</time></trkpt><trkpt lat="42.05628584829436" lon="12.398330667701208"><ele>150.0</ele><time>2026-04-09T17:10:44.998Z</time></trkpt><trkpt lat="42.056166779122805" lon="12.398295512596956"><ele>149.0</ele><time>2026-04-09T17:10:45.998Z</time></trkpt><trkpt lat="42.056045907854525" lon="12.398255750883099"><ele>148.0</ele><time>2026-04-09T17:10:46.998Z</time></trkpt><trkpt lat="42.05592303472996" lon="12.398219806000547"><ele>148.0</ele><time>2026-04-09T17:10:47.998Z</time></trkpt><trkpt lat="42.05580474505334" lon="12.398182603813193"><ele>148.0</ele><time>2026-04-09T17:10:48.998Z</time></trkpt><trkpt lat="42.05569042704749" lon="12.398145927573799"><ele>148.0</ele><time>2026-04-09T17:10:49.998Z</time></trkpt><trkpt lat="42.05557432853276" lon="12.398119246910852"><ele>148.0</ele><time>2026-04-09T17:10:50.998Z</time></trkpt><trkpt lat="42.05545190676669" lon="12.398093341421003"><ele>147.0</ele><time>2026-04-09T17:10:51.998Z</time></trkpt><trkpt lat="42.05532428203238" lon="12.398074104660992"><ele>146.0</ele><time>2026-04-09T17:10:52.998Z</time></trkpt><trkpt lat="42.05520075400691" lon="12.39805524712992"><ele>145.0</ele><time>2026-04-09T17:10:53.998Z</time></trkpt><trkpt lat="42.05508690168726" lon="12.398034331264403"><ele>144.0</ele><time>2026-04-09T17:10:54.998Z</time></trkpt><trkpt lat="42.054972952633236" lon="12.39802713261175"><ele>143.25</ele><time>2026-04-09T17:10:55.998Z</time></trkpt><trkpt lat="42.0548611692657" lon="12.398013124768461"><ele>142.5</ele><time>2026-04-09T17:10:56.998Z</time></trkpt><trkpt lat="42.05475223950457" lon="12.398004754318917"><ele>141.75</ele><time>2026-04-09T17:10:57.998Z</time></trkpt><trkpt lat="42.05463750084753" lon="12.397994894970326"><ele>141.0</ele><time>2026-04-09T17:10:58.998Z</time></trkpt><trkpt lat="42.05452400445018" lon="12.397991251020681"><ele>140.2</ele><time>2026-04-09T17:10:59.997Z</time></trkpt><trkpt lat="42.0544121710856" lon="12.397977921674753"><ele>139.39999999999998</ele><time>2026-04-09T17:11:00.997Z</time></trkpt><trkpt lat="42.054301027611025" lon="12.397959246613361"><ele>138.6</ele><time>2026-04-09T17:11:01.997Z</time></trkpt><trkpt lat="42.05419004942491" lon="12.397927932834877"><ele>137.79999999999998</ele><time>2026-04-09T17:11:02.997Z</time></trkpt><trkpt lat="42.0540899581826" lon="12.39786868151937"><ele>137.0</ele><time>2026-04-09T17:11:03.997Z</time></trkpt><trkpt lat="42.05399567950075" lon="12.397781514082945"><ele>136.5</ele><time>2026-04-09T17:11:04.997Z</time></trkpt><trkpt lat="42.05390994970759" lon="12.397658958382998"><ele>136.0</ele><time>2026-04-09T17:11:05.997Z</time></trkpt><trkpt lat="42.053825362715436" lon="12.397491512270708"><ele>135.5</ele><time>2026-04-09T17:11:06.997Z</time></trkpt><trkpt lat="42.053736898976595" lon="12.397299221505586"><ele>135.0</ele><time>2026-04-09T17:11:07.997Z</time></trkpt><trkpt lat="42.053636313411886" lon="12.397110284276721"><ele>135.0</ele><time>2026-04-09T17:11:08.997Z</time></trkpt><trkpt lat="42.05353026649577" lon="12.396961264365244"><ele>135.0</ele><time>2026-04-09T17:11:09.997Z</time></trkpt><trkpt lat="42.05343092671533" lon="12.396842725020928"><ele>135.0</ele><time>2026-04-09T17:11:10.997Z</time></trkpt><trkpt lat="42.05333884904817" lon="12.396735988427283"><ele>135.0</ele><time>2026-04-09T17:11:11.997Z</time></trkpt><trkpt lat="42.05323586113605" lon="12.396643593000515"><ele>134.75</ele><time>2026-04-09T17:11:12.997Z</time></trkpt><trkpt lat="42.053113628173755" lon="12.39657970871724"><ele>134.5</ele><time>2026-04-09T17:11:13.997Z</time></trkpt><trkpt lat="42.052981222739334" lon="12.396551285019994"><ele>134.25</ele><time>2026-04-09T17:11:14.997Z</time></trkpt><trkpt lat="42.05284149246683" lon="12.396556287212803"><ele>134.0</ele><time>2026-04-09T17:11:15.997Z</time></trkpt><trkpt lat="42.05271194043259" lon="12.396576858560001"><ele>134.0</ele><time>2026-04-09T17:11:16.997Z</time></trkpt><trkpt lat="42.052601499208045" lon="12.396593373194708"><ele>134.0</ele><time>2026-04-09T17:11:17.997Z</time></trkpt><trkpt lat="42.05249807260498" lon="12.39661046709631"><ele>134.0</ele><time>2026-04-09T17:11:18.997Z</time></trkpt><trkpt lat="42.052392515961806" lon="12.396625834968248"><ele>134.0</ele><time>2026-04-09T17:11:19.997Z</time></trkpt><trkpt lat="42.052275090117895" lon="12.396645943485789"><ele>134.0</ele><time>2026-04-09T17:11:21Z</time></trkpt><trkpt lat="42.052152113298995" lon="12.396656798014229"><ele>134.25</ele><time>2026-04-09T17:11:22Z</time></trkpt><trkpt lat="42.05202615799358" lon="12.396662854020699"><ele>134.5</ele><time>2026-04-09T17:11:23Z</time></trkpt><trkpt lat="42.0519083696011" lon="12.396655808835222"><ele>134.75</ele><time>2026-04-09T17:11:24Z</time></trkpt><trkpt lat="42.05179288353319" lon="12.396651599144382"><ele>135.0</ele><time>2026-04-09T17:11:25Z</time></trkpt><trkpt lat="42.051678459606336" lon="12.39664523462323"><ele>135.25</ele><time>2026-04-09T17:11:26Z</time></trkpt><trkpt lat="42.05155904576474" lon="12.396631619935686"><ele>135.5</ele><time>2026-04-09T17:11:27Z</time></trkpt><trkpt lat="42.051441310356005" lon="12.396617820580284"><ele>135.75</ele><time>2026-04-09T17:11:28Z</time></trkpt><trkpt lat="42.05132267969341" lon="12.396602234408826"><ele>136.0</ele><time>2026-04-09T17:11:29Z</time></trkpt><trkpt lat="42.05120985855588" lon="12.396582465817186"><ele>136.0</ele><time>2026-04-09T17:11:30Z</time></trkpt><trkpt lat="42.05110488042639" lon="12.396558975959303"><ele>136.0</ele><time>2026-04-09T17:11:31Z</time></trkpt><trkpt lat="42.051007166750125" lon="12.396532394612704"><ele>136.0</ele><time>2026-04-09T17:11:32Z</time></trkpt><trkpt lat="42.050906447200624" lon="12.396499124654706"><ele>136.0</ele><time>2026-04-09T17:11:33Z</time></trkpt><trkpt lat="42.050803524804884" lon="12.396469873644918"><ele>136.0</ele><time>2026-04-09T17:11:34Z</time></trkpt><trkpt lat="42.05069102370591" lon="12.396446506854668"><ele>135.5</ele><time>2026-04-09T17:11:35Z</time></trkpt><trkpt lat="42.050562272455856" lon="12.396437789304368"><ele>135.0</ele><time>2026-04-09T17:11:36Z</time></trkpt><trkpt lat="42.05042330100917" lon="12.396447740138134"><ele>134.5</ele><time>2026-04-09T17:11:37Z</time></trkpt><trkpt lat="42.050279979665575" lon="12.39647458162561"><ele>134.0</ele><time>2026-04-09T17:11:38Z</time></trkpt><trkpt lat="42.05015356601697" lon="12.396499436047149"><ele>134.0</ele><time>2026-04-09T17:11:39Z</time></trkpt><trkpt lat="42.05004070242869" lon="12.396519050100203"><ele>134.0</ele><time>2026-04-09T17:11:40Z</time></trkpt><trkpt lat="42.04992421977166" lon="12.396529128658678"><ele>134.0</ele><time>2026-04-09T17:11:41Z</time></trkpt><trkpt lat="42.04980670556909" lon="12.39652582371631"><ele>134.0</ele><time>2026-04-09T17:11:42Z</time></trkpt><trkpt lat="42.04968934056533" lon="12.396510626400142"><ele>134.0</ele><time>2026-04-09T17:11:43Z</time></trkpt><trkpt lat="42.04957794252468" lon="12.39648423032669"><ele>134.0</ele><time>2026-04-09T17:11:44Z</time></trkpt><trkpt lat="42.04946888564084" lon="12.396459083912529"><ele>134.0</ele><time>2026-04-09T17:11:45Z</time></trkpt><trkpt lat="42.04936016635552" lon="12.396429330352452"><ele>134.0</ele><time>2026-04-09T17:11:46Z</time></trkpt><trkpt lat="42.049247720732524" lon="12.39639718138796"><ele>134.0</ele><time>2026-04-09T17:11:47Z</time></trkpt><trkpt lat="42.049141499463865" lon="12.396358236361054"><ele>134.0</ele><time>2026-04-09T17:11:48Z</time></trkpt><trkpt lat="42.04903845532108" lon="12.396322575002658"><ele>134.0</ele><time>2026-04-09T17:11:49Z</time></trkpt><trkpt lat="42.04893944012453" lon="12.39628869803184"><ele>134.0</ele><time>2026-04-09T17:11:50Z</time></trkpt><trkpt lat="42.048840191498826" lon="12.39625132823834"><ele>134.0</ele><time>2026-04-09T17:11:50.999Z</time></trkpt><trkpt lat="42.048736765930926" lon="12.396211863437298"><ele>133.6</ele><time>2026-04-09T17:11:51.999Z</time></trkpt><trkpt lat="42.04863474295887" lon="12.396176282001086"><ele>133.2</ele><time>2026-04-09T17:11:52.999Z</time></trkpt><trkpt lat="42.0485312965543" lon="12.396142691505796"><ele>132.79999999999998</ele><time>2026-04-09T17:11:53.999Z</time></trkpt><trkpt lat="42.04841474989096" lon="12.396103663746118"><ele>132.4</ele><time>2026-04-09T17:11:54.999Z</time></trkpt><trkpt lat="42.04830391792099" lon="12.396066379058617"><ele>132.0</ele><time>2026-04-09T17:11:55.999Z</time></trkpt><trkpt lat="42.048198723452124" lon="12.396026982846223"><ele>131.6</ele><time>2026-04-09T17:11:56.999Z</time></trkpt><trkpt lat="42.04808823585715" lon="12.395994407620009"><ele>131.2</ele><time>2026-04-09T17:11:57.999Z</time></trkpt><trkpt lat="42.047986933600825" lon="12.395956180153764"><ele>130.8</ele><time>2026-04-09T17:11:58.999Z</time></trkpt><trkpt lat="42.04789283343409" lon="12.395921552671986"><ele>130.4</ele><time>2026-04-09T17:11:59.999Z</time></trkpt><trkpt lat="42.04780525795331" lon="12.395890778611053"><ele>130.0</ele><time>2026-04-09T17:12:00.999Z</time></trkpt><trkpt lat="42.04772556162601" lon="12.395857482632714"><ele>130.0</ele><time>2026-04-09T17:12:01.999Z</time></trkpt><trkpt lat="42.04764522467808" lon="12.395823021086855"><ele>130.0</ele><time>2026-04-09T17:12:02.999Z</time></trkpt><trkpt lat="42.04757040193254" lon="12.395787633436028"><ele>130.0</ele><time>2026-04-09T17:12:03.999Z</time></trkpt><trkpt lat="42.04749470366219" lon="12.395757608574032"><ele>130.0</ele><time>2026-04-09T17:12:04.999Z</time></trkpt><trkpt lat="42.047427034315874" lon="12.395735070388417"><ele>130.0</ele><time>2026-04-09T17:12:05.999Z</time></trkpt><trkpt lat="42.047311243881595" lon="12.395706015832602"><ele>130.0</ele><time>2026-04-09T17:12:07.999Z</time></trkpt><trkpt lat="42.04719654206886" lon="12.395654125667777"><ele>130.00000000000003</ele><time>2026-04-09T17:12:09.999Z</time></trkpt><trkpt lat="42.04712530597934" lon="12.395614107471463"><ele>130.0</ele><time>2026-04-09T17:12:10.999Z</time></trkpt><trkpt lat="42.047052923946666" lon="12.395582961241335"><ele>130.0</ele><time>2026-04-09T17:12:11.999Z</time></trkpt><trkpt lat="42.046978963946835" lon="12.395549990005057"><ele>130.0</ele><time>2026-04-09T17:12:12.999Z</time></trkpt><trkpt lat="42.04690603215021" lon="12.395525173604772"><ele>130.0</ele><time>2026-04-09T17:12:13.999Z</time></trkpt><trkpt lat="42.04683998935241" lon="12.395502439232697"><ele>130.00000000000003</ele><time>2026-04-09T17:12:14.999Z</time></trkpt><trkpt lat="42.0467731772525" lon="12.39547425798709"><ele>130.0</ele><time>2026-04-09T17:12:15.999Z</time></trkpt><trkpt lat="42.04670523536616" lon="12.39545053142672"><ele>129.33333333333334</ele><time>2026-04-09T17:12:16.999Z</time></trkpt><trkpt lat="42.0466328985138" lon="12.395423356895813"><ele>128.66666666666669</ele><time>2026-04-09T17:12:17.999Z</time></trkpt><trkpt lat="42.04655786491841" lon="12.39538855559239"><ele>128.0</ele><time>2026-04-09T17:12:18.999Z</time></trkpt><trkpt lat="42.046478525135434" lon="12.395356477003615"><ele>127.33333333333334</ele><time>2026-04-09T17:12:19.999Z</time></trkpt><trkpt lat="42.04639589019323" lon="12.395322997583282"><ele>126.66666666666667</ele><time>2026-04-09T17:12:20.999Z</time></trkpt><trkpt lat="42.046323249486015" lon="12.395297966302994"><ele>126.0</ele><time>2026-04-09T17:12:21.999Z</time></trkpt><trkpt lat="42.04625687067309" lon="12.395272335085128"><ele>126.0</ele><time>2026-04-09T17:12:22.999Z</time></trkpt><trkpt lat="42.04618330061977" lon="12.395236576362"><ele>126.0</ele><time>2026-04-09T17:12:23.999Z</time></trkpt><trkpt lat="42.04610965018113" lon="12.39519911980929"><ele>126.0</ele><time>2026-04-09T17:12:24.999Z</time></trkpt><trkpt lat="42.046033258838676" lon="12.395159335930845"><ele>126.0</ele><time>2026-04-09T17:12:25.999Z</time></trkpt><trkpt lat="42.045955072186246" lon="12.395108069927932"><ele>126.0</ele><time>2026-04-09T17:12:26.999Z</time></trkpt><trkpt lat="42.04588269097294" lon="12.395072370933596"><ele>126.0</ele><time>2026-04-09T17:12:27.998Z</time></trkpt><trkpt lat="42.045806101299675" lon="12.395027040287856"><ele>125.8</ele><time>2026-04-09T17:12:28.998Z</time></trkpt><trkpt lat="42.04572171770106" lon="12.394982056826812"><ele>125.6</ele><time>2026-04-09T17:12:29.998Z</time></trkpt><trkpt lat="42.04563425010826" lon="12.39494042707319"><ele>125.4</ele><time>2026-04-09T17:12:30.998Z</time></trkpt><trkpt lat="42.04554664220538" lon="12.394889701102946"><ele>125.2</ele><time>2026-04-09T17:12:31.998Z</time></trkpt><trkpt lat="42.04546132932812" lon="12.394842811967807"><ele>125.0</ele><time>2026-04-09T17:12:32.998Z</time></trkpt><trkpt lat="42.04537482634472" lon="12.394798805426522"><ele>125.0</ele><time>2026-04-09T17:12:33.998Z</time></trkpt><trkpt lat="42.04526044818484" lon="12.394751067020435"><ele>125.0</ele><time>2026-04-09T17:12:34.998Z</time></trkpt><trkpt lat="42.04511695821709" lon="12.394713186294183"><ele>125.0</ele><time>2026-04-09T17:12:35.998Z</time></trkpt><trkpt lat="42.04495924340778" lon="12.394679889729032"><ele>125.0</ele><time>2026-04-09T17:12:36.998Z</time></trkpt><trkpt lat="42.044797755359376" lon="12.394654304556113"><ele>124.33333333333333</ele><time>2026-04-09T17:12:37.998Z</time></trkpt><trkpt lat="42.04461739378048" lon="12.394625382678061"><ele>123.66666666666666</ele><time>2026-04-09T17:12:38.998Z</time></trkpt><trkpt lat="42.04441943442301" lon="12.39458818128233"><ele>123.0</ele><time>2026-04-09T17:12:39.998Z</time></trkpt><trkpt lat="42.04423679087799" lon="12.394550022141784"><ele>123.33333333333334</ele><time>2026-04-09T17:12:40.998Z</time></trkpt><trkpt lat="42.044064779360454" lon="12.394513332228263"><ele>123.66666666666667</ele><time>2026-04-09T17:12:41.998Z</time></trkpt><trkpt lat="42.0438985906455" lon="12.394473157534291"><ele>124.0</ele><time>2026-04-09T17:12:42.998Z</time></trkpt><trkpt lat="42.04372694045037" lon="12.394428829819757"><ele>124.0</ele><time>2026-04-09T17:12:43.998Z</time></trkpt><trkpt lat="42.04356014486996" lon="12.394382400283826"><ele>124.0</ele><time>2026-04-09T17:12:44.998Z</time></trkpt><trkpt lat="42.0433948320018" lon="12.394328602654143"><ele>124.0</ele><time>2026-04-09T17:12:45.998Z</time></trkpt><trkpt lat="42.043227291518846" lon="12.394271891764726"><ele>124.33333333333334</ele><time>2026-04-09T17:12:46.998Z</time></trkpt><trkpt lat="42.04303211120282" lon="12.394182466676499"><ele>124.66666666666666</ele><time>2026-04-09T17:12:47.998Z</time></trkpt><trkpt lat="42.042824605971205" lon="12.394110587544278"><ele>125.0</ele><time>2026-04-09T17:12:48.998Z</time></trkpt><trkpt lat="42.042612861656515" lon="12.394035175696796"><ele>125.0</ele><time>2026-04-09T17:12:49.998Z</time></trkpt><trkpt lat="42.042399072996275" lon="12.393959035410534"><ele>125.0</ele><time>2026-04-09T17:12:50.998Z</time></trkpt><trkpt lat="42.04220143343918" lon="12.393904294054623"><ele>125.0</ele><time>2026-04-09T17:12:51.998Z</time></trkpt><trkpt lat="42.0420163518544" lon="12.393832349547276"><ele>125.0</ele><time>2026-04-09T17:12:52.998Z</time></trkpt><trkpt lat="42.04182590377075" lon="12.393766030596382"><ele>125.0</ele><time>2026-04-09T17:12:53.998Z</time></trkpt><trkpt lat="42.04161592788964" lon="12.393692255836244"><ele>125.0</ele><time>2026-04-09T17:12:54.998Z</time></trkpt><trkpt lat="42.04139713812361" lon="12.393612557717178"><ele>124.66666666666666</ele><time>2026-04-09T17:12:55.998Z</time></trkpt><trkpt lat="42.04119676807017" lon="12.39353748462577"><ele>124.33333333333334</ele><time>2026-04-09T17:12:56.998Z</time></trkpt><trkpt lat="42.041009474184264" lon="12.393477822220994"><ele>124.0</ele><time>2026-04-09T17:12:57.998Z</time></trkpt><trkpt lat="42.04082395098938" lon="12.393417685473395"><ele>123.66666666666667</ele><time>2026-04-09T17:12:58.998Z</time></trkpt><trkpt lat="42.04065155809934" lon="12.39335945177065"><ele>123.33333333333334</ele><time>2026-04-09T17:12:59.998Z</time></trkpt><trkpt lat="42.04047956375407" lon="12.39330396681528"><ele>123.0</ele><time>2026-04-09T17:13:00.998Z</time></trkpt><trkpt lat="42.04031594982524" lon="12.393243320259659"><ele>123.0</ele><time>2026-04-09T17:13:01.998Z</time></trkpt><trkpt lat="42.040155191544464" lon="12.39319077396046"><ele>123.0</ele><time>2026-04-09T17:13:02.998Z</time></trkpt><trkpt lat="42.03998612914448" lon="12.393131298933653"><ele>123.0</ele><time>2026-04-09T17:13:03.998Z</time></trkpt><trkpt lat="42.039814793102714" lon="12.393062589082191"><ele>123.33333333333334</ele><time>2026-04-09T17:13:04.998Z</time></trkpt><trkpt lat="42.03962695532481" lon="12.392973078185529"><ele>123.66666666666667</ele><time>2026-04-09T17:13:05.997Z</time></trkpt><trkpt lat="42.039431698730425" lon="12.392866690264823"><ele>124.0</ele><time>2026-04-09T17:13:06.997Z</time></trkpt><trkpt lat="42.03922942819701" lon="12.392749125579023"><ele>124.0</ele><time>2026-04-09T17:13:07.997Z</time></trkpt><trkpt lat="42.039025682590974" lon="12.392626026506763"><ele>124.0</ele><time>2026-04-09T17:13:08.997Z</time></trkpt><trkpt lat="42.03883881054575" lon="12.392512913777184"><ele>124.0</ele><time>2026-04-09T17:13:09.997Z</time></trkpt><trkpt lat="42.03865472276239" lon="12.392399151857504"><ele>124.0</ele><time>2026-04-09T17:13:10.997Z</time></trkpt><trkpt lat="42.03846911998742" lon="12.39228631944107"><ele>124.0</ele><time>2026-04-09T17:13:11.997Z</time></trkpt><trkpt lat="42.0382804669654" lon="12.392175248395914"><ele>124.0</ele><time>2026-04-09T17:13:12.997Z</time></trkpt><trkpt lat="42.03809588548485" lon="12.392065927318818"><ele>124.33333333333334</ele><time>2026-04-09T17:13:13.997Z</time></trkpt><trkpt lat="42.037917661417126" lon="12.391962079668016"><ele>124.66666666666666</ele><time>2026-04-09T17:13:14.997Z</time></trkpt><trkpt lat="42.03774288788303" lon="12.39186355737845"><ele>125.0</ele><time>2026-04-09T17:13:15.997Z</time></trkpt><trkpt lat="42.037573159717816" lon="12.391754285419072"><ele>125.0</ele><time>2026-04-09T17:13:16.997Z</time></trkpt><trkpt lat="42.037395855135145" lon="12.391643846845374"><ele>125.0</ele><time>2026-04-09T17:13:17.997Z</time></trkpt><trkpt lat="42.03723824002183" lon="12.391552239904982"><ele>125.0</ele><time>2026-04-09T17:13:18.997Z</time></trkpt><trkpt lat="42.03708956112332" lon="12.391472774602285"><ele>125.0</ele><time>2026-04-09T17:13:19.997Z</time></trkpt><trkpt lat="42.03693426725334" lon="12.391402780960718"><ele>125.0</ele><time>2026-04-09T17:13:20.997Z</time></trkpt><trkpt lat="42.036771486136416" lon="12.391349457870298"><ele>125.0</ele><time>2026-04-09T17:13:21.997Z</time></trkpt><trkpt lat="42.036597987332655" lon="12.39133364103768"><ele>124.33333333333333</ele><time>2026-04-09T17:13:22.997Z</time></trkpt><trkpt lat="42.03641617923851" lon="12.391356870850037"><ele>123.66666666666666</ele><time>2026-04-09T17:13:23.997Z</time></trkpt><trkpt lat="42.03623137220638" lon="12.391412354290972"><ele>123.0</ele><time>2026-04-09T17:13:24.997Z</time></trkpt><trkpt lat="42.03606367315975" lon="12.391470334781541"><ele>123.0</ele><time>2026-04-09T17:13:26Z</time></trkpt><trkpt lat="42.035903961595594" lon="12.391531076994875"><ele>123.0</ele><time>2026-04-09T17:13:27Z</time></trkpt><trkpt lat="42.0357609179037" lon="12.391587175047627"><ele>123.0</ele><time>2026-04-09T17:13:28Z</time></trkpt><trkpt lat="42.035626673225686" lon="12.39163825811734"><ele>122.75</ele><time>2026-04-09T17:13:29Z</time></trkpt><trkpt lat="42.035500818026904" lon="12.391653731691743"><ele>122.5</ele><time>2026-04-09T17:13:30Z</time></trkpt><trkpt lat="42.035375252255754" lon="12.391630946955413"><ele>122.25</ele><time>2026-04-09T17:13:31Z</time></trkpt><trkpt lat="42.035274964849826" lon="12.391551041998284"><ele>122.0</ele><time>2026-04-09T17:13:32Z</time></trkpt><trkpt lat="42.035180746272445" lon="12.391466731058179"><ele>122.0</ele><time>2026-04-09T17:13:33Z</time></trkpt><trkpt lat="42.03507088902549" lon="12.391366054316576"><ele>122.0</ele><time>2026-04-09T17:13:34Z</time></trkpt><trkpt lat="42.03492615320507" lon="12.391278181218274"><ele>122.0</ele><time>2026-04-09T17:13:35Z</time></trkpt><trkpt lat="42.03475962840358" lon="12.391190665069738"><ele>119.66666666666666</ele><time>2026-04-09T17:13:36Z</time></trkpt><trkpt lat="42.03458682450994" lon="12.391098725985522"><ele>117.33333333333334</ele><time>2026-04-09T17:13:37Z</time></trkpt><trkpt lat="42.0344172250758" lon="12.391014344552447"><ele>115.0</ele><time>2026-04-09T17:13:38Z</time></trkpt><trkpt lat="42.03426065090031" lon="12.390939565792475"><ele>114.33333333333334</ele><time>2026-04-09T17:13:39Z</time></trkpt><trkpt lat="42.034109327072244" lon="12.390865421117843"><ele>113.66666666666666</ele><time>2026-04-09T17:13:40Z</time></trkpt><trkpt lat="42.033964779753845" lon="12.390800803710302"><ele>113.0</ele><time>2026-04-09T17:13:41Z</time></trkpt><trkpt lat="42.03382467115282" lon="12.390737918219443"><ele>113.0</ele><time>2026-04-09T17:13:42Z</time></trkpt><trkpt lat="42.033691182307784" lon="12.39067962143278"><ele>113.0</ele><time>2026-04-09T17:13:43Z</time></trkpt><trkpt lat="42.03356284826245" lon="12.390623548703132"><ele>113.0</ele><time>2026-04-09T17:13:44Z</time></trkpt><trkpt lat="42.033445004425275" lon="12.390564118059917"><ele>113.0</ele><time>2026-04-09T17:13:45Z</time></trkpt><trkpt lat="42.03332418943861" lon="12.39051359933759"><ele>108.0</ele><time>2026-04-09T17:13:46Z</time></trkpt><trkpt lat="42.03318169723967" lon="12.390456264877393"><ele>103.0</ele><time>2026-04-09T17:13:47Z</time></trkpt><trkpt lat="42.03302789462056" lon="12.390395484201754"><ele>98.0</ele><time>2026-04-09T17:13:48Z</time></trkpt><trkpt lat="42.0328802573752" lon="12.39035752902272"><ele>98.0</ele><time>2026-04-09T17:13:49Z</time></trkpt><trkpt lat="42.0327433279873" lon="12.390339493225786"><ele>98.0</ele><time>2026-04-09T17:13:50Z</time></trkpt><trkpt lat="42.03261138772775" lon="12.39031380736907"><ele>98.0</ele><time>2026-04-09T17:13:51Z</time></trkpt><trkpt lat="42.03249216263822" lon="12.390289386922959"><ele>98.0</ele><time>2026-04-09T17:13:52Z</time></trkpt><trkpt lat="42.03237876490105" lon="12.390269797493616"><ele>96.80000000000001</ele><time>2026-04-09T17:13:53Z</time></trkpt><trkpt lat="42.03226562463037" lon="12.39026418786567"><ele>95.6</ele><time>2026-04-09T17:13:54Z</time></trkpt><trkpt lat="42.032159247629565" lon="12.39025430355118"><ele>94.4</ele><time>2026-04-09T17:13:55Z</time></trkpt><trkpt lat="42.032070441574106" lon="12.390202744688061"><ele>93.19999999999999</ele><time>2026-04-09T17:13:55.999Z</time></trkpt><trkpt lat="42.03198890115439" lon="12.39011700685062"><ele>92.0</ele><time>2026-04-09T17:13:56.999Z</time></trkpt><trkpt lat="42.031929192342425" lon="12.38999288637481"><ele>92.0</ele><time>2026-04-09T17:13:57.999Z</time></trkpt><trkpt lat="42.03191220757515" lon="12.38984795834293"><ele>92.0</ele><time>2026-04-09T17:13:58.999Z</time></trkpt><trkpt lat="42.03193341868823" lon="12.38968737555541"><ele>92.0</ele><time>2026-04-09T17:13:59.999Z</time></trkpt><trkpt lat="42.03198123259918" lon="12.389512190772711"><ele>92.0</ele><time>2026-04-09T17:14:00.999Z</time></trkpt><trkpt lat="42.03204140520986" lon="12.389351258622703"><ele>91.8</ele><time>2026-04-09T17:14:01.999Z</time></trkpt><trkpt lat="42.03207877073624" lon="12.389204265419071"><ele>91.6</ele><time>2026-04-09T17:14:02.999Z</time></trkpt><trkpt lat="42.03210488861335" lon="12.389065246599225"><ele>91.39999999999999</ele><time>2026-04-09T17:14:03.999Z</time></trkpt><trkpt lat="42.032120711588" lon="12.388915632394415"><ele>91.19999999999999</ele><time>2026-04-09T17:14:04.999Z</time></trkpt><trkpt lat="42.03211567099491" lon="12.388776065518456"><ele>91.0</ele><time>2026-04-09T17:14:05.999Z</time></trkpt><trkpt lat="42.03207028084086" lon="12.388651121246912"><ele>92.25</ele><time>2026-04-09T17:14:06.999Z</time></trkpt><trkpt lat="42.03198706017491" lon="12.388564542185046"><ele>93.5</ele><time>2026-04-09T17:14:07.999Z</time></trkpt><trkpt lat="42.03188232076396" lon="12.388494813624948"><ele>94.75</ele><time>2026-04-09T17:14:08.999Z</time></trkpt><trkpt lat="42.03176489349616" lon="12.388419794645772"><ele>96.0</ele><time>2026-04-09T17:14:09.999Z</time></trkpt><trkpt lat="42.03162955745567" lon="12.38834611020647"><ele>98.0</ele><time>2026-04-09T17:14:10.999Z</time></trkpt><trkpt lat="42.03147348203187" lon="12.388290568011401"><ele>100.0</ele><time>2026-04-09T17:14:11.999Z</time></trkpt><trkpt lat="42.031311882663566" lon="12.388244257078386"><ele>102.0</ele><time>2026-04-09T17:14:12.999Z</time></trkpt><trkpt lat="42.03116176215522" lon="12.388200013178878"><ele>102.0</ele><time>2026-04-09T17:14:13.999Z</time></trkpt><trkpt lat="42.03102713397774" lon="12.388150971969582"><ele>102.0</ele><time>2026-04-09T17:14:14.999Z</time></trkpt><trkpt lat="42.0308966100318" lon="12.3881026905385"><ele>102.0</ele><time>2026-04-09T17:14:15.999Z</time></trkpt><trkpt lat="42.03076450072945" lon="12.388056511412744"><ele>102.0</ele><time>2026-04-09T17:14:16.999Z</time></trkpt><trkpt lat="42.030604723907885" lon="12.38800962756824"><ele>105.66666666666666</ele><time>2026-04-09T17:14:17.999Z</time></trkpt><trkpt lat="42.03042079601152" lon="12.387929861291672"><ele>109.33333333333333</ele><time>2026-04-09T17:14:18.999Z</time></trkpt><trkpt lat="42.03023581441841" lon="12.387865495755708"><ele>113.0</ele><time>2026-04-09T17:14:19.999Z</time></trkpt><trkpt lat="42.030042890491046" lon="12.38781759566325"><ele>113.33333333333333</ele><time>2026-04-09T17:14:20.999Z</time></trkpt><trkpt lat="42.0298461587696" lon="12.387731844947117"><ele>113.66666666666666</ele><time>2026-04-09T17:14:21.999Z</time></trkpt><trkpt lat="42.02964227450964" lon="12.387663969589331"><ele>114.0</ele><time>2026-04-09T17:14:22.999Z</time></trkpt><trkpt lat="42.029443602662894" lon="12.387615382831882"><ele>114.0</ele><time>2026-04-09T17:14:23.999Z</time></trkpt><trkpt lat="42.02927219760236" lon="12.38757396038666"><ele>114.0</ele><time>2026-04-09T17:14:24.999Z</time></trkpt><trkpt lat="42.02912607842889" lon="12.387564581300266"><ele>114.0</ele><time>2026-04-09T17:14:25.999Z</time></trkpt><trkpt lat="42.02898317976972" lon="12.387548796280132"><ele>114.5</ele><time>2026-04-09T17:14:26.999Z</time></trkpt><trkpt lat="42.02884747420437" lon="12.387514604502446"><ele>115.0</ele><time>2026-04-09T17:14:27.999Z</time></trkpt><trkpt lat="42.02872326286886" lon="12.387466484955112"><ele>115.5</ele><time>2026-04-09T17:14:28.999Z</time></trkpt><trkpt lat="42.02860917211079" lon="12.387419140542542"><ele>116.0</ele><time>2026-04-09T17:14:29.999Z</time></trkpt><trkpt lat="42.02850438490316" lon="12.387372338180318"><ele>116.0</ele><time>2026-04-09T17:14:30.999Z</time></trkpt><trkpt lat="42.028400011836155" lon="12.387303716762604"><ele>116.0</ele><time>2026-04-09T17:14:31.999Z</time></trkpt><trkpt lat="42.0282898598842" lon="12.387197669533514"><ele>116.0</ele><time>2026-04-09T17:14:32.998Z</time></trkpt><trkpt lat="42.02816303341743" lon="12.387074122431018"><ele>116.0</ele><time>2026-04-09T17:14:33.998Z</time></trkpt><trkpt lat="42.028030436320535" lon="12.386966255090083"><ele>112.75</ele><time>2026-04-09T17:14:34.998Z</time></trkpt><trkpt lat="42.02789978433557" lon="12.386884881483992"><ele>109.5</ele><time>2026-04-09T17:14:35.998Z</time></trkpt><trkpt lat="42.02777100503937" lon="12.386832090708806"><ele>106.25</ele><time>2026-04-09T17:14:36.998Z</time></trkpt><trkpt lat="42.02763705968398" lon="12.386798451756194"><ele>103.0</ele><time>2026-04-09T17:14:37.998Z</time></trkpt><trkpt lat="42.027494007884215" lon="12.3867739490127"><ele>100.66666666666667</ele><time>2026-04-09T17:14:38.998Z</time></trkpt><trkpt lat="42.02733695251463" lon="12.386775923764908"><ele>98.33333333333334</ele><time>2026-04-09T17:14:39.998Z</time></trkpt><trkpt lat="42.02717458368949" lon="12.386794897889851"><ele>96.0</ele><time>2026-04-09T17:14:40.998Z</time></trkpt><trkpt lat="42.02702133519091" lon="12.386815967515519"><ele>96.0</ele><time>2026-04-09T17:14:41.998Z</time></trkpt><trkpt lat="42.026875482461314" lon="12.38682749365568"><ele>96.0</ele><time>2026-04-09T17:14:42.998Z</time></trkpt><trkpt lat="42.02673691844761" lon="12.386831626078129"><ele>96.0</ele><time>2026-04-09T17:14:43.998Z</time></trkpt><trkpt lat="42.026609698675614" lon="12.386809783546544"><ele>96.0</ele><time>2026-04-09T17:14:44.998Z</time></trkpt><trkpt lat="42.0264927850482" lon="12.386752840894324"><ele>95.0</ele><time>2026-04-09T17:14:45.998Z</time></trkpt><trkpt lat="42.026398198739976" lon="12.386665708490693"><ele>94.0</ele><time>2026-04-09T17:14:46.998Z</time></trkpt><trkpt lat="42.02631395926462" lon="12.386548985822762"><ele>93.0</ele><time>2026-04-09T17:14:47.998Z</time></trkpt><trkpt lat="42.026231426820864" lon="12.386404075628466"><ele>92.0</ele><time>2026-04-09T17:14:48.998Z</time></trkpt><trkpt lat="42.02615911023611" lon="12.386224919156614"><ele>92.0</ele><time>2026-04-09T17:14:49.998Z</time></trkpt><trkpt lat="42.026067159196344" lon="12.386069140258488"><ele>92.0</ele><time>2026-04-09T17:14:50.998Z</time></trkpt><trkpt lat="42.02599573751765" lon="12.385915679813664"><ele>92.0</ele><time>2026-04-09T17:14:51.998Z</time></trkpt><trkpt lat="42.02592416380371" lon="12.385762670428166"><ele>92.0</ele><time>2026-04-09T17:14:52.998Z</time></trkpt><trkpt lat="42.0258421650053" lon="12.385617626967296"><ele>91.25</ele><time>2026-04-09T17:14:53.998Z</time></trkpt><trkpt lat="42.02578615745917" lon="12.385467465948139"><ele>90.5</ele><time>2026-04-09T17:14:54.998Z</time></trkpt><trkpt lat="42.0257306875775" lon="12.385327708805688"><ele>89.75</ele><time>2026-04-09T17:14:55.998Z</time></trkpt><trkpt lat="42.025673071477314" lon="12.385186065885486"><ele>89.0</ele><time>2026-04-09T17:14:56.998Z</time></trkpt><trkpt lat="42.025643652187284" lon="12.385024968074577"><ele>89.0</ele><time>2026-04-09T17:14:57.998Z</time></trkpt><trkpt lat="42.02561820663764" lon="12.384871775089326"><ele>89.0</ele><time>2026-04-09T17:14:58.998Z</time></trkpt><trkpt lat="42.025606259116344" lon="12.384726332123652"><ele>89.0</ele><time>2026-04-09T17:14:59.998Z</time></trkpt><trkpt lat="42.02562089270762" lon="12.384553717688771"><ele>89.0</ele><time>2026-04-09T17:15:00.998Z</time></trkpt><trkpt lat="42.025665591965314" lon="12.384393408829203"><ele>88.66666666666667</ele><time>2026-04-09T17:15:01.998Z</time></trkpt><trkpt lat="42.025734046081865" lon="12.384216939315793"><ele>88.33333333333333</ele><time>2026-04-09T17:15:02.998Z</time></trkpt><trkpt lat="42.02582135962111" lon="12.384030363163683"><ele>88.0</ele><time>2026-04-09T17:15:03.998Z</time></trkpt><trkpt lat="42.02591081326936" lon="12.383847109960305"><ele>89.0</ele><time>2026-04-09T17:15:04.998Z</time></trkpt><trkpt lat="42.025990767407656" lon="12.383669385524197"><ele>90.0</ele><time>2026-04-09T17:15:05.998Z</time></trkpt><trkpt lat="42.02605840262293" lon="12.383506827410315"><ele>91.0</ele><time>2026-04-09T17:15:06.998Z</time></trkpt><trkpt lat="42.0261239919534" lon="12.383346745444355"><ele>92.0</ele><time>2026-04-09T17:15:07.998Z</time></trkpt><trkpt lat="42.02617875430065" lon="12.383187980893927"><ele>92.0</ele><time>2026-04-09T17:15:08.998Z</time></trkpt><trkpt lat="42.02621656357185" lon="12.383028755167182"><ele>92.0</ele><time>2026-04-09T17:15:09.997Z</time></trkpt><trkpt lat="42.0262301468727" lon="12.382855797948597"><ele>92.0</ele><time>2026-04-09T17:15:10.997Z</time></trkpt><trkpt lat="42.026234007258694" lon="12.382657821525012"><ele>92.0</ele><time>2026-04-09T17:15:11.997Z</time></trkpt><trkpt lat="42.02624554073252" lon="12.38245679609893"><ele>92.75</ele><time>2026-04-09T17:15:12.997Z</time></trkpt><trkpt lat="42.02627700186092" lon="12.382261320515052"><ele>93.5</ele><time>2026-04-09T17:15:13.997Z</time></trkpt><trkpt lat="42.02631546663945" lon="12.382100089324586"><ele>94.25</ele><time>2026-04-09T17:15:14.997Z</time></trkpt><trkpt lat="42.02636921810164" lon="12.381930647592688"><ele>95.0</ele><time>2026-04-09T17:15:15.997Z</time></trkpt><trkpt lat="42.026435348620296" lon="12.381755336698822"><ele>98.0</ele><time>2026-04-09T17:15:16.997Z</time></trkpt><trkpt lat="42.02650598067482" lon="12.381568821917478"><ele>101.0</ele><time>2026-04-09T17:15:17.997Z</time></trkpt><trkpt lat="42.026573518724" lon="12.381361746743787"><ele>104.0</ele><time>2026-04-09T17:15:18.997Z</time></trkpt><trkpt lat="42.02663498874955" lon="12.381154569504893"><ele>103.5</ele><time>2026-04-09T17:15:19.997Z</time></trkpt><trkpt lat="42.02669078259249" lon="12.38095746519702"><ele>103.0</ele><time>2026-04-09T17:15:20.997Z</time></trkpt><trkpt lat="42.02674194888975" lon="12.380781577531163"><ele>102.5</ele><time>2026-04-09T17:15:21.997Z</time></trkpt><trkpt lat="42.02679474896112" lon="12.380612838914477"><ele>102.0</ele><time>2026-04-09T17:15:22.997Z</time></trkpt><trkpt lat="42.02684605309636" lon="12.3804414588255"><ele>102.0</ele><time>2026-04-09T17:15:23.997Z</time></trkpt><trkpt lat="42.02689546988985" lon="12.380270439005992"><ele>102.0</ele><time>2026-04-09T17:15:24.997Z</time></trkpt><trkpt lat="42.02694517238749" lon="12.380090615860425"><ele>102.0</ele><time>2026-04-09T17:15:25.997Z</time></trkpt><trkpt lat="42.02699837371353" lon="12.379907637591165"><ele>102.0</ele><time>2026-04-09T17:15:26.997Z</time></trkpt><trkpt lat="42.02705429024693" lon="12.379722788540652"><ele>103.25</ele><time>2026-04-09T17:15:27.997Z</time></trkpt><trkpt lat="42.027112067196384" lon="12.379536228859436"><ele>104.5</ele><time>2026-04-09T17:15:28.997Z</time></trkpt><trkpt lat="42.027167868972434" lon="12.379369752180727"><ele>105.75</ele><time>2026-04-09T17:15:29.997Z</time></trkpt><trkpt lat="42.02721230388705" lon="12.379218037602126"><ele>107.0</ele><time>2026-04-09T17:15:30.997Z</time></trkpt><trkpt lat="42.02724778971895" lon="12.379073442196463"><ele>107.0</ele><time>2026-04-09T17:15:32Z</time></trkpt><trkpt lat="42.02727555286168" lon="12.378922037549565"><ele>107.0</ele><time>2026-04-09T17:15:33Z</time></trkpt><trkpt lat="42.027303917490904" lon="12.378759728566417"><ele>107.0</ele><time>2026-04-09T17:15:34Z</time></trkpt><trkpt lat="42.02733197740024" lon="12.37859778938557"><ele>107.0</ele><time>2026-04-09T17:15:35Z</time></trkpt><trkpt lat="42.02736277855585" lon="12.378424799231565"><ele>107.66666666666666</ele><time>2026-04-09T17:15:36Z</time></trkpt><trkpt lat="42.02739726592975" lon="12.37823390518533"><ele>108.33333333333334</ele><time>2026-04-09T17:15:37Z</time></trkpt><trkpt lat="42.027424229600975" lon="12.378018311214007"><ele>109.0</ele><time>2026-04-09T17:15:38Z</time></trkpt><trkpt lat="42.02742971270259" lon="12.37780746746119"><ele>109.0</ele><time>2026-04-09T17:15:39Z</time></trkpt><trkpt lat="42.02740777179665" lon="12.377624037885802"><ele>109.0</ele><time>2026-04-09T17:15:40Z</time></trkpt><trkpt lat="42.027378843654056" lon="12.37746726849814"><ele>109.0</ele><time>2026-04-09T17:15:41Z</time></trkpt><trkpt lat="42.02735129940268" lon="12.37732702971526"><ele>109.0</ele><time>2026-04-09T17:15:42Z</time></trkpt><trkpt lat="42.02732924094104" lon="12.377212600061448"><ele>107.6</ele><time>2026-04-09T17:15:43Z</time></trkpt><trkpt lat="42.02730152185847" lon="12.377117367980917"><ele>106.2</ele><time>2026-04-09T17:15:44Z</time></trkpt><trkpt lat="42.027242140007175" lon="12.37702712040057"><ele>104.8</ele><time>2026-04-09T17:15:45Z</time></trkpt><trkpt lat="42.027154418235476" lon="12.376962574085999"><ele>103.39999999999999</ele><time>2026-04-09T17:15:46Z</time></trkpt><trkpt lat="42.027044726828414" lon="12.376908404184979"><ele>102.0</ele><time>2026-04-09T17:15:47Z</time></trkpt><trkpt lat="42.026917188926845" lon="12.376862824762924"><ele>102.0</ele><time>2026-04-09T17:15:48Z</time></trkpt><trkpt lat="42.02679140507125" lon="12.376820628964278"><ele>102.0</ele><time>2026-04-09T17:15:49Z</time></trkpt><trkpt lat="42.02667906289397" lon="12.376778324406828"><ele>102.0</ele><time>2026-04-09T17:15:50Z</time></trkpt><trkpt lat="42.02657116820154" lon="12.376717746496158"><ele>102.0</ele><time>2026-04-09T17:15:51Z</time></trkpt><trkpt lat="42.0264840762445" lon="12.376660937058075"><ele>103.5</ele><time>2026-04-09T17:15:52Z</time></trkpt><trkpt lat="42.026417279737274" lon="12.376599574199744"><ele>105.0</ele><time>2026-04-09T17:15:53Z</time></trkpt><trkpt lat="42.0263549393487" lon="12.376532413326224"><ele>106.5</ele><time>2026-04-09T17:15:54Z</time></trkpt><trkpt lat="42.02629676036892" lon="12.376447668676578"><ele>108.0</ele><time>2026-04-09T17:15:55Z</time></trkpt><trkpt lat="42.02624705714299" lon="12.376363331487598"><ele>109.5</ele><time>2026-04-09T17:15:56Z</time></trkpt><trkpt lat="42.026182869266414" lon="12.376239012600228"><ele>111.0</ele><time>2026-04-09T17:15:58Z</time></trkpt><trkpt lat="42.02613142320158" lon="12.376143860566536"><ele>111.0</ele><time>2026-04-09T17:16:10.999Z</time></trkpt><trkpt lat="42.025998667914656" lon="12.37613313676922"><ele>111.0</ele><time>2026-04-09T17:16:12.999Z</time></trkpt><trkpt lat="42.02590898013057" lon="12.376195108141488"><ele>111.0</ele><time>2026-04-09T17:16:13.999Z</time></trkpt><trkpt lat="42.025804331286984" lon="12.376259096902832"><ele>111.0</ele><time>2026-04-09T17:16:14.999Z</time></trkpt><trkpt lat="42.02569636666934" lon="12.376302744403885"><ele>109.75</ele><time>2026-04-09T17:16:15.999Z</time></trkpt><trkpt lat="42.025572666083995" lon="12.376356282225684"><ele>108.5</ele><time>2026-04-09T17:16:16.999Z</time></trkpt><trkpt lat="42.02544632373816" lon="12.37640131612627"><ele>107.25</ele><time>2026-04-09T17:16:17.999Z</time></trkpt><trkpt lat="42.025338528269586" lon="12.376409805537273"><ele>106.0</ele><time>2026-04-09T17:16:18.999Z</time></trkpt><trkpt lat="42.02522492398737" lon="12.376440072825108"><ele>106.0</ele><time>2026-04-09T17:16:19.999Z</time></trkpt><trkpt lat="42.025102823671645" lon="12.376468129624628"><ele>106.0</ele><time>2026-04-09T17:16:20.999Z</time></trkpt><trkpt lat="42.02497102375128" lon="12.376500035800147"><ele>106.0</ele><time>2026-04-09T17:16:21.999Z</time></trkpt><trkpt lat="42.02485909495943" lon="12.376525145514462"><ele>106.0</ele><time>2026-04-09T17:16:22.999Z</time></trkpt><trkpt lat="42.024750533677995" lon="12.376571210111639"><ele>106.4</ele><time>2026-04-09T17:16:23.999Z</time></trkpt><trkpt lat="42.02466315155331" lon="12.37658600907235"><ele>106.8</ele><time>2026-04-09T17:16:24.999Z</time></trkpt><trkpt lat="42.024590205527595" lon="12.376599541505517"><ele>107.20000000000002</ele><time>2026-04-09T17:16:25.999Z</time></trkpt><trkpt lat="42.0244907286243" lon="12.376625830428868"><ele>107.60000000000001</ele><time>2026-04-09T17:16:27.999Z</time></trkpt><trkpt lat="42.024402713513794" lon="12.376645471562375"><ele>108.0</ele><time>2026-04-09T17:16:29.999Z</time></trkpt><trkpt lat="42.024294244785914" lon="12.376665628922462"><ele>108.0</ele><time>2026-04-09T17:16:31.999Z</time></trkpt><trkpt lat="42.02421160613734" lon="12.37669903313453"><ele>108.0</ele><time>2026-04-09T17:16:33.999Z</time></trkpt><trkpt lat="42.02414498809179" lon="12.376697988398202"><ele>108.0</ele><time>2026-04-09T17:16:51.998Z</time></trkpt><trkpt lat="42.02402442609116" lon="12.37672317730047"><ele>108.0</ele><time>2026-04-09T17:16:54.998Z</time></trkpt><trkpt lat="42.023947300388016" lon="12.376724015223031"><ele>108.0</ele><time>2026-04-09T17:16:55.998Z</time></trkpt><trkpt lat="42.0238550473163" lon="12.376731317545058"><ele>108.0</ele><time>2026-04-09T17:16:56.998Z</time></trkpt><trkpt lat="42.0237381722914" lon="12.376737436985927"><ele>108.80000000000001</ele><time>2026-04-09T17:16:57.998Z</time></trkpt><trkpt lat="42.023617972012225" lon="12.376710609262906"><ele>109.60000000000001</ele><time>2026-04-09T17:16:58.998Z</time></trkpt><trkpt lat="42.0235208161583" lon="12.376714008724225"><ele>110.39999999999999</ele><time>2026-04-09T17:16:59.998Z</time></trkpt><trkpt lat="42.023438241147154" lon="12.376716391379759"><ele>111.19999999999999</ele><time>2026-04-09T17:17:00.998Z</time></trkpt><trkpt lat="42.02336062916675" lon="12.376718630830814"><ele>112.0</ele><time>2026-04-09T17:17:01.998Z</time></trkpt><trkpt lat="42.02324285356814" lon="12.376743560712322"><ele>113.19999999999999</ele><time>2026-04-09T17:17:03.998Z</time></trkpt><trkpt lat="42.02317883095235" lon="12.376724380272147"><ele>114.39999999999999</ele><time>2026-04-09T17:17:04.998Z</time></trkpt><trkpt lat="42.023099224609126" lon="12.376726939733988"><ele>115.60000000000001</ele><time>2026-04-09T17:17:05.998Z</time></trkpt><trkpt lat="42.02300026071809" lon="12.37673012157321"><ele>116.80000000000001</ele><time>2026-04-09T17:17:06.998Z</time></trkpt><trkpt lat="42.022893077263326" lon="12.376734094863671"><ele>118.0</ele><time>2026-04-09T17:17:07.998Z</time></trkpt><trkpt lat="42.02275742662713" lon="12.376738346541343"><ele>118.0</ele><time>2026-04-09T17:17:08.998Z</time></trkpt><trkpt lat="42.02264459909367" lon="12.376742010931636"><ele>118.00000000000001</ele><time>2026-04-09T17:17:09.998Z</time></trkpt><trkpt lat="42.02255656588566" lon="12.376745939338027"><ele>118.00000000000001</ele><time>2026-04-09T17:17:10.998Z</time></trkpt><trkpt lat="42.02247514916285" lon="12.376749117052007"><ele>118.0</ele><time>2026-04-09T17:17:11.998Z</time></trkpt><trkpt lat="42.02238919503159" lon="12.376752471874413"><ele>118.0</ele><time>2026-04-09T17:17:12.998Z</time></trkpt><trkpt lat="42.0223055100163" lon="12.376755738147304"><ele>118.50000000000001</ele><time>2026-04-09T17:17:13.998Z</time></trkpt><trkpt lat="42.02223592767759" lon="12.376758979240762"><ele>119.0</ele><time>2026-04-09T17:17:14.997Z</time></trkpt><trkpt lat="42.022170991471306" lon="12.376761992525768"><ele>119.5</ele><time>2026-04-09T17:17:15.997Z</time></trkpt><trkpt lat="42.02206015356733" lon="12.376767268852692"><ele>120.0</ele><time>2026-04-09T17:17:17.997Z</time></trkpt><trkpt lat="42.02199541287654" lon="12.376770388578302"><ele>120.50000000000001</ele><time>2026-04-09T17:17:18.997Z</time></trkpt><trkpt lat="42.02189964929743" lon="12.376775003234902"><ele>121.0</ele><time>2026-04-09T17:17:19.997Z</time></trkpt><trkpt lat="42.02181430757238" lon="12.376777887332137"><ele>121.00000000000001</ele><time>2026-04-09T17:17:20.997Z</time></trkpt><trkpt lat="42.021743086059985" lon="12.376780576172974"><ele>121.0</ele><time>2026-04-09T17:17:21.997Z</time></trkpt><trkpt lat="42.02167092652828" lon="12.37678330049074"><ele>121.0</ele><time>2026-04-09T17:17:22.997Z</time></trkpt><trkpt lat="42.02159604746004" lon="12.37678446228781"><ele>121.0</ele><time>2026-04-09T17:17:23.997Z</time></trkpt><trkpt lat="42.021521131962714" lon="12.376786967824545"><ele>121.00000000000001</ele><time>2026-04-09T17:17:24.997Z</time></trkpt><trkpt lat="42.021446729068956" lon="12.376789456216624"><ele>121.0</ele><time>2026-04-09T17:17:25.997Z</time></trkpt><trkpt lat="42.02132797038044" lon="12.376793806628916"><ele>122.00000000000001</ele><time>2026-04-09T17:17:27.997Z</time></trkpt><trkpt lat="42.02125830476342" lon="12.376796704622642"><ele>123.0</ele><time>2026-04-09T17:17:28.997Z</time></trkpt><trkpt lat="42.02117793253029" lon="12.376800046055429"><ele>124.0</ele><time>2026-04-09T17:17:29.997Z</time></trkpt><trkpt lat="42.02109373229996" lon="12.376804422552475"><ele>125.0</ele><time>2026-04-09T17:17:30.997Z</time></trkpt><trkpt lat="42.02101493755226" lon="12.376808963446317"><ele>126.00000000000001</ele><time>2026-04-09T17:17:31.997Z</time></trkpt><trkpt lat="42.02093262398131" lon="12.376812119531689"><ele>127.0</ele><time>2026-04-09T17:17:32.997Z</time></trkpt><trkpt lat="42.02085086352333" lon="12.376836926249693"><ele>128.0</ele><time>2026-04-09T17:17:33.997Z</time></trkpt><trkpt lat="42.020765263898845" lon="12.376819156542753"><ele>129.0</ele><time>2026-04-09T17:17:34.997Z</time></trkpt><trkpt lat="42.02067147573986" lon="12.376821379462761"><ele>130.0</ele><time>2026-04-09T17:17:35.997Z</time></trkpt><trkpt lat="42.02057879125721" lon="12.376823576221705"><ele>131.0</ele><time>2026-04-09T17:17:36.997Z</time></trkpt><trkpt lat="42.02050608395196" lon="12.376825299494874"><ele>132.0</ele><time>2026-04-09T17:17:38Z</time></trkpt><trkpt lat="42.02044026009883" lon="12.37682685962002"><ele>133.0</ele><time>2026-04-09T17:17:39Z</time></trkpt><trkpt lat="42.020334554999344" lon="12.376830400421081"><ele>133.0</ele><time>2026-04-09T17:17:41Z</time></trkpt><trkpt lat="42.02025893815318" lon="12.37683361086949"><ele>133.0</ele><time>2026-04-09T17:17:43Z</time></trkpt><trkpt lat="42.020188768075414" lon="12.376836777014228"><ele>133.0</ele><time>2026-04-09T17:17:45Z</time></trkpt><trkpt lat="42.020094279702604" lon="12.37684143860686"><ele>133.0</ele><time>2026-04-09T17:17:56Z</time></trkpt><trkpt lat="42.0199917333201" lon="12.376847168051011"><ele>133.0</ele><time>2026-04-09T17:17:58Z</time></trkpt><trkpt lat="42.01992163026346" lon="12.376851084762972"><ele>133.0</ele><time>2026-04-09T17:18:00Z</time></trkpt><trkpt lat="42.01985953396547" lon="12.376873774652418"><ele>134.5</ele><time>2026-04-09T17:18:04Z</time></trkpt><trkpt lat="42.01972460224191" lon="12.376866689569384"><ele>136.0</ele><time>2026-04-09T17:18:18.999Z</time></trkpt><trkpt lat="42.019623656276075" lon="12.376862332254367"><ele>137.5</ele><time>2026-04-09T17:18:19.999Z</time></trkpt><trkpt lat="42.01951387669028" lon="12.376855075340245"><ele>139.0</ele><time>2026-04-09T17:18:20.999Z</time></trkpt><trkpt lat="42.01940128300714" lon="12.376850722245257"><ele>139.0</ele><time>2026-04-09T17:18:21.999Z</time></trkpt><trkpt lat="42.0192716150177" lon="12.37683839318372"><ele>139.0</ele><time>2026-04-09T17:18:22.999Z</time></trkpt><trkpt lat="42.019150409187155" lon="12.376822221735564"><ele>139.0</ele><time>2026-04-09T17:18:23.999Z</time></trkpt><trkpt lat="42.01905294604561" lon="12.376811787337443"><ele>139.0</ele><time>2026-04-09T17:18:24.999Z</time></trkpt><trkpt lat="42.01897146723463" lon="12.376804177068351"><ele>139.0</ele><time>2026-04-09T17:18:25.999Z</time></trkpt><trkpt lat="42.01888226088944" lon="12.376796280548529"><ele>140.0</ele><time>2026-04-09T17:18:26.999Z</time></trkpt><trkpt lat="42.01877594284401" lon="12.376770778420227"><ele>141.0</ele><time>2026-04-09T17:18:27.999Z</time></trkpt><trkpt lat="42.01865506494658" lon="12.376745102544222"><ele>142.0</ele><time>2026-04-09T17:18:28.999Z</time></trkpt><trkpt lat="42.01851077864307" lon="12.376725979230873"><ele>143.0</ele><time>2026-04-09T17:18:29.999Z</time></trkpt><trkpt lat="42.018365904779444" lon="12.376708172596455"><ele>144.0</ele><time>2026-04-09T17:18:30.999Z</time></trkpt><trkpt lat="42.01822042681534" lon="12.376688631106404"><ele>145.0</ele><time>2026-04-09T17:18:31.999Z</time></trkpt><trkpt lat="42.01808293937402" lon="12.376676043542496"><ele>146.0</ele><time>2026-04-09T17:18:32.999Z</time></trkpt><trkpt lat="42.01797115792184" lon="12.376667655662107"><ele>147.0</ele><time>2026-04-09T17:18:33.999Z</time></trkpt><trkpt lat="42.017866620742936" lon="12.376659350187703"><ele>147.0</ele><time>2026-04-09T17:18:34.999Z</time></trkpt><trkpt lat="42.01777556958894" lon="12.376653732550002"><ele>147.0</ele><time>2026-04-09T17:18:35.999Z</time></trkpt><trkpt lat="42.01770525816366" lon="12.376650358984804"><ele>147.0</ele><time>2026-04-09T17:18:36.999Z</time></trkpt><trkpt lat="42.01761109083436" lon="12.376648968808126"><ele>147.0</ele><time>2026-04-09T17:18:38.999Z</time></trkpt><trkpt lat="42.0175343210993" lon="12.376652086528733"><ele>147.0</ele><time>2026-04-09T17:18:39.999Z</time></trkpt><trkpt lat="42.01743731430125" lon="12.376626476603997"><ele>147.0</ele><time>2026-04-09T17:18:40.999Z</time></trkpt><trkpt lat="42.01731947958432" lon="12.376620776936676"><ele>148.0</ele><time>2026-04-09T17:18:41.999Z</time></trkpt><trkpt lat="42.01718433260191" lon="12.376621834674083"><ele>149.0</ele><time>2026-04-09T17:18:42.999Z</time></trkpt><trkpt lat="42.017039229044194" lon="12.376637270311544"><ele>150.0</ele><time>2026-04-09T17:18:43.999Z</time></trkpt><trkpt lat="42.0168969407572" lon="12.376636204902198"><ele>151.0</ele><time>2026-04-09T17:18:44.998Z</time></trkpt><trkpt lat="42.01675602441392" lon="12.376643967087167"><ele>151.25</ele><time>2026-04-09T17:18:45.998Z</time></trkpt><trkpt lat="42.016610050598466" lon="12.376652185641367"><ele>151.5</ele><time>2026-04-09T17:18:46.998Z</time></trkpt><trkpt lat="42.01646419265449" lon="12.376662819681313"><ele>151.75</ele><time>2026-04-09T17:18:47.998Z</time></trkpt><trkpt lat="42.01631724158764" lon="12.376673999139374"><ele>152.0</ele><time>2026-04-09T17:18:48.998Z</time></trkpt><trkpt lat="42.0161771628316" lon="12.376686519039099"><ele>152.0</ele><time>2026-04-09T17:18:49.998Z</time></trkpt><trkpt lat="42.01605895511774" lon="12.376701361031172"><ele>152.0</ele><time>2026-04-09T17:18:50.998Z</time></trkpt><trkpt lat="42.01593913435415" lon="12.376720449472193"><ele>152.0</ele><time>2026-04-09T17:18:51.998Z</time></trkpt><trkpt lat="42.01581090257092" lon="12.376743277899799"><ele>152.0</ele><time>2026-04-09T17:18:52.998Z</time></trkpt><trkpt lat="42.01568060257843" lon="12.376769772316068"><ele>151.75</ele><time>2026-04-09T17:18:53.998Z</time></trkpt><trkpt lat="42.01555991876062" lon="12.376801659002039"><ele>151.5</ele><time>2026-04-09T17:18:54.998Z</time></trkpt><trkpt lat="42.01545115431328" lon="12.376829707679573"><ele>151.25</ele><time>2026-04-09T17:18:55.998Z</time></trkpt><trkpt lat="42.01533959863022" lon="12.376849474401318"><ele>151.0</ele><time>2026-04-09T17:18:56.998Z</time></trkpt><trkpt lat="42.01521246869464" lon="12.376876562976292"><ele>151.0</ele><time>2026-04-09T17:18:57.998Z</time></trkpt><trkpt lat="42.01510606656071" lon="12.376900248523935"><ele>151.0</ele><time>2026-04-09T17:18:58.998Z</time></trkpt><trkpt lat="42.015009832658954" lon="12.37692221372866"><ele>151.0</ele><time>2026-04-09T17:18:59.998Z</time></trkpt><trkpt lat="42.01490975970491" lon="12.376940492140807"><ele>151.0</ele><time>2026-04-09T17:19:00.998Z</time></trkpt><trkpt lat="42.014806720802454" lon="12.37696658148361"><ele>151.0</ele><time>2026-04-09T17:19:01.998Z</time></trkpt><trkpt lat="42.0147083394826" lon="12.376985428401174"><ele>150.83333333333334</ele><time>2026-04-09T17:19:02.998Z</time></trkpt><trkpt lat="42.01462040261334" lon="12.377008915773668"><ele>150.66666666666669</ele><time>2026-04-09T17:19:03.998Z</time></trkpt><trkpt lat="42.014542462397145" lon="12.377025338992148"><ele>150.5</ele><time>2026-04-09T17:19:04.998Z</time></trkpt><trkpt lat="42.01447407917595" lon="12.37703501700435"><ele>150.33333333333334</ele><time>2026-04-09T17:19:05.998Z</time></trkpt><trkpt lat="42.01441080667601" lon="12.37704439130824"><ele>150.16666666666666</ele><time>2026-04-09T17:19:06.998Z</time></trkpt><trkpt lat="42.01433833410064" lon="12.377056673381743"><ele>150.0</ele><time>2026-04-09T17:19:07.998Z</time></trkpt><trkpt lat="42.01425989101126" lon="12.377063712817217"><ele>150.0</ele><time>2026-04-09T17:19:08.998Z</time></trkpt><trkpt lat="42.014173207049375" lon="12.377070245822384"><ele>150.0</ele><time>2026-04-09T17:19:09.998Z</time></trkpt><trkpt lat="42.01407128295234" lon="12.377080835667813"><ele>150.0</ele><time>2026-04-09T17:19:10.998Z</time></trkpt><trkpt lat="42.013969281015406" lon="12.377087711569164"><ele>150.0</ele><time>2026-04-09T17:19:11.998Z</time></trkpt><trkpt lat="42.01387264642913" lon="12.37708787287833"><ele>150.0</ele><time>2026-04-09T17:19:12.998Z</time></trkpt><trkpt lat="42.01377853199934" lon="12.377088289090004"><ele>150.6</ele><time>2026-04-09T17:19:13.998Z</time></trkpt><trkpt lat="42.0136829953538" lon="12.37709324935013"><ele>151.2</ele><time>2026-04-09T17:19:14.998Z</time></trkpt><trkpt lat="42.01358175936158" lon="12.377098710003262"><ele>151.8</ele><time>2026-04-09T17:19:15.998Z</time></trkpt><trkpt lat="42.01347563816303" lon="12.377101412061561"><ele>152.4</ele><time>2026-04-09T17:19:16.998Z</time></trkpt><trkpt lat="42.01337401687567" lon="12.377110113446271"><ele>153.0</ele><time>2026-04-09T17:19:17.998Z</time></trkpt><trkpt lat="42.01328470901586" lon="12.377118525468909"><ele>153.33333333333334</ele><time>2026-04-09T17:19:18.998Z</time></trkpt><trkpt lat="42.01319656880513" lon="12.37712916404938"><ele>153.66666666666666</ele><time>2026-04-09T17:19:19.998Z</time></trkpt><trkpt lat="42.013112334476816" lon="12.377143261459352"><ele>154.0</ele><time>2026-04-09T17:19:20.998Z</time></trkpt><trkpt lat="42.01302755058526" lon="12.377154700945752"><ele>154.33333333333331</ele><time>2026-04-09T17:19:21.997Z</time></trkpt><trkpt lat="42.01294302467796" lon="12.377161266371994"><ele>154.66666666666666</ele><time>2026-04-09T17:19:22.997Z</time></trkpt><trkpt lat="42.012855184170434" lon="12.377172496185946"><ele>155.0</ele><time>2026-04-09T17:19:23.997Z</time></trkpt><trkpt lat="42.0127685322491" lon="12.377185529337924"><ele>155.5</ele><time>2026-04-09T17:19:24.997Z</time></trkpt><trkpt lat="42.01267881756652" lon="12.377202240886847"><ele>156.0</ele><time>2026-04-09T17:19:25.997Z</time></trkpt><trkpt lat="42.012582013557726" lon="12.377221880273"><ele>156.5</ele><time>2026-04-09T17:19:26.997Z</time></trkpt><trkpt lat="42.012489177044465" lon="12.377244368710242"><ele>157.0</ele><time>2026-04-09T17:19:27.997Z</time></trkpt><trkpt lat="42.0124157009724" lon="12.377260549639917"><ele>157.5</ele><time>2026-04-09T17:19:28.997Z</time></trkpt><trkpt lat="42.01234330246051" lon="12.37727678380009"><ele>158.0</ele><time>2026-04-09T17:19:29.997Z</time></trkpt><trkpt lat="42.01226519035382" lon="12.377294725943452"><ele>158.66666666666666</ele><time>2026-04-09T17:19:30.997Z</time></trkpt><trkpt lat="42.01218390409068" lon="12.377313795771967"><ele>159.33333333333331</ele><time>2026-04-09T17:19:31.997Z</time></trkpt><trkpt lat="42.01210174233535" lon="12.377335159772556"><ele>160.0</ele><time>2026-04-09T17:19:32.997Z</time></trkpt><trkpt lat="42.012027548320766" lon="12.377355855775763"><ele>160.66666666666666</ele><time>2026-04-09T17:19:33.997Z</time></trkpt><trkpt lat="42.01195170072544" lon="12.377378584922472"><ele>161.33333333333334</ele><time>2026-04-09T17:19:34.997Z</time></trkpt><trkpt lat="42.01187247940973" lon="12.377374909927084"><ele>162.0</ele><time>2026-04-09T17:19:35.997Z</time></trkpt><trkpt lat="42.01179710016528" lon="12.377417685153237"><ele>162.0</ele><time>2026-04-09T17:19:36.997Z</time></trkpt><trkpt lat="42.01172204842315" lon="12.377431597236933"><ele>162.0</ele><time>2026-04-09T17:19:37.997Z</time></trkpt><trkpt lat="42.011653157484005" lon="12.377444049672691"><ele>162.0</ele><time>2026-04-09T17:19:38.997Z</time></trkpt><trkpt lat="42.01158694669313" lon="12.37745846620957"><ele>162.0</ele><time>2026-04-09T17:19:39.997Z</time></trkpt><trkpt lat="42.01152220060017" lon="12.377474191130288"><ele>162.0</ele><time>2026-04-09T17:19:40.997Z</time></trkpt><trkpt lat="42.011452870413606" lon="12.37748885701481"><ele>162.0</ele><time>2026-04-09T17:19:41.997Z</time></trkpt><trkpt lat="42.01137832784686" lon="12.377504861134398"><ele>162.0</ele><time>2026-04-09T17:19:42.997Z</time></trkpt><trkpt lat="42.0112987041589" lon="12.377526060007327"><ele>162.0</ele><time>2026-04-09T17:19:44Z</time></trkpt><trkpt lat="42.011215254776936" lon="12.377554157067477"><ele>162.0</ele><time>2026-04-09T17:19:45Z</time></trkpt><trkpt lat="42.011132004135895" lon="12.377581966979237"><ele>162.0</ele><time>2026-04-09T17:19:46Z</time></trkpt><trkpt lat="42.01105607980587" lon="12.377615326751496"><ele>162.0</ele><time>2026-04-09T17:19:47Z</time></trkpt><trkpt lat="42.010993742795605" lon="12.377655946227495"><ele>162.0</ele><time>2026-04-09T17:19:48Z</time></trkpt><trkpt lat="42.01092933520872" lon="12.377701978460156"><ele>162.0</ele><time>2026-04-09T17:19:49Z</time></trkpt><trkpt lat="42.010860032665136" lon="12.377754953849601"><ele>162.0</ele><time>2026-04-09T17:19:50Z</time></trkpt><trkpt lat="42.01078758512413" lon="12.377813191403254"><ele>162.0</ele><time>2026-04-09T17:19:51Z</time></trkpt><trkpt lat="42.010710312402715" lon="12.377877281430973"><ele>162.0</ele><time>2026-04-09T17:19:52Z</time></trkpt><trkpt lat="42.010639298926414" lon="12.377936631351176"><ele>162.0</ele><time>2026-04-09T17:19:53Z</time></trkpt><trkpt lat="42.0105760534802" lon="12.377985104500983"><ele>162.0</ele><time>2026-04-09T17:19:54Z</time></trkpt><trkpt lat="42.010506592089676" lon="12.378035806513894"><ele>162.0</ele><time>2026-04-09T17:19:55Z</time></trkpt><trkpt lat="42.01043375281457" lon="12.378093296363595"><ele>162.33333333333334</ele><time>2026-04-09T17:19:56Z</time></trkpt><trkpt lat="42.01036152709494" lon="12.378157393056037"><ele>162.66666666666666</ele><time>2026-04-09T17:19:57Z</time></trkpt><trkpt lat="42.010289321534266" lon="12.378238845315188"><ele>163.0</ele><time>2026-04-09T17:19:58Z</time></trkpt><trkpt lat="42.01019856440877" lon="12.378280726703396"><ele>163.33333333333331</ele><time>2026-04-09T17:19:59Z</time></trkpt><trkpt lat="42.010121963444355" lon="12.378325685095351"><ele>163.66666666666666</ele><time>2026-04-09T17:20:00Z</time></trkpt><trkpt lat="42.010047070901166" lon="12.378366725797028"><ele>164.0</ele><time>2026-04-09T17:20:01Z</time></trkpt><trkpt lat="42.009971384183544" lon="12.378408990085381"><ele>163.0</ele><time>2026-04-09T17:20:02Z</time></trkpt><trkpt lat="42.0098922820444" lon="12.378463676906968"><ele>162.0</ele><time>2026-04-09T17:20:03Z</time></trkpt><trkpt lat="42.009805434913254" lon="12.378519126612922"><ele>161.0</ele><time>2026-04-09T17:20:04Z</time></trkpt><trkpt lat="42.00971528380651" lon="12.37857223030952"><ele>160.0</ele><time>2026-04-09T17:20:05Z</time></trkpt><trkpt lat="42.00962343905854" lon="12.378623808809891"><ele>159.0</ele><time>2026-04-09T17:20:06Z</time></trkpt><trkpt lat="42.0095371095016" lon="12.378669790671454"><ele>159.0</ele><time>2026-04-09T17:20:07Z</time></trkpt><trkpt lat="42.00945500865216" lon="12.378709283687801"><ele>159.0</ele><time>2026-04-09T17:20:08Z</time></trkpt><trkpt lat="42.00937449154257" lon="12.378751121643033"><ele>159.0</ele><time>2026-04-09T17:20:09Z</time></trkpt><trkpt lat="42.009305426185115" lon="12.3788084428613"><ele>159.0</ele><time>2026-04-09T17:20:10Z</time></trkpt><trkpt lat="42.00921619726653" lon="12.378835350194791"><ele>159.0</ele><time>2026-04-09T17:20:11Z</time></trkpt><trkpt lat="42.009132861382064" lon="12.378872268862594"><ele>159.0</ele><time>2026-04-09T17:20:12Z</time></trkpt><trkpt lat="42.00904963919585" lon="12.378919457908149"><ele>159.8</ele><time>2026-04-09T17:20:12.999Z</time></trkpt><trkpt lat="42.00896371572306" lon="12.378974713229553"><ele>160.60000000000002</ele><time>2026-04-09T17:20:13.999Z</time></trkpt><trkpt lat="42.00887992021822" lon="12.379029688179854"><ele>161.4</ele><time>2026-04-09T17:20:14.999Z</time></trkpt><trkpt lat="42.008789962489516" lon="12.379076826716977"><ele>162.20000000000002</ele><time>2026-04-09T17:20:15.999Z</time></trkpt><trkpt lat="42.008703445279586" lon="12.379119265101577"><ele>163.0</ele><time>2026-04-09T17:20:16.999Z</time></trkpt><trkpt lat="42.00861749383344" lon="12.379164272975192"><ele>163.0</ele><time>2026-04-09T17:20:17.999Z</time></trkpt><trkpt lat="42.00854212370074" lon="12.379203357483572"><ele>163.0</ele><time>2026-04-09T17:20:18.999Z</time></trkpt><trkpt lat="42.00847174237644" lon="12.379242051632941"><ele>163.0</ele><time>2026-04-09T17:20:19.999Z</time></trkpt><trkpt lat="42.008402287982804" lon="12.379282218549738"><ele>163.0</ele><time>2026-04-09T17:20:20.999Z</time></trkpt><trkpt lat="42.00833294347101" lon="12.379321511294556"><ele>163.0</ele><time>2026-04-09T17:20:21.999Z</time></trkpt><trkpt lat="42.00826014229356" lon="12.379362286743437"><ele>163.0</ele><time>2026-04-09T17:20:22.999Z</time></trkpt><trkpt lat="42.008183420006134" lon="12.379405476815123"><ele>163.60000000000002</ele><time>2026-04-09T17:20:23.999Z</time></trkpt><trkpt lat="42.0080984258704" lon="12.37945475266045"><ele>164.20000000000002</ele><time>2026-04-09T17:20:24.999Z</time></trkpt><trkpt lat="42.00800231447385" lon="12.379505293452777"><ele>164.8</ele><time>2026-04-09T17:20:25.999Z</time></trkpt><trkpt lat="42.00789145095727" lon="12.379555708089745"><ele>165.4</ele><time>2026-04-09T17:20:26.999Z</time></trkpt><trkpt lat="42.00777668517577" lon="12.379605776245652"><ele>166.0</ele><time>2026-04-09T17:20:27.999Z</time></trkpt><trkpt lat="42.00767346363962" lon="12.37965223144602"><ele>166.0</ele><time>2026-04-09T17:20:28.999Z</time></trkpt><trkpt lat="42.007575638099574" lon="12.379682399359"><ele>166.0</ele><time>2026-04-09T17:20:29.999Z</time></trkpt><trkpt lat="42.00748211918294" lon="12.37970078095174"><ele>166.0</ele><time>2026-04-09T17:20:30.999Z</time></trkpt><trkpt lat="42.00738597736451" lon="12.379712935420084"><ele>166.0</ele><time>2026-04-09T17:20:31.999Z</time></trkpt><trkpt lat="42.00729036923746" lon="12.379718457210664"><ele>166.0</ele><time>2026-04-09T17:20:32.999Z</time></trkpt><trkpt lat="42.00719209051457" lon="12.379723812964242"><ele>167.8</ele><time>2026-04-09T17:20:33.999Z</time></trkpt><trkpt lat="42.00709219868582" lon="12.379716636899056"><ele>169.60000000000002</ele><time>2026-04-09T17:20:34.999Z</time></trkpt><trkpt lat="42.0069970827635" lon="12.379718471052447"><ele>171.4</ele><time>2026-04-09T17:20:35.999Z</time></trkpt><trkpt lat="42.00690268650698" lon="12.379720410929654"><ele>173.2</ele><time>2026-04-09T17:20:36.999Z</time></trkpt><trkpt lat="42.006806304012265" lon="12.379720570652971"><ele>175.0</ele><time>2026-04-09T17:20:37.999Z</time></trkpt><trkpt lat="42.00670905902598" lon="12.379720604483639"><ele>174.0</ele><time>2026-04-09T17:20:38.999Z</time></trkpt><trkpt lat="42.00660958397098" lon="12.379718329467043"><ele>173.0</ele><time>2026-04-09T17:20:39.999Z</time></trkpt><trkpt lat="42.0065053669051" lon="12.379725929696821"><ele>172.0</ele><time>2026-04-09T17:20:40.999Z</time></trkpt><trkpt lat="42.00641051582836" lon="12.379747317503996"><ele>171.0</ele><time>2026-04-09T17:20:41.999Z</time></trkpt><trkpt lat="42.00630914398311" lon="12.379783832464465"><ele>170.0</ele><time>2026-04-09T17:20:42.999Z</time></trkpt><trkpt lat="42.00622340338312" lon="12.379817264206356"><ele>170.0</ele><time>2026-04-09T17:20:43.999Z</time></trkpt><trkpt lat="42.00613740373808" lon="12.37986377272646"><ele>170.0</ele><time>2026-04-09T17:20:44.999Z</time></trkpt><trkpt lat="42.00605453198048" lon="12.379910754884138"><ele>170.0</ele><time>2026-04-09T17:20:45.999Z</time></trkpt><trkpt lat="42.00596790150832" lon="12.379961975591618"><ele>170.0</ele><time>2026-04-09T17:20:46.999Z</time></trkpt><trkpt lat="42.00588012108021" lon="12.380014562521232"><ele>170.0</ele><time>2026-04-09T17:20:47.999Z</time></trkpt><trkpt lat="42.00578179283002" lon="12.380066679725076"><ele>169.25</ele><time>2026-04-09T17:20:48.998Z</time></trkpt><trkpt lat="42.005691582818606" lon="12.38012084788871"><ele>168.5</ele><time>2026-04-09T17:20:49.998Z</time></trkpt><trkpt lat="42.0055830614087" lon="12.380191627051392"><ele>167.75</ele><time>2026-04-09T17:20:50.998Z</time></trkpt><trkpt lat="42.00548080742892" lon="12.380253251839685"><ele>167.0</ele><time>2026-04-09T17:20:51.998Z</time></trkpt><trkpt lat="42.005369614987885" lon="12.380313183925885"><ele>167.0</ele><time>2026-04-09T17:20:52.998Z</time></trkpt><trkpt lat="42.00525738189776" lon="12.380375594421448"><ele>167.0</ele><time>2026-04-09T17:20:53.998Z</time></trkpt><trkpt lat="42.00514891289232" lon="12.380438624806425"><ele>167.0</ele><time>2026-04-09T17:20:54.998Z</time></trkpt><trkpt lat="42.005039507678646" lon="12.380496041674329"><ele>167.0</ele><time>2026-04-09T17:20:55.998Z</time></trkpt><trkpt lat="42.00493340097034" lon="12.380549218593147"><ele>166.0</ele><time>2026-04-09T17:20:56.998Z</time></trkpt><trkpt lat="42.004826483290934" lon="12.38061198841327"><ele>165.0</ele><time>2026-04-09T17:20:57.998Z</time></trkpt><trkpt lat="42.004714782131316" lon="12.380676272438542"><ele>164.0</ele><time>2026-04-09T17:20:58.998Z</time></trkpt><trkpt lat="42.00460453336954" lon="12.380738476278967"><ele>163.0</ele><time>2026-04-09T17:20:59.998Z</time></trkpt><trkpt lat="42.00449785876187" lon="12.380796825571242"><ele>163.0</ele><time>2026-04-09T17:21:00.998Z</time></trkpt><trkpt lat="42.00438593846131" lon="12.380861187772396"><ele>163.0</ele><time>2026-04-09T17:21:01.998Z</time></trkpt><trkpt lat="42.00427621661978" lon="12.380930577292798"><ele>163.0</ele><time>2026-04-09T17:21:02.998Z</time></trkpt><trkpt lat="42.0041789476584" lon="12.381004037297997"><ele>163.0</ele><time>2026-04-09T17:21:03.998Z</time></trkpt><trkpt lat="42.0040879675669" lon="12.38108603095069"><ele>162.8</ele><time>2026-04-09T17:21:04.998Z</time></trkpt><trkpt lat="42.00400109175723" lon="12.381183885023773"><ele>162.60000000000002</ele><time>2026-04-09T17:21:05.998Z</time></trkpt><trkpt lat="42.00391572948918" lon="12.38129207447975"><ele>162.39999999999998</ele><time>2026-04-09T17:21:06.998Z</time></trkpt><trkpt lat="42.00383873392408" lon="12.381395557111349"><ele>162.2</ele><time>2026-04-09T17:21:07.998Z</time></trkpt><trkpt lat="42.00377267837127" lon="12.38148655750956"><ele>162.0</ele><time>2026-04-09T17:21:08.998Z</time></trkpt><trkpt lat="42.00371758467779" lon="12.38156565468975"><ele>161.66666666666666</ele><time>2026-04-09T17:21:09.998Z</time></trkpt><trkpt lat="42.00366796677316" lon="12.381641619478403"><ele>161.33333333333334</ele><time>2026-04-09T17:21:10.998Z</time></trkpt><trkpt lat="42.00361577803747" lon="12.381711401255421"><ele>161.0</ele><time>2026-04-09T17:21:11.998Z</time></trkpt><trkpt lat="42.00352492871793" lon="12.38180590509078"><ele>160.66666666666669</ele><time>2026-04-09T17:21:13.998Z</time></trkpt><trkpt lat="42.00342679795853" lon="12.381815641852292"><ele>160.33333333333334</ele><time>2026-04-09T17:21:15.998Z</time></trkpt><trkpt lat="42.003416725062706" lon="12.381719899413348"><ele>160.0</ele><time>2026-04-09T17:21:16.998Z</time></trkpt><trkpt lat="42.00341948726365" lon="12.381632873156006"><ele>160.0</ele><time>2026-04-09T17:21:17.998Z</time></trkpt><trkpt lat="42.00345054529955" lon="12.381539274558413"><ele>160.0</ele><time>2026-04-09T17:21:18.998Z</time></trkpt><trkpt lat="42.00349751253017" lon="12.381443123803745"><ele>160.0</ele><time>2026-04-09T17:21:19.998Z</time></trkpt><trkpt lat="42.00356653673902" lon="12.381343370338541"><ele>160.0</ele><time>2026-04-09T17:21:20.998Z</time></trkpt><trkpt lat="42.003652439291336" lon="12.381236789920914"><ele>160.0</ele><time>2026-04-09T17:21:21.998Z</time></trkpt><trkpt lat="42.003748914353224" lon="12.381126912384014"><ele>160.5</ele><time>2026-04-09T17:21:22.998Z</time></trkpt><trkpt lat="42.00384411313585" lon="12.381011341838676"><ele>161.0</ele><time>2026-04-09T17:21:23.998Z</time></trkpt><trkpt lat="42.0039418142478" lon="12.380898991625916"><ele>161.5</ele><time>2026-04-09T17:21:24.998Z</time></trkpt><trkpt lat="42.004032584820685" lon="12.38079677892682"><ele>162.0</ele><time>2026-04-09T17:21:25.997Z</time></trkpt><trkpt lat="42.00409746096421" lon="12.380707322290469"><ele>162.0</ele><time>2026-04-09T17:21:26.997Z</time></trkpt><trkpt lat="42.00414879981895" lon="12.38062651337606"><ele>162.0</ele><time>2026-04-09T17:21:27.997Z</time></trkpt><trkpt lat="42.00416903661825" lon="12.380544824035539"><ele>162.0</ele><time>2026-04-09T17:21:28.997Z</time></trkpt><trkpt lat="42.004151124713815" lon="12.380445835361067"><ele>162.0</ele><time>2026-04-09T17:21:29.997Z</time></trkpt><trkpt lat="42.004115315080384" lon="12.380331262030259"><ele>162.0</ele><time>2026-04-09T17:21:30.997Z</time></trkpt><trkpt lat="42.004075941546084" lon="12.380201058370185"><ele>162.0</ele><time>2026-04-09T17:21:31.997Z</time></trkpt><trkpt lat="42.00403072833306" lon="12.380049446295457"><ele>161.75</ele><time>2026-04-09T17:21:32.997Z</time></trkpt><trkpt lat="42.00398142491105" lon="12.37987889870066"><ele>161.5</ele><time>2026-04-09T17:21:33.997Z</time></trkpt><trkpt lat="42.00394043302032" lon="12.379707448507457"><ele>161.25</ele><time>2026-04-09T17:21:34.997Z</time></trkpt><trkpt lat="42.00389636466237" lon="12.379535162651266"><ele>161.0</ele><time>2026-04-09T17:21:35.997Z</time></trkpt><trkpt lat="42.00383766544386" lon="12.379370923438923"><ele>161.0</ele><time>2026-04-09T17:21:36.997Z</time></trkpt><trkpt lat="42.00377032582988" lon="12.379221593740166"><ele>161.0</ele><time>2026-04-09T17:21:37.997Z</time></trkpt><trkpt lat="42.003679048069294" lon="12.379081173408041"><ele>161.0</ele><time>2026-04-09T17:21:38.997Z</time></trkpt><trkpt lat="42.00355359590181" lon="12.378958736178173"><ele>161.0</ele><time>2026-04-09T17:21:39.997Z</time></trkpt><trkpt lat="42.00341455322824" lon="12.378856785708262"><ele>161.75</ele><time>2026-04-09T17:21:40.997Z</time></trkpt><trkpt lat="42.003281398508975" lon="12.378778199067789"><ele>162.5</ele><time>2026-04-09T17:21:41.997Z</time></trkpt><trkpt lat="42.00316522578019" lon="12.378698986607981"><ele>163.25</ele><time>2026-04-09T17:21:42.997Z</time></trkpt><trkpt lat="42.003046457207255" lon="12.378615015243453"><ele>164.0</ele><time>2026-04-09T17:21:43.997Z</time></trkpt><trkpt lat="42.002924978515374" lon="12.378542026262101"><ele>164.0</ele><time>2026-04-09T17:21:44.997Z</time></trkpt><trkpt lat="42.00281490396181" lon="12.37846062156969"><ele>164.0</ele><time>2026-04-09T17:21:45.997Z</time></trkpt><trkpt lat="42.002699324794875" lon="12.378342337547906"><ele>164.0</ele><time>2026-04-09T17:21:46.997Z</time></trkpt><trkpt lat="42.002582621967925" lon="12.378194132940388"><ele>164.0</ele><time>2026-04-09T17:21:47.997Z</time></trkpt><trkpt lat="42.00246816485814" lon="12.378025523804023"><ele>162.66666666666666</ele><time>2026-04-09T17:21:49Z</time></trkpt><trkpt lat="42.00235756260284" lon="12.377830771753676"><ele>161.33333333333334</ele><time>2026-04-09T17:21:50Z</time></trkpt><trkpt lat="42.00224899473915" lon="12.377627518287373"><ele>160.0</ele><time>2026-04-09T17:21:51Z</time></trkpt><trkpt lat="42.002133655559724" lon="12.37742351111669"><ele>160.0</ele><time>2026-04-09T17:21:52Z</time></trkpt><trkpt lat="42.00202369527328" lon="12.377237931581503"><ele>160.0</ele><time>2026-04-09T17:21:53Z</time></trkpt><trkpt lat="42.00191502427364" lon="12.377065087818684"><ele>160.0</ele><time>2026-04-09T17:21:54Z</time></trkpt><trkpt lat="42.00180397830294" lon="12.376889836099318"><ele>159.66666666666669</ele><time>2026-04-09T17:21:55Z</time></trkpt><trkpt lat="42.00169050086992" lon="12.376714477883349"><ele>159.33333333333334</ele><time>2026-04-09T17:21:56Z</time></trkpt><trkpt lat="42.0015764443973" lon="12.376540944871444"><ele>159.0</ele><time>2026-04-09T17:21:57Z</time></trkpt><trkpt lat="42.00146214443895" lon="12.376366323638079"><ele>157.66666666666666</ele><time>2026-04-09T17:21:58Z</time></trkpt><trkpt lat="42.00133729387726" lon="12.376183108938582"><ele>156.33333333333331</ele><time>2026-04-09T17:21:59Z</time></trkpt><trkpt lat="42.00120848267165" lon="12.375990370705267"><ele>155.0</ele><time>2026-04-09T17:22:00Z</time></trkpt><trkpt lat="42.001075781610204" lon="12.375790369776816"><ele>155.0</ele><time>2026-04-09T17:22:01Z</time></trkpt><trkpt lat="42.00094577137597" lon="12.375599207390229"><ele>155.0</ele><time>2026-04-09T17:22:02Z</time></trkpt><trkpt lat="42.00082886847404" lon="12.37542340662214"><ele>155.0</ele><time>2026-04-09T17:22:03Z</time></trkpt><trkpt lat="42.00071966463303" lon="12.375262085318637"><ele>153.33333333333331</ele><time>2026-04-09T17:22:04Z</time></trkpt><trkpt lat="42.0006084911801" lon="12.375102745671407"><ele>151.66666666666666</ele><time>2026-04-09T17:22:05Z</time></trkpt><trkpt lat="42.00050875615777" lon="12.374952464408281"><ele>150.0</ele><time>2026-04-09T17:22:06Z</time></trkpt><trkpt lat="42.00040925794065" lon="12.374809814091803"><ele>151.0</ele><time>2026-04-09T17:22:07Z</time></trkpt><trkpt lat="42.00029857513251" lon="12.374677613317253"><ele>152.0</ele><time>2026-04-09T17:22:08Z</time></trkpt><trkpt lat="42.00017627629338" lon="12.374563693246042"><ele>153.0</ele><time>2026-04-09T17:22:09Z</time></trkpt><trkpt lat="42.00003840406881" lon="12.374476715385358"><ele>154.0</ele><time>2026-04-09T17:22:10Z</time></trkpt><trkpt lat="41.999889450192086" lon="12.374418703480915"><ele>154.0</ele><time>2026-04-09T17:22:11Z</time></trkpt><trkpt lat="41.999729199447984" lon="12.37440086891068"><ele>154.0</ele><time>2026-04-09T17:22:12Z</time></trkpt><trkpt lat="41.999564644727606" lon="12.374426794797822"><ele>154.0</ele><time>2026-04-09T17:22:13Z</time></trkpt><trkpt lat="41.99940225559198" lon="12.374504984779778"><ele>154.0</ele><time>2026-04-09T17:22:14Z</time></trkpt><trkpt lat="41.99924052002286" lon="12.374606735410783"><ele>154.0</ele><time>2026-04-09T17:22:15Z</time></trkpt><trkpt lat="41.99907045356406" lon="12.37465591356482"><ele>154.0</ele><time>2026-04-09T17:22:15.999Z</time></trkpt><trkpt lat="41.99889017458002" lon="12.374709042144886"><ele>152.33333333333334</ele><time>2026-04-09T17:22:16.999Z</time></trkpt><trkpt lat="41.99870645413527" lon="12.374763411728216"><ele>150.66666666666666</ele><time>2026-04-09T17:22:17.999Z</time></trkpt><trkpt lat="41.99852853392404" lon="12.374785928159866"><ele>149.0</ele><time>2026-04-09T17:22:18.999Z</time></trkpt><trkpt lat="41.99837230417083" lon="12.374806236014273"><ele>149.5</ele><time>2026-04-09T17:22:19.999Z</time></trkpt><trkpt lat="41.99822357164532" lon="12.374829711542196"><ele>150.0</ele><time>2026-04-09T17:22:20.999Z</time></trkpt><trkpt lat="41.998093493755974" lon="12.374855044470372"><ele>150.5</ele><time>2026-04-09T17:22:21.999Z</time></trkpt><trkpt lat="41.99797768494991" lon="12.374843821024912"><ele>151.0</ele><time>2026-04-09T17:22:22.999Z</time></trkpt><trkpt lat="41.99786313280684" lon="12.37485399786846"><ele>151.0</ele><time>2026-04-09T17:22:23.999Z</time></trkpt><trkpt lat="41.99774904908081" lon="12.374784213604478"><ele>151.0</ele><time>2026-04-09T17:22:24.999Z</time></trkpt><trkpt lat="41.99763293899263" lon="12.37469864730937"><ele>151.0</ele><time>2026-04-09T17:22:25.999Z</time></trkpt><trkpt lat="41.9975029843064" lon="12.374613092281166"><ele>151.0</ele><time>2026-04-09T17:22:26.999Z</time></trkpt><trkpt lat="41.997379142452225" lon="12.374488477013784"><ele>151.33333333333334</ele><time>2026-04-09T17:22:27.999Z</time></trkpt><trkpt lat="41.99723966246313" lon="12.374366917087942"><ele>151.66666666666666</ele><time>2026-04-09T17:22:28.999Z</time></trkpt><trkpt lat="41.997100664662916" lon="12.374260965491375"><ele>152.0</ele><time>2026-04-09T17:22:29.999Z</time></trkpt><trkpt lat="41.996986025843306" lon="12.374162247382987"><ele>152.0</ele><time>2026-04-09T17:22:30.999Z</time></trkpt><trkpt lat="41.99688900532213" lon="12.374065201141871"><ele>152.0</ele><time>2026-04-09T17:22:31.999Z</time></trkpt><trkpt lat="41.99680839329217" lon="12.373961880304028"><ele>152.0</ele><time>2026-04-09T17:22:32.999Z</time></trkpt><trkpt lat="41.99673992687502" lon="12.373846201074231"><ele>152.0</ele><time>2026-04-09T17:22:33.999Z</time></trkpt><trkpt lat="41.99668165429469" lon="12.373708891654527"><ele>151.0</ele><time>2026-04-09T17:22:34.999Z</time></trkpt><trkpt lat="41.99663627231544" lon="12.373538455619999"><ele>150.0</ele><time>2026-04-09T17:22:35.999Z</time></trkpt><trkpt lat="41.9965832151828" lon="12.373358501505146"><ele>149.0</ele><time>2026-04-09T17:22:36.999Z</time></trkpt><trkpt lat="41.99649794808089" lon="12.373187020285187"><ele>148.0</ele><time>2026-04-09T17:22:37.999Z</time></trkpt><trkpt lat="41.99637592854788" lon="12.373045258726586"><ele>148.33333333333334</ele><time>2026-04-09T17:22:38.999Z</time></trkpt><trkpt lat="41.99622527228292" lon="12.372935045338236"><ele>148.66666666666666</ele><time>2026-04-09T17:22:39.999Z</time></trkpt><trkpt lat="41.99606601965149" lon="12.372857099222237"><ele>149.0</ele><time>2026-04-09T17:22:40.999Z</time></trkpt><trkpt lat="41.995896326586085" lon="12.372796606660946"><ele>148.66666666666666</ele><time>2026-04-09T17:22:41.999Z</time></trkpt><trkpt lat="41.99573664127627" lon="12.372741030221544"><ele>148.33333333333334</ele><time>2026-04-09T17:22:42.999Z</time></trkpt><trkpt lat="41.99558996785904" lon="12.372698879274546"><ele>148.0</ele><time>2026-04-09T17:22:43.999Z</time></trkpt><trkpt lat="41.99544432587927" lon="12.372703992151154"><ele>148.0</ele><time>2026-04-09T17:22:44.999Z</time></trkpt><trkpt lat="41.995287778471166" lon="12.372740628802697"><ele>148.0</ele><time>2026-04-09T17:22:45.999Z</time></trkpt><trkpt lat="41.995125845797624" lon="12.372804117317175"><ele>148.0</ele><time>2026-04-09T17:22:46.999Z</time></trkpt><trkpt lat="41.99495776332654" lon="12.37289637495282"><ele>148.0</ele><time>2026-04-09T17:22:47.999Z</time></trkpt><trkpt lat="41.99478538039996" lon="12.37299018996515"><ele>148.0</ele><time>2026-04-09T17:22:48.999Z</time></trkpt><trkpt lat="41.99462970766473" lon="12.373062114547452"><ele>148.0</ele><time>2026-04-09T17:22:49.999Z</time></trkpt><trkpt lat="41.994484535367356" lon="12.37313701766309"><ele>146.33333333333334</ele><time>2026-04-09T17:22:50.999Z</time></trkpt><trkpt lat="41.99434590946194" lon="12.373202300039603"><ele>144.66666666666666</ele><time>2026-04-09T17:22:51.998Z</time></trkpt><trkpt lat="41.99420066101765" lon="12.373248351272807"><ele>143.0</ele><time>2026-04-09T17:22:52.998Z</time></trkpt><trkpt lat="41.99404496745059" lon="12.373273917208182"><ele>143.0</ele><time>2026-04-09T17:22:53.998Z</time></trkpt><trkpt lat="41.99388071402041" lon="12.37327741987799"><ele>143.0</ele><time>2026-04-09T17:22:54.998Z</time></trkpt><trkpt lat="41.993704767321255" lon="12.37325170612978"><ele>143.0</ele><time>2026-04-09T17:22:55.998Z</time></trkpt><trkpt lat="41.993520687642956" lon="12.373205428724184"><ele>143.0</ele><time>2026-04-09T17:22:56.998Z</time></trkpt><trkpt lat="41.993330122780456" lon="12.373148162313617"><ele>143.0</ele><time>2026-04-09T17:22:57.998Z</time></trkpt><trkpt lat="41.99313269809595" lon="12.373087478711204"><ele>143.0</ele><time>2026-04-09T17:22:58.998Z</time></trkpt><trkpt lat="41.99294959189339" lon="12.373044341778849"><ele>142.33333333333331</ele><time>2026-04-09T17:22:59.998Z</time></trkpt><trkpt lat="41.992773069264345" lon="12.372995807936205"><ele>141.66666666666666</ele><time>2026-04-09T17:23:00.998Z</time></trkpt><trkpt lat="41.992598602256066" lon="12.372942118745334"><ele>141.0</ele><time>2026-04-09T17:23:01.998Z</time></trkpt><trkpt lat="41.992423838116956" lon="12.372900408918795"><ele>139.66666666666666</ele><time>2026-04-09T17:23:02.998Z</time></trkpt><trkpt lat="41.99226358186889" lon="12.372847712930076"><ele>138.33333333333331</ele><time>2026-04-09T17:23:03.998Z</time></trkpt><trkpt lat="41.99210741212007" lon="12.372776583385384"><ele>137.0</ele><time>2026-04-09T17:23:04.998Z</time></trkpt><trkpt lat="41.99195076893854" lon="12.372672533836699"><ele>137.0</ele><time>2026-04-09T17:23:05.998Z</time></trkpt><trkpt lat="41.99179594326479" lon="12.37254089422162"><ele>137.0</ele><time>2026-04-09T17:23:06.998Z</time></trkpt><trkpt lat="41.99164779646743" lon="12.37241519231904"><ele>137.0</ele><time>2026-04-09T17:23:07.998Z</time></trkpt><trkpt lat="41.99149347370026" lon="12.37225200820716"><ele>136.33333333333331</ele><time>2026-04-09T17:23:08.998Z</time></trkpt><trkpt lat="41.99132618547535" lon="12.372085164994001"><ele>135.66666666666666</ele><time>2026-04-09T17:23:09.998Z</time></trkpt><trkpt lat="41.99115399354744" lon="12.371915401454443"><ele>135.0</ele><time>2026-04-09T17:23:10.998Z</time></trkpt><trkpt lat="41.99098084029363" lon="12.371754384045165"><ele>137.0</ele><time>2026-04-09T17:23:11.998Z</time></trkpt><trkpt lat="41.99080122734152" lon="12.371581084673632"><ele>139.0</ele><time>2026-04-09T17:23:12.998Z</time></trkpt><trkpt lat="41.990637810878155" lon="12.371423480680784"><ele>141.0</ele><time>2026-04-09T17:23:13.998Z</time></trkpt><trkpt lat="41.99047451005851" lon="12.371278042406686"><ele>141.0</ele><time>2026-04-09T17:23:14.998Z</time></trkpt><trkpt lat="41.990318853220266" lon="12.371144814654357"><ele>141.0</ele><time>2026-04-09T17:23:15.998Z</time></trkpt><trkpt lat="41.99014960889402" lon="12.371024395214983"><ele>141.0</ele><time>2026-04-09T17:23:16.998Z</time></trkpt><trkpt lat="41.98995742673218" lon="12.37092538857083"><ele>140.0</ele><time>2026-04-09T17:23:17.998Z</time></trkpt><trkpt lat="41.98975583542352" lon="12.370818154010516"><ele>139.0</ele><time>2026-04-09T17:23:18.998Z</time></trkpt><trkpt lat="41.98954484275344" lon="12.370697135151195"><ele>138.0</ele><time>2026-04-09T17:23:19.998Z</time></trkpt><trkpt lat="41.98932077222254" lon="12.370574104230592"><ele>137.33333333333334</ele><time>2026-04-09T17:23:20.998Z</time></trkpt><trkpt lat="41.98910809590532" lon="12.370455341595102"><ele>136.66666666666669</ele><time>2026-04-09T17:23:21.998Z</time></trkpt><trkpt lat="41.98891481696869" lon="12.370348497828742"><ele>136.0</ele><time>2026-04-09T17:23:22.998Z</time></trkpt><trkpt lat="41.98873901610733" lon="12.370244041094315"><ele>136.0</ele><time>2026-04-09T17:23:23.998Z</time></trkpt><trkpt lat="41.9885696713683" lon="12.370136565429338"><ele>136.0</ele><time>2026-04-09T17:23:24.998Z</time></trkpt><trkpt lat="41.98839931271894" lon="12.370032297973431"><ele>136.0</ele><time>2026-04-09T17:23:25.998Z</time></trkpt><trkpt lat="41.98822890565892" lon="12.369952716654392"><ele>135.33333333333334</ele><time>2026-04-09T17:23:26.998Z</time></trkpt><trkpt lat="41.98805369407503" lon="12.36990652469237"><ele>134.66666666666666</ele><time>2026-04-09T17:23:27.998Z</time></trkpt><trkpt lat="41.98787058681994" lon="12.369893173056262"><ele>134.0</ele><time>2026-04-09T17:23:28.997Z</time></trkpt><trkpt lat="41.98767933507433" lon="12.369892627359267"><ele>133.66666666666666</ele><time>2026-04-09T17:23:29.997Z</time></trkpt><trkpt lat="41.98748731117271" lon="12.369892273269175"><ele>133.33333333333334</ele><time>2026-04-09T17:23:30.997Z</time></trkpt><trkpt lat="41.987284939632474" lon="12.369889098521554"><ele>133.0</ele><time>2026-04-09T17:23:31.997Z</time></trkpt><trkpt lat="41.987074602468034" lon="12.369874984769954"><ele>133.0</ele><time>2026-04-09T17:23:32.997Z</time></trkpt><trkpt lat="41.98685393104157" lon="12.36986656769439"><ele>133.0</ele><time>2026-04-09T17:23:33.997Z</time></trkpt><trkpt lat="41.98662865646004" lon="12.369855688032526"><ele>133.0</ele><time>2026-04-09T17:23:34.997Z</time></trkpt><trkpt lat="41.98641707462663" lon="12.369846207638028"><ele>133.0</ele><time>2026-04-09T17:23:35.997Z</time></trkpt><trkpt lat="41.98622126056772" lon="12.3698378660991"><ele>133.0</ele><time>2026-04-09T17:23:36.997Z</time></trkpt><trkpt lat="41.98602340402252" lon="12.369825201494326"><ele>133.0</ele><time>2026-04-09T17:23:37.997Z</time></trkpt><trkpt lat="41.98583190627761" lon="12.36981390742624"><ele>133.0</ele><time>2026-04-09T17:23:38.997Z</time></trkpt><trkpt lat="41.98566275045909" lon="12.369806257911941"><ele>133.0</ele><time>2026-04-09T17:23:39.997Z</time></trkpt><trkpt lat="41.98550064987131" lon="12.3698013873144"><ele>133.0</ele><time>2026-04-09T17:23:40.997Z</time></trkpt><trkpt lat="41.98535248838199" lon="12.369782770202113"><ele>133.0</ele><time>2026-04-09T17:23:41.997Z</time></trkpt><trkpt lat="41.985209705212036" lon="12.369736579610851"><ele>133.0</ele><time>2026-04-09T17:23:42.997Z</time></trkpt><trkpt lat="41.98505500318201" lon="12.369672554838296"><ele>133.0</ele><time>2026-04-09T17:23:43.997Z</time></trkpt><trkpt lat="41.98489575570773" lon="12.369605495962803"><ele>132.33333333333334</ele><time>2026-04-09T17:23:44.997Z</time></trkpt><trkpt lat="41.984730534263775" lon="12.369531680542249"><ele>131.66666666666666</ele><time>2026-04-09T17:23:45.997Z</time></trkpt><trkpt lat="41.98456941744514" lon="12.369449927358989"><ele>131.0</ele><time>2026-04-09T17:23:46.997Z</time></trkpt><trkpt lat="41.984424724690776" lon="12.36937595051905"><ele>131.0</ele><time>2026-04-09T17:23:47.997Z</time></trkpt><trkpt lat="41.98429227405341" lon="12.369293988391494"><ele>131.0</ele><time>2026-04-09T17:23:48.997Z</time></trkpt><trkpt lat="41.98418525980701" lon="12.369179852193088"><ele>131.0</ele><time>2026-04-09T17:23:49.997Z</time></trkpt><trkpt lat="41.98408883531057" lon="12.369024381658038"><ele>131.0</ele><time>2026-04-09T17:23:50.997Z</time></trkpt><trkpt lat="41.98399436202694" lon="12.36883787617574"><ele>130.66666666666666</ele><time>2026-04-09T17:23:51.997Z</time></trkpt><trkpt lat="41.98389794294749" lon="12.368643762399776"><ele>130.33333333333334</ele><time>2026-04-09T17:23:52.997Z</time></trkpt><trkpt lat="41.98379786110561" lon="12.368460352749386"><ele>130.0</ele><time>2026-04-09T17:23:53.997Z</time></trkpt><trkpt lat="41.983704563166235" lon="12.368301222640484"><ele>130.0</ele><time>2026-04-09T17:23:55Z</time></trkpt><trkpt lat="41.98360201229048" lon="12.36815770234889"><ele>130.0</ele><time>2026-04-09T17:23:56Z</time></trkpt><trkpt lat="41.98348320958131" lon="12.36804224177948"><ele>130.0</ele><time>2026-04-09T17:23:57Z</time></trkpt><trkpt lat="41.983343193577184" lon="12.367957867032311"><ele>130.0</ele><time>2026-04-09T17:23:58Z</time></trkpt><trkpt lat="41.983183356537225" lon="12.36789910998644"><ele>129.33333333333334</ele><time>2026-04-09T17:23:59Z</time></trkpt><trkpt lat="41.98300278559399" lon="12.367858185003774"><ele>128.66666666666666</ele><time>2026-04-09T17:24:00Z</time></trkpt><trkpt lat="41.98280910357583" lon="12.367813740347998"><ele>128.0</ele><time>2026-04-09T17:24:01Z</time></trkpt><trkpt lat="41.98260761521632" lon="12.367763865880079"><ele>128.66666666666666</ele><time>2026-04-09T17:24:02Z</time></trkpt><trkpt lat="41.982396379252314" lon="12.3677051805501"><ele>129.33333333333334</ele><time>2026-04-09T17:24:03Z</time></trkpt><trkpt lat="41.98219111919555" lon="12.367643752900332"><ele>130.0</ele><time>2026-04-09T17:24:04Z</time></trkpt><trkpt lat="41.981979196911006" lon="12.367586953378495"><ele>130.0</ele><time>2026-04-09T17:24:05Z</time></trkpt><trkpt lat="41.98178311447633" lon="12.367532438799536"><ele>130.0</ele><time>2026-04-09T17:24:06Z</time></trkpt><trkpt lat="41.98160603483162" lon="12.367477177263549"><ele>130.0</ele><time>2026-04-09T17:24:07Z</time></trkpt><trkpt lat="41.98143734121267" lon="12.367434646560756"><ele>129.0</ele><time>2026-04-09T17:24:08Z</time></trkpt><trkpt lat="41.981262605657975" lon="12.367411556937059"><ele>128.0</ele><time>2026-04-09T17:24:09Z</time></trkpt><trkpt lat="41.98107190175574" lon="12.367418428813147"><ele>127.0</ele><time>2026-04-09T17:24:10Z</time></trkpt><trkpt lat="41.98087680464375" lon="12.367446918457675"><ele>126.33333333333334</ele><time>2026-04-09T17:24:11Z</time></trkpt><trkpt lat="41.980673142475425" lon="12.367490076944115"><ele>125.66666666666666</ele><time>2026-04-09T17:24:12Z</time></trkpt><trkpt lat="41.98046438646838" lon="12.36752710871129"><ele>125.0</ele><time>2026-04-09T17:24:13Z</time></trkpt><trkpt lat="41.9802526396314" lon="12.367553353724709"><ele>125.0</ele><time>2026-04-09T17:24:14Z</time></trkpt><trkpt lat="41.98003363432992" lon="12.36757591459563"><ele>125.0</ele><time>2026-04-09T17:24:15Z</time></trkpt><trkpt lat="41.97981127821483" lon="12.367591494204786"><ele>125.0</ele><time>2026-04-09T17:24:16Z</time></trkpt><trkpt lat="41.97958667451223" lon="12.367600351230719"><ele>123.66666666666666</ele><time>2026-04-09T17:24:17Z</time></trkpt><trkpt lat="41.97938422849146" lon="12.367611515977337"><ele>122.33333333333334</ele><time>2026-04-09T17:24:18Z</time></trkpt><trkpt lat="41.9791878490565" lon="12.367619578370297"><ele>121.0</ele><time>2026-04-09T17:24:18.999Z</time></trkpt><trkpt lat="41.978990035568565" lon="12.367623649068168"><ele>120.66666666666667</ele><time>2026-04-09T17:24:19.999Z</time></trkpt><trkpt lat="41.97880655903713" lon="12.367630148957911"><ele>120.33333333333334</ele><time>2026-04-09T17:24:20.999Z</time></trkpt><trkpt lat="41.978633504126904" lon="12.367640434556309"><ele>120.0</ele><time>2026-04-09T17:24:21.999Z</time></trkpt><trkpt lat="41.978456274970675" lon="12.367648032476703"><ele>119.33333333333334</ele><time>2026-04-09T17:24:22.999Z</time></trkpt><trkpt lat="41.97827755379736" lon="12.367644452313826"><ele>118.66666666666667</ele><time>2026-04-09T17:24:23.999Z</time></trkpt><trkpt lat="41.97809729133524" lon="12.367624077652112"><ele>118.0</ele><time>2026-04-09T17:24:24.999Z</time></trkpt><trkpt lat="41.977907050791096" lon="12.367582140120549"><ele>118.0</ele><time>2026-04-09T17:24:25.999Z</time></trkpt><trkpt lat="41.97771150405669" lon="12.36751787986762"><ele>118.0</ele><time>2026-04-09T17:24:26.999Z</time></trkpt><trkpt lat="41.9775106115945" lon="12.36744039960891"><ele>118.0</ele><time>2026-04-09T17:24:27.999Z</time></trkpt><trkpt lat="41.97729860831315" lon="12.367363266646956"><ele>117.0</ele><time>2026-04-09T17:24:28.999Z</time></trkpt><trkpt lat="41.97709579859513" lon="12.367290015481911"><ele>116.0</ele><time>2026-04-09T17:24:29.999Z</time></trkpt><trkpt lat="41.97691408009148" lon="12.367220881409805"><ele>115.0</ele><time>2026-04-09T17:24:30.999Z</time></trkpt><trkpt lat="41.97673385010306" lon="12.367155384274524"><ele>115.33333333333334</ele><time>2026-04-09T17:24:31.999Z</time></trkpt><trkpt lat="41.97655669382854" lon="12.367089880790914"><ele>115.66666666666666</ele><time>2026-04-09T17:24:32.999Z</time></trkpt><trkpt lat="41.97639522098733" lon="12.367029939342812"><ele>116.0</ele><time>2026-04-09T17:24:33.999Z</time></trkpt><trkpt lat="41.97623536026274" lon="12.366973590088662"><ele>116.0</ele><time>2026-04-09T17:24:34.999Z</time></trkpt><trkpt lat="41.97607709482125" lon="12.366917177477704"><ele>116.0</ele><time>2026-04-09T17:24:35.999Z</time></trkpt><trkpt lat="41.97592774423527" lon="12.366864836480934"><ele>116.0</ele><time>2026-04-09T17:24:36.999Z</time></trkpt><trkpt lat="41.97577996719153" lon="12.366812066567302"><ele>115.66666666666666</ele><time>2026-04-09T17:24:37.999Z</time></trkpt><trkpt lat="41.975625484907354" lon="12.366755692738513"><ele>115.33333333333334</ele><time>2026-04-09T17:24:38.999Z</time></trkpt><trkpt lat="41.97546181821901" lon="12.366727499549109"><ele>115.0</ele><time>2026-04-09T17:24:39.999Z</time></trkpt><trkpt lat="41.97528915723351" lon="12.366724549646221"><ele>115.0</ele><time>2026-04-09T17:24:40.999Z</time></trkpt><trkpt lat="41.97512013130248" lon="12.36674601877607"><ele>115.0</ele><time>2026-04-09T17:24:41.999Z</time></trkpt><trkpt lat="41.97495372495518" lon="12.366788532570148"><ele>115.0</ele><time>2026-04-09T17:24:42.999Z</time></trkpt><trkpt lat="41.9747847529518" lon="12.366854342341371"><ele>114.33333333333334</ele><time>2026-04-09T17:24:43.999Z</time></trkpt><trkpt lat="41.974610430289324" lon="12.366937321990054"><ele>113.66666666666666</ele><time>2026-04-09T17:24:44.999Z</time></trkpt><trkpt lat="41.97443082318276" lon="12.367022967342225"><ele>113.0</ele><time>2026-04-09T17:24:45.999Z</time></trkpt><trkpt lat="41.97425170829914" lon="12.367108823050625"><ele>113.0</ele><time>2026-04-09T17:24:46.999Z</time></trkpt><trkpt lat="41.97408579763664" lon="12.36718941449916"><ele>113.0</ele><time>2026-04-09T17:24:47.999Z</time></trkpt><trkpt lat="41.9739336383615" lon="12.367262711443598"><ele>113.0</ele><time>2026-04-09T17:24:48.999Z</time></trkpt><trkpt lat="41.973775070092934" lon="12.367340141438103"><ele>111.66666666666666</ele><time>2026-04-09T17:24:49.999Z</time></trkpt><trkpt lat="41.97361758033857" lon="12.367411445712765"><ele>110.33333333333334</ele><time>2026-04-09T17:24:50.999Z</time></trkpt><trkpt lat="41.97346646451226" lon="12.367481394428255"><ele>109.0</ele><time>2026-04-09T17:24:51.999Z</time></trkpt><trkpt lat="41.97332312520352" lon="12.367553531525276"><ele>109.0</ele><time>2026-04-09T17:24:52.999Z</time></trkpt><trkpt lat="41.973174078383245" lon="12.367625844996056"><ele>109.0</ele><time>2026-04-09T17:24:53.999Z</time></trkpt><trkpt lat="41.973019979863096" lon="12.367695123038908"><ele>109.0</ele><time>2026-04-09T17:24:54.999Z</time></trkpt><trkpt lat="41.97285304288587" lon="12.367704460678048"><ele>109.0</ele><time>2026-04-09T17:24:55.998Z</time></trkpt><trkpt lat="41.97268180283543" lon="12.367698815336508"><ele>109.0</ele><time>2026-04-09T17:24:56.998Z</time></trkpt><trkpt lat="41.97250403698499" lon="12.367680109166214"><ele>109.0</ele><time>2026-04-09T17:24:57.998Z</time></trkpt><trkpt lat="41.97233335865729" lon="12.367666136801935"><ele>109.33333333333334</ele><time>2026-04-09T17:24:58.998Z</time></trkpt><trkpt lat="41.97217413628241" lon="12.367601546456534"><ele>109.66666666666666</ele><time>2026-04-09T17:24:59.998Z</time></trkpt><trkpt lat="41.97203436079212" lon="12.367500620211972"><ele>110.0</ele><time>2026-04-09T17:25:00.998Z</time></trkpt><trkpt lat="41.971900906476684" lon="12.367374183763202"><ele>110.0</ele><time>2026-04-09T17:25:01.998Z</time></trkpt><trkpt lat="41.97175641408152" lon="12.36724941595792"><ele>110.0</ele><time>2026-04-09T17:25:02.998Z</time></trkpt><trkpt lat="41.97162657490819" lon="12.367093250641709"><ele>110.0</ele><time>2026-04-09T17:25:03.998Z</time></trkpt><trkpt lat="41.97149238570724" lon="12.366946512733584"><ele>110.33333333333333</ele><time>2026-04-09T17:25:04.998Z</time></trkpt><trkpt lat="41.971367934020755" lon="12.366819434505254"><ele>110.66666666666666</ele><time>2026-04-09T17:25:05.998Z</time></trkpt><trkpt lat="41.971235360246894" lon="12.36670673857587"><ele>111.0</ele><time>2026-04-09T17:25:06.998Z</time></trkpt><trkpt lat="41.97108793567371" lon="12.366607071074883"><ele>111.0</ele><time>2026-04-09T17:25:07.998Z</time></trkpt><trkpt lat="41.970922669747104" lon="12.366525705730167"><ele>111.0</ele><time>2026-04-09T17:25:08.998Z</time></trkpt><trkpt lat="41.97073871934222" lon="12.36645901245661"><ele>111.0</ele><time>2026-04-09T17:25:09.998Z</time></trkpt><trkpt lat="41.97056524733914" lon="12.366396831699074"><ele>112.33333333333334</ele><time>2026-04-09T17:25:10.998Z</time></trkpt><trkpt lat="41.97040270788972" lon="12.366340820026878"><ele>113.66666666666667</ele><time>2026-04-09T17:25:11.998Z</time></trkpt><trkpt lat="41.97024201605658" lon="12.366283284515232"><ele>115.0</ele><time>2026-04-09T17:25:12.998Z</time></trkpt><trkpt lat="41.97008207824248" lon="12.36622635247612"><ele>115.33333333333334</ele><time>2026-04-09T17:25:13.998Z</time></trkpt><trkpt lat="41.9699145128607" lon="12.366154467647062"><ele>115.66666666666666</ele><time>2026-04-09T17:25:14.998Z</time></trkpt><trkpt lat="41.96973934778565" lon="12.366087917035845"><ele>116.0</ele><time>2026-04-09T17:25:15.998Z</time></trkpt><trkpt lat="41.969578191943285" lon="12.366034310309383"><ele>116.0</ele><time>2026-04-09T17:25:16.998Z</time></trkpt><trkpt lat="41.969429546610165" lon="12.365976460735416"><ele>116.0</ele><time>2026-04-09T17:25:17.998Z</time></trkpt><trkpt lat="41.96928033463017" lon="12.36592087127542"><ele>116.0</ele><time>2026-04-09T17:25:18.998Z</time></trkpt><trkpt lat="41.96912946508456" lon="12.365865141028216"><ele>114.66666666666666</ele><time>2026-04-09T17:25:19.998Z</time></trkpt><trkpt lat="41.968977535843806" lon="12.365806514247359"><ele>113.33333333333334</ele><time>2026-04-09T17:25:20.998Z</time></trkpt><trkpt lat="41.96882144981151" lon="12.36574730136752"><ele>112.0</ele><time>2026-04-09T17:25:21.998Z</time></trkpt><trkpt lat="41.96866044673986" lon="12.365688705505141"><ele>112.0</ele><time>2026-04-09T17:25:22.998Z</time></trkpt><trkpt lat="41.96850370640427" lon="12.365630447999642"><ele>112.0</ele><time>2026-04-09T17:25:23.998Z</time></trkpt><trkpt lat="41.96836003249295" lon="12.365577450679"><ele>112.0</ele><time>2026-04-09T17:25:24.998Z</time></trkpt><trkpt lat="41.96821767488205" lon="12.36552190581179"><ele>111.33333333333334</ele><time>2026-04-09T17:25:25.998Z</time></trkpt><trkpt lat="41.968063995049185" lon="12.36546840195716"><ele>110.66666666666666</ele><time>2026-04-09T17:25:26.998Z</time></trkpt><trkpt lat="41.967897282163364" lon="12.365412874386486"><ele>110.0</ele><time>2026-04-09T17:25:27.998Z</time></trkpt><trkpt lat="41.96772207584758" lon="12.365347452992486"><ele>110.0</ele><time>2026-04-09T17:25:28.998Z</time></trkpt><trkpt lat="41.967545236839904" lon="12.365272840613681"><ele>110.0</ele><time>2026-04-09T17:25:29.998Z</time></trkpt><trkpt lat="41.967362838018694" lon="12.365205933539746"><ele>110.0</ele><time>2026-04-09T17:25:30.998Z</time></trkpt><trkpt lat="41.9671973853088" lon="12.365150837157419"><ele>109.0</ele><time>2026-04-09T17:25:31.998Z</time></trkpt><trkpt lat="41.967041178897915" lon="12.365094687020985"><ele>108.0</ele><time>2026-04-09T17:25:32.997Z</time></trkpt><trkpt lat="41.966879705505754" lon="12.36503175697456"><ele>107.0</ele><time>2026-04-09T17:25:33.997Z</time></trkpt><trkpt lat="41.966712278139376" lon="12.364966465139728"><ele>107.0</ele><time>2026-04-09T17:25:34.997Z</time></trkpt><trkpt lat="41.966539599631744" lon="12.364906461695965"><ele>107.0</ele><time>2026-04-09T17:25:35.997Z</time></trkpt><trkpt lat="41.966376770500844" lon="12.36484760857444"><ele>107.0</ele><time>2026-04-09T17:25:36.997Z</time></trkpt><trkpt lat="41.966226125487495" lon="12.364794107647322"><ele>107.0</ele><time>2026-04-09T17:25:37.997Z</time></trkpt><trkpt lat="41.966069696679256" lon="12.364739265165026"><ele>107.0</ele><time>2026-04-09T17:25:38.997Z</time></trkpt><trkpt lat="41.965907879013116" lon="12.364682021476769"><ele>107.0</ele><time>2026-04-09T17:25:39.997Z</time></trkpt><trkpt lat="41.965742996136605" lon="12.364615535527737"><ele>107.0</ele><time>2026-04-09T17:25:40.997Z</time></trkpt><trkpt lat="41.96557463704794" lon="12.364535028566525"><ele>107.0</ele><time>2026-04-09T17:25:41.997Z</time></trkpt><trkpt lat="41.96540684570123" lon="12.364431724149801"><ele>107.0</ele><time>2026-04-09T17:25:42.997Z</time></trkpt><trkpt lat="41.96523749475956" lon="12.364297153511453"><ele>107.0</ele><time>2026-04-09T17:25:43.997Z</time></trkpt><trkpt lat="41.96506831496167" lon="12.36415302898886"><ele>107.0</ele><time>2026-04-09T17:25:44.997Z</time></trkpt><trkpt lat="41.9649004788264" lon="12.364002330511394"><ele>107.0</ele><time>2026-04-09T17:25:45.997Z</time></trkpt><trkpt lat="41.96473560280464" lon="12.363852301755395"><ele>106.33333333333333</ele><time>2026-04-09T17:25:46.997Z</time></trkpt><trkpt lat="41.96457163845819" lon="12.363703453845437"><ele>105.66666666666666</ele><time>2026-04-09T17:25:47.997Z</time></trkpt><trkpt lat="41.96441434497856" lon="12.36356178181574"><ele>105.0</ele><time>2026-04-09T17:25:48.997Z</time></trkpt><trkpt lat="41.96425759008245" lon="12.363428739675497"><ele>104.66666666666666</ele><time>2026-04-09T17:25:49.997Z</time></trkpt><trkpt lat="41.964104469447534" lon="12.363288609382034"><ele>104.33333333333333</ele><time>2026-04-09T17:25:50.997Z</time></trkpt><trkpt lat="41.96395463064548" lon="12.363152694928408"><ele>104.0</ele><time>2026-04-09T17:25:51.997Z</time></trkpt><trkpt lat="41.9637996689715" lon="12.363021664642739"><ele>104.0</ele><time>2026-04-09T17:25:52.997Z</time></trkpt><trkpt lat="41.963647662657465" lon="12.362888672055115"><ele>104.0</ele><time>2026-04-09T17:25:53.997Z</time></trkpt><trkpt lat="41.963498421839844" lon="12.362753614578219"><ele>104.0</ele><time>2026-04-09T17:25:54.997Z</time></trkpt><trkpt lat="41.96334831655333" lon="12.362619030092858"><ele>104.0</ele><time>2026-04-09T17:25:55.997Z</time></trkpt><trkpt lat="41.963198058951306" lon="12.362485851886714"><ele>104.0</ele><time>2026-04-09T17:25:56.997Z</time></trkpt><trkpt lat="41.96304736980416" lon="12.362355077782821"><ele>104.0</ele><time>2026-04-09T17:25:57.997Z</time></trkpt><trkpt lat="41.96289369798245" lon="12.362223254329253"><ele>104.0</ele><time>2026-04-09T17:25:58.997Z</time></trkpt><trkpt lat="41.96274470586719" lon="12.362092704065349"><ele>104.0</ele><time>2026-04-09T17:26:00Z</time></trkpt><trkpt lat="41.962594934011435" lon="12.361956603640968"><ele>104.0</ele><time>2026-04-09T17:26:01Z</time></trkpt><trkpt lat="41.962455436217766" lon="12.361838207798183"><ele>103.66666666666666</ele><time>2026-04-09T17:26:02Z</time></trkpt><trkpt lat="41.96231948155989" lon="12.361715796958684"><ele>103.33333333333334</ele><time>2026-04-09T17:26:03Z</time></trkpt><trkpt lat="41.96218617401193" lon="12.361596024997421"><ele>103.0</ele><time>2026-04-09T17:26:04Z</time></trkpt><trkpt lat="41.9620441329121" lon="12.361482202952084"><ele>103.0</ele><time>2026-04-09T17:26:05Z</time></trkpt><trkpt lat="41.96189230767944" lon="12.36137547500647"><ele>103.0</ele><time>2026-04-09T17:26:06Z</time></trkpt><trkpt lat="41.96172734576598" lon="12.361284269022093"><ele>103.0</ele><time>2026-04-09T17:26:07Z</time></trkpt><trkpt lat="41.961549358980626" lon="12.361202016583757"><ele>102.66666666666667</ele><time>2026-04-09T17:26:08Z</time></trkpt><trkpt lat="41.96135708908008" lon="12.36113209301944"><ele>102.33333333333334</ele><time>2026-04-09T17:26:09Z</time></trkpt><trkpt lat="41.961161751670204" lon="12.361076460621772"><ele>102.0</ele><time>2026-04-09T17:26:10Z</time></trkpt><trkpt lat="41.96098147789224" lon="12.361021298355167"><ele>101.66666666666666</ele><time>2026-04-09T17:26:11Z</time></trkpt><trkpt lat="41.96079617966538" lon="12.36097045294463"><ele>101.33333333333333</ele><time>2026-04-09T17:26:12Z</time></trkpt><trkpt lat="41.96061406985122" lon="12.36094405127858"><ele>101.0</ele><time>2026-04-09T17:26:13Z</time></trkpt><trkpt lat="41.96043427336518" lon="12.360944708352593"><ele>101.0</ele><time>2026-04-09T17:26:14Z</time></trkpt><trkpt lat="41.9602479016228" lon="12.36093706384967"><ele>101.0</ele><time>2026-04-09T17:26:15Z</time></trkpt><trkpt lat="41.960076823633" lon="12.360963706360344"><ele>101.0</ele><time>2026-04-09T17:26:16Z</time></trkpt><trkpt lat="41.95991321546676" lon="12.360996306034645"><ele>101.66666666666666</ele><time>2026-04-09T17:26:17Z</time></trkpt><trkpt lat="41.95975402878262" lon="12.361019953788517"><ele>102.33333333333334</ele><time>2026-04-09T17:26:18Z</time></trkpt><trkpt lat="41.95958752356084" lon="12.361049446450918"><ele>103.0</ele><time>2026-04-09T17:26:19Z</time></trkpt><trkpt lat="41.95941424820765" lon="12.36103372297226"><ele>103.0</ele><time>2026-04-09T17:26:20Z</time></trkpt><trkpt lat="41.95923622245136" lon="12.36099323676604"><ele>103.0</ele><time>2026-04-09T17:26:21Z</time></trkpt><trkpt lat="41.95905670893935" lon="12.360927266429396"><ele>103.0</ele><time>2026-04-09T17:26:22Z</time></trkpt><trkpt lat="41.95888078605029" lon="12.360840935543315"><ele>102.66666666666667</ele><time>2026-04-09T17:26:23Z</time></trkpt><trkpt lat="41.958718706049474" lon="12.360755010246447"><ele>102.33333333333334</ele><time>2026-04-09T17:26:23.999Z</time></trkpt><trkpt lat="41.95856683634208" lon="12.360667855862681"><ele>102.0</ele><time>2026-04-09T17:26:24.999Z</time></trkpt><trkpt lat="41.95842672577085" lon="12.360590006697775"><ele>99.66666666666667</ele><time>2026-04-09T17:26:25.999Z</time></trkpt><trkpt lat="41.958294944447246" lon="12.360500083034614"><ele>97.33333333333334</ele><time>2026-04-09T17:26:26.999Z</time></trkpt><trkpt lat="41.958174233841355" lon="12.360382423102271"><ele>95.0</ele><time>2026-04-09T17:26:27.999Z</time></trkpt><trkpt lat="41.95806593710629" lon="12.360235233496162"><ele>95.0</ele><time>2026-04-09T17:26:28.999Z</time></trkpt><trkpt lat="41.95796602226545" lon="12.360065870434722"><ele>95.0</ele><time>2026-04-09T17:26:29.999Z</time></trkpt><trkpt lat="41.95786407366193" lon="12.359890102627208"><ele>95.0</ele><time>2026-04-09T17:26:30.999Z</time></trkpt><trkpt lat="41.95776854397646" lon="12.359726323837718"><ele>94.66666666666667</ele><time>2026-04-09T17:26:31.999Z</time></trkpt><trkpt lat="41.95767174904498" lon="12.359571985844429"><ele>94.33333333333333</ele><time>2026-04-09T17:26:32.999Z</time></trkpt><trkpt lat="41.957557844706436" lon="12.359437076109861"><ele>94.0</ele><time>2026-04-09T17:26:33.999Z</time></trkpt><trkpt lat="41.957423988062565" lon="12.359326363956962"><ele>94.66666666666666</ele><time>2026-04-09T17:26:34.999Z</time></trkpt><trkpt lat="41.95727226302999" lon="12.359239438452635"><ele>95.33333333333333</ele><time>2026-04-09T17:26:35.999Z</time></trkpt><trkpt lat="41.95712776198363" lon="12.359150669238174"><ele>96.0</ele><time>2026-04-09T17:26:36.999Z</time></trkpt><trkpt lat="41.956950367763696" lon="12.359098583525386"><ele>96.0</ele><time>2026-04-09T17:26:37.999Z</time></trkpt><trkpt lat="41.95676653451467" lon="12.359032923190814"><ele>96.0</ele><time>2026-04-09T17:26:38.999Z</time></trkpt><trkpt lat="41.95657479270138" lon="12.35897112882472"><ele>96.0</ele><time>2026-04-09T17:26:39.999Z</time></trkpt><trkpt lat="41.956380872925294" lon="12.358907785587474"><ele>95.0</ele><time>2026-04-09T17:26:40.999Z</time></trkpt><trkpt lat="41.956204677287964" lon="12.35884852297744"><ele>94.0</ele><time>2026-04-09T17:26:41.999Z</time></trkpt><trkpt lat="41.95602835373269" lon="12.358787520004428"><ele>93.0</ele><time>2026-04-09T17:26:42.999Z</time></trkpt><trkpt lat="41.95585091867367" lon="12.358721383509485"><ele>93.0</ele><time>2026-04-09T17:26:43.999Z</time></trkpt><trkpt lat="41.95566960532414" lon="12.35865261325785"><ele>93.0</ele><time>2026-04-09T17:26:44.999Z</time></trkpt><trkpt lat="41.95548978743206" lon="12.358594710370033"><ele>93.0</ele><time>2026-04-09T17:26:45.999Z</time></trkpt><trkpt lat="41.95533256106193" lon="12.358535723651515"><ele>93.0</ele><time>2026-04-09T17:26:46.999Z</time></trkpt><trkpt lat="41.955176546374396" lon="12.358476129492521"><ele>93.0</ele><time>2026-04-09T17:26:47.999Z</time></trkpt><trkpt lat="41.95501754383637" lon="12.358428478556602"><ele>93.0</ele><time>2026-04-09T17:26:48.999Z</time></trkpt><trkpt lat="41.95486120125133" lon="12.358384431043136"><ele>93.0</ele><time>2026-04-09T17:26:49.999Z</time></trkpt><trkpt lat="41.95472069884341" lon="12.358331712825779"><ele>93.0</ele><time>2026-04-09T17:26:50.999Z</time></trkpt><trkpt lat="41.95458191244357" lon="12.358272467554169"><ele>93.0</ele><time>2026-04-09T17:26:51.999Z</time></trkpt><trkpt lat="41.954440427887974" lon="12.358169635037237"><ele>93.0</ele><time>2026-04-09T17:26:52.999Z</time></trkpt><trkpt lat="41.95430215501311" lon="12.358052241131503"><ele>93.0</ele><time>2026-04-09T17:26:53.999Z</time></trkpt><trkpt lat="41.95416720009363" lon="12.357911736731324"><ele>93.0</ele><time>2026-04-09T17:26:54.999Z</time></trkpt><trkpt lat="41.95403498564523" lon="12.357759697161477"><ele>92.66666666666667</ele><time>2026-04-09T17:26:55.999Z</time></trkpt><trkpt lat="41.95390375540618" lon="12.357610053599682"><ele>92.33333333333334</ele><time>2026-04-09T17:26:56.999Z</time></trkpt><trkpt lat="41.953780913972615" lon="12.357490856881231"><ele>92.0</ele><time>2026-04-09T17:26:57.999Z</time></trkpt><trkpt lat="41.95367570307933" lon="12.357365122724625"><ele>92.0</ele><time>2026-04-09T17:26:58.999Z</time></trkpt><trkpt lat="41.95358440536816" lon="12.357258942390226"><ele>92.0</ele><time>2026-04-09T17:26:59.999Z</time></trkpt><trkpt lat="41.95349003459285" lon="12.357153411090406"><ele>92.0</ele><time>2026-04-09T17:27:00.998Z</time></trkpt><trkpt lat="41.953391839259275" lon="12.357042207504069"><ele>92.0</ele><time>2026-04-09T17:27:01.998Z</time></trkpt><trkpt lat="41.953277996882726" lon="12.356950048087004"><ele>91.33333333333334</ele><time>2026-04-09T17:27:02.998Z</time></trkpt><trkpt lat="41.95313495092043" lon="12.35689566487314"><ele>90.66666666666667</ele><time>2026-04-09T17:27:03.998Z</time></trkpt><trkpt lat="41.952981667143376" lon="12.356866184198562"><ele>90.0</ele><time>2026-04-09T17:27:04.998Z</time></trkpt><trkpt lat="41.952821197869916" lon="12.35685083921343"><ele>90.0</ele><time>2026-04-09T17:27:05.998Z</time></trkpt><trkpt lat="41.952657592256585" lon="12.356834198621264"><ele>90.0</ele><time>2026-04-09T17:27:06.998Z</time></trkpt><trkpt lat="41.95251638574777" lon="12.356819385877136"><ele>90.0</ele><time>2026-04-09T17:27:07.998Z</time></trkpt><trkpt lat="41.95238928622902" lon="12.35680275778462"><ele>90.0</ele><time>2026-04-09T17:27:08.998Z</time></trkpt><trkpt lat="41.95227164304859" lon="12.356784157459447"><ele>89.0</ele><time>2026-04-09T17:27:09.998Z</time></trkpt><trkpt lat="41.95215789673878" lon="12.356774192485595"><ele>88.0</ele><time>2026-04-09T17:27:10.998Z</time></trkpt><trkpt lat="41.95203698311004" lon="12.356760773147373"><ele>87.0</ele><time>2026-04-09T17:27:11.998Z</time></trkpt><trkpt lat="41.951916402633096" lon="12.356743843465667"><ele>86.0</ele><time>2026-04-09T17:27:12.998Z</time></trkpt><trkpt lat="41.951795950753656" lon="12.356731267448406"><ele>85.75</ele><time>2026-04-09T17:27:13.998Z</time></trkpt><trkpt lat="41.95166168571739" lon="12.356721284966019"><ele>85.5</ele><time>2026-04-09T17:27:14.998Z</time></trkpt><trkpt lat="41.951527758274054" lon="12.356694791810204"><ele>85.25</ele><time>2026-04-09T17:27:15.998Z</time></trkpt><trkpt lat="41.95139907883524" lon="12.356656969657896"><ele>85.0</ele><time>2026-04-09T17:27:16.998Z</time></trkpt><trkpt lat="41.95127914062449" lon="12.356594977301611"><ele>85.0</ele><time>2026-04-09T17:27:17.998Z</time></trkpt><trkpt lat="41.95115778734336" lon="12.356515352478382"><ele>85.0</ele><time>2026-04-09T17:27:18.998Z</time></trkpt><trkpt lat="41.951037711430786" lon="12.356409078157254"><ele>85.0</ele><time>2026-04-09T17:27:19.998Z</time></trkpt><trkpt lat="41.950920727871164" lon="12.356273828761902"><ele>85.0</ele><time>2026-04-09T17:27:20.998Z</time></trkpt><trkpt lat="41.95080121459723" lon="12.356131660134054"><ele>86.0</ele><time>2026-04-09T17:27:21.998Z</time></trkpt><trkpt lat="41.950689799566454" lon="12.356010865309292"><ele>87.0</ele><time>2026-04-09T17:27:22.998Z</time></trkpt><trkpt lat="41.950588319592306" lon="12.355898348649761"><ele>88.0</ele><time>2026-04-09T17:27:23.998Z</time></trkpt><trkpt lat="41.95048524303044" lon="12.35578964181222"><ele>89.0</ele><time>2026-04-09T17:27:24.998Z</time></trkpt><trkpt lat="41.95038115549453" lon="12.355673309808976"><ele>89.0</ele><time>2026-04-09T17:27:25.998Z</time></trkpt><trkpt lat="41.95027381724032" lon="12.355549099485836"><ele>89.0</ele><time>2026-04-09T17:27:26.998Z</time></trkpt><trkpt lat="41.950166104571835" lon="12.355421557039255"><ele>89.0</ele><time>2026-04-09T17:27:27.998Z</time></trkpt><trkpt lat="41.95005604274158" lon="12.355326029791868"><ele>89.0</ele><time>2026-04-09T17:27:28.998Z</time></trkpt><trkpt lat="41.94995502149997" lon="12.355239987775354"><ele>88.5</ele><time>2026-04-09T17:27:29.998Z</time></trkpt><trkpt lat="41.94985663035627" lon="12.355176650635839"><ele>88.0</ele><time>2026-04-09T17:27:30.998Z</time></trkpt><trkpt lat="41.949747027466074" lon="12.355131736764468"><ele>87.5</ele><time>2026-04-09T17:27:31.998Z</time></trkpt><trkpt lat="41.94963193804225" lon="12.355090742869752"><ele>87.0</ele><time>2026-04-09T17:27:32.998Z</time></trkpt><trkpt lat="41.949516304083936" lon="12.355047342482594"><ele>87.0</ele><time>2026-04-09T17:27:33.998Z</time></trkpt><trkpt lat="41.94938832940875" lon="12.355003888506783"><ele>87.0</ele><time>2026-04-09T17:27:34.998Z</time></trkpt><trkpt lat="41.94925170467189" lon="12.354930088233957"><ele>87.0</ele><time>2026-04-09T17:27:35.998Z</time></trkpt><trkpt lat="41.94909671165167" lon="12.354869903758258"><ele>87.0</ele><time>2026-04-09T17:27:36.998Z</time></trkpt><trkpt lat="41.94893934248182" lon="12.354814900275718"><ele>87.0</ele><time>2026-04-09T17:27:37.997Z</time></trkpt><trkpt lat="41.948803360290924" lon="12.354753461971494"><ele>87.0</ele><time>2026-04-09T17:27:38.997Z</time></trkpt><trkpt lat="41.94868130023855" lon="12.354713008590487"><ele>87.0</ele><time>2026-04-09T17:27:39.997Z</time></trkpt><trkpt lat="41.94856876438815" lon="12.354672167339537"><ele>87.0</ele><time>2026-04-09T17:27:40.997Z</time></trkpt><trkpt lat="41.948462906540534" lon="12.354633449054967"><ele>88.25</ele><time>2026-04-09T17:27:41.997Z</time></trkpt><trkpt lat="41.94834354956419" lon="12.354592503401483"><ele>89.5</ele><time>2026-04-09T17:27:42.997Z</time></trkpt><trkpt lat="41.94820991959174" lon="12.354551338849022"><ele>90.75</ele><time>2026-04-09T17:27:43.997Z</time></trkpt><trkpt lat="41.94806450691867" lon="12.354513236709678"><ele>92.0</ele><time>2026-04-09T17:27:44.997Z</time></trkpt><trkpt lat="41.947924748919256" lon="12.354476644503304"><ele>92.0</ele><time>2026-04-09T17:27:45.997Z</time></trkpt><trkpt lat="41.94780071721373" lon="12.35444379572029"><ele>92.0</ele><time>2026-04-09T17:27:46.997Z</time></trkpt><trkpt lat="41.94768318221761" lon="12.354410433885"><ele>92.0</ele><time>2026-04-09T17:27:47.997Z</time></trkpt><trkpt lat="41.94757387265458" lon="12.354374944421403"><ele>92.0</ele><time>2026-04-09T17:27:48.997Z</time></trkpt><trkpt lat="41.94747732784504" lon="12.354342039301123"><ele>91.5</ele><time>2026-04-09T17:27:49.997Z</time></trkpt><trkpt lat="41.94740306195263" lon="12.35431778766155"><ele>91.0</ele><time>2026-04-09T17:27:50.997Z</time></trkpt><trkpt lat="41.94730601369089" lon="12.354283679610994"><ele>90.5</ele><time>2026-04-09T17:27:52.997Z</time></trkpt><trkpt lat="41.94722275095202" lon="12.354266329967938"><ele>90.0</ele><time>2026-04-09T17:30:17Z</time></trkpt><trkpt lat="41.94712830456256" lon="12.354245364057428"><ele>89.5</ele><time>2026-04-09T17:30:19Z</time></trkpt><trkpt lat="41.9470447987655" lon="12.354222156786168"><ele>89.0</ele><time>2026-04-09T17:30:20Z</time></trkpt><trkpt lat="41.94695561882106" lon="12.354218677949751"><ele>89.0</ele><time>2026-04-09T17:30:21Z</time></trkpt><trkpt lat="41.94686842518888" lon="12.35417268926638"><ele>89.0</ele><time>2026-04-09T17:30:22Z</time></trkpt><trkpt lat="41.94677038798282" lon="12.354145028555424"><ele>89.0</ele><time>2026-04-09T17:30:23Z</time></trkpt><trkpt lat="41.94666740545674" lon="12.354115972545896"><ele>89.0</ele><time>2026-04-09T17:30:24Z</time></trkpt><trkpt lat="41.946555899627135" lon="12.354084335946117"><ele>89.0</ele><time>2026-04-09T17:30:25Z</time></trkpt><trkpt lat="41.94644428354562" lon="12.354052767607387"><ele>88.2</ele><time>2026-04-09T17:30:26Z</time></trkpt><trkpt lat="41.94633582954297" lon="12.354045222953745"><ele>87.4</ele><time>2026-04-09T17:30:27Z</time></trkpt><trkpt lat="41.94624211283604" lon="12.354014514109858"><ele>86.6</ele><time>2026-04-09T17:30:28Z</time></trkpt><trkpt lat="41.946151493085395" lon="12.353989296210369"><ele>85.8</ele><time>2026-04-09T17:30:29Z</time></trkpt><trkpt lat="41.9460575169611" lon="12.353964437817048"><ele>85.0</ele><time>2026-04-09T17:30:30Z</time></trkpt><trkpt lat="41.94596595645383" lon="12.353940776733387"><ele>85.0</ele><time>2026-04-09T17:30:31Z</time></trkpt><trkpt lat="41.94587565777937" lon="12.353917137158678"><ele>85.0</ele><time>2026-04-09T17:30:32Z</time></trkpt><trkpt lat="41.94578194984673" lon="12.353896009336646"><ele>85.0</ele><time>2026-04-09T17:30:33Z</time></trkpt><trkpt lat="41.94570205774553" lon="12.353858616017801"><ele>85.0</ele><time>2026-04-09T17:30:34Z</time></trkpt><trkpt lat="41.94562328315913" lon="12.35384371099866"><ele>85.0</ele><time>2026-04-09T17:30:34.999Z</time></trkpt><trkpt lat="41.94554768694882" lon="12.353829407368266"><ele>85.0</ele><time>2026-04-09T17:30:35.999Z</time></trkpt><trkpt lat="41.945476211707145" lon="12.35381588346544"><ele>85.0</ele><time>2026-04-09T17:30:36.999Z</time></trkpt><trkpt lat="41.945286092994394" lon="12.353789954850713"><ele>85.0</ele><time>2026-04-09T17:30:37.999Z</time></trkpt><trkpt lat="41.94517458444837" lon="12.353770387248979"><ele>85.0</ele><time>2026-04-09T17:30:38.999Z</time></trkpt><trkpt lat="41.94505953956945" lon="12.353749386727701"><ele>85.0</ele><time>2026-04-09T17:30:39.999Z</time></trkpt><trkpt lat="41.94494069524145" lon="12.35372043900962"><ele>83.25</ele><time>2026-04-09T17:30:40.999Z</time></trkpt><trkpt lat="41.94481551053641" lon="12.353676349573144"><ele>81.5</ele><time>2026-04-09T17:30:41.999Z</time></trkpt><trkpt lat="41.944689134781264" lon="12.353604558808128"><ele>79.75</ele><time>2026-04-09T17:30:42.999Z</time></trkpt><trkpt lat="41.94456422634045" lon="12.353512088551247"><ele>78.0</ele><time>2026-04-09T17:30:43.999Z</time></trkpt><trkpt lat="41.94444302029693" lon="12.353377026094082"><ele>78.0</ele><time>2026-04-09T17:30:44.999Z</time></trkpt><trkpt lat="41.944311636235085" lon="12.353249247230199"><ele>78.0</ele><time>2026-04-09T17:30:45.999Z</time></trkpt><trkpt lat="41.94416140970474" lon="12.353127467768635"><ele>78.0</ele><time>2026-04-09T17:30:46.999Z</time></trkpt><trkpt lat="41.944020717879646" lon="12.352983639600058"><ele>77.33333333333333</ele><time>2026-04-09T17:30:47.999Z</time></trkpt><trkpt lat="41.943872195077" lon="12.352838405252836"><ele>76.66666666666666</ele><time>2026-04-09T17:30:48.999Z</time></trkpt><trkpt lat="41.94371969701413" lon="12.352681517655755"><ele>76.0</ele><time>2026-04-09T17:30:49.999Z</time></trkpt><trkpt lat="41.94356267983757" lon="12.352524114399815"><ele>76.0</ele><time>2026-04-09T17:30:50.999Z</time></trkpt><trkpt lat="41.94341035773621" lon="12.352374044644767"><ele>76.0</ele><time>2026-04-09T17:30:51.999Z</time></trkpt><trkpt lat="41.94326997163721" lon="12.352231529055976"><ele>76.0</ele><time>2026-04-09T17:30:52.999Z</time></trkpt><trkpt lat="41.94312866255376" lon="12.352098024556831"><ele>75.66666666666666</ele><time>2026-04-09T17:30:53.999Z</time></trkpt><trkpt lat="41.942998159857936" lon="12.351969504358804"><ele>75.33333333333333</ele><time>2026-04-09T17:30:54.999Z</time></trkpt><trkpt lat="41.942868570834186" lon="12.351851556392912"><ele>75.0</ele><time>2026-04-09T17:30:55.999Z</time></trkpt><trkpt lat="41.942734613971545" lon="12.351729113405547"><ele>75.0</ele><time>2026-04-09T17:30:56.999Z</time></trkpt><trkpt lat="41.94259747740001" lon="12.351599589886627"><ele>75.0</ele><time>2026-04-09T17:30:57.999Z</time></trkpt><trkpt lat="41.94245895843736" lon="12.351465494675146"><ele>75.0</ele><time>2026-04-09T17:30:58.999Z</time></trkpt><trkpt lat="41.9423197379734" lon="12.351321425320554"><ele>72.33333333333333</ele><time>2026-04-09T17:30:59.999Z</time></trkpt><trkpt lat="41.94218194065967" lon="12.351156571884284"><ele>69.66666666666666</ele><time>2026-04-09T17:31:00.999Z</time></trkpt><trkpt lat="41.94206203406506" lon="12.351015575634687"><ele>67.0</ele><time>2026-04-09T17:31:01.999Z</time></trkpt><trkpt lat="41.94195175837551" lon="12.350876244913515"><ele>67.0</ele><time>2026-04-09T17:31:02.999Z</time></trkpt><trkpt lat="41.94184832708254" lon="12.350732155352691"><ele>67.0</ele><time>2026-04-09T17:31:03.999Z</time></trkpt><trkpt lat="41.94174007357863" lon="12.350575129950109"><ele>67.0</ele><time>2026-04-09T17:31:04.999Z</time></trkpt><trkpt lat="41.94162286781541" lon="12.350404023141271"><ele>63.33333333333333</ele><time>2026-04-09T17:31:05.999Z</time></trkpt><trkpt lat="41.941496122391406" lon="12.350218855340183"><ele>59.66666666666667</ele><time>2026-04-09T17:31:06.999Z</time></trkpt><trkpt lat="41.941361340883255" lon="12.350024359883797"><ele>56.0</ele><time>2026-04-09T17:31:07.999Z</time></trkpt><trkpt lat="41.9412197191124" lon="12.349815103648085"><ele>54.66666666666667</ele><time>2026-04-09T17:31:08.999Z</time></trkpt><trkpt lat="41.941067943781505" lon="12.349596619441849"><ele>53.33333333333333</ele><time>2026-04-09T17:31:09.999Z</time></trkpt><trkpt lat="41.940934917359954" lon="12.349392880730546"><ele>52.0</ele><time>2026-04-09T17:31:10.999Z</time></trkpt><trkpt lat="41.94080710975966" lon="12.349211251775966"><ele>51.666666666666664</ele><time>2026-04-09T17:31:11.998Z</time></trkpt><trkpt lat="41.94067616574119" lon="12.349034290820125"><ele>51.33333333333333</ele><time>2026-04-09T17:31:12.998Z</time></trkpt><trkpt lat="41.94055317697814" lon="12.348859218789542"><ele>51.0</ele><time>2026-04-09T17:31:13.998Z</time></trkpt><trkpt lat="41.94044159454047" lon="12.348697795063304"><ele>51.0</ele><time>2026-04-09T17:31:14.998Z</time></trkpt><trkpt lat="41.94034433389964" lon="12.348561221605951"><ele>51.0</ele><time>2026-04-09T17:31:15.998Z</time></trkpt><trkpt lat="41.940249433513266" lon="12.348442534032936"><ele>51.0</ele><time>2026-04-09T17:31:16.998Z</time></trkpt><trkpt lat="41.94014957365379" lon="12.348343403512626"><ele>51.0</ele><time>2026-04-09T17:31:17.998Z</time></trkpt><trkpt lat="41.94004705344883" lon="12.34826313971185"><ele>51.0</ele><time>2026-04-09T17:31:18.998Z</time></trkpt><trkpt lat="41.93993438523643" lon="12.348217780357478"><ele>51.0</ele><time>2026-04-09T17:31:19.998Z</time></trkpt><trkpt lat="41.93980040133018" lon="12.348208316850785"><ele>51.0</ele><time>2026-04-09T17:31:20.998Z</time></trkpt><trkpt lat="41.93965116819211" lon="12.34822077979907"><ele>51.0</ele><time>2026-04-09T17:31:21.998Z</time></trkpt><trkpt lat="41.93948847481162" lon="12.348244522911214"><ele>51.0</ele><time>2026-04-09T17:31:22.998Z</time></trkpt><trkpt lat="41.939316320674195" lon="12.348272373221292"><ele>51.0</ele><time>2026-04-09T17:31:23.998Z</time></trkpt><trkpt lat="41.939141866388596" lon="12.348293589990012"><ele>51.0</ele><time>2026-04-09T17:31:24.998Z</time></trkpt><trkpt lat="41.93896365770406" lon="12.348319145442524"><ele>50.33333333333333</ele><time>2026-04-09T17:31:25.998Z</time></trkpt><trkpt lat="41.938777878776776" lon="12.348340251262357"><ele>49.666666666666664</ele><time>2026-04-09T17:31:26.998Z</time></trkpt><trkpt lat="41.93858116551725" lon="12.34836233964468"><ele>49.0</ele><time>2026-04-09T17:31:27.998Z</time></trkpt><trkpt lat="41.938374820059884" lon="12.348389911959629"><ele>49.0</ele><time>2026-04-09T17:31:28.998Z</time></trkpt><trkpt lat="41.93817028549252" lon="12.348416234809243"><ele>49.0</ele><time>2026-04-09T17:31:29.998Z</time></trkpt><trkpt lat="41.93798490591043" lon="12.348439599709213"><ele>49.0</ele><time>2026-04-09T17:31:30.998Z</time></trkpt><trkpt lat="41.93780042854801" lon="12.348457542167413"><ele>49.0</ele><time>2026-04-09T17:31:31.998Z</time></trkpt><trkpt lat="41.937617842727825" lon="12.348470182329844"><ele>49.0</ele><time>2026-04-09T17:31:32.998Z</time></trkpt><trkpt lat="41.93745037749279" lon="12.348482314204343"><ele>49.0</ele><time>2026-04-09T17:31:33.998Z</time></trkpt><trkpt lat="41.93728264415827" lon="12.348503609172107"><ele>48.666666666666664</ele><time>2026-04-09T17:31:34.998Z</time></trkpt><trkpt lat="41.93710951904606" lon="12.348528416273654"><ele>48.33333333333333</ele><time>2026-04-09T17:31:35.998Z</time></trkpt><trkpt lat="41.936927018930916" lon="12.3485781053236"><ele>48.0</ele><time>2026-04-09T17:31:36.998Z</time></trkpt><trkpt lat="41.93674056247597" lon="12.348647925021186"><ele>47.666666666666664</ele><time>2026-04-09T17:31:37.998Z</time></trkpt><trkpt lat="41.936549416669045" lon="12.348738912028674"><ele>47.33333333333333</ele><time>2026-04-09T17:31:38.998Z</time></trkpt><trkpt lat="41.93635116864231" lon="12.348835561993582"><ele>47.0</ele><time>2026-04-09T17:31:39.998Z</time></trkpt><trkpt lat="41.93614331865932" lon="12.348935121453607"><ele>47.0</ele><time>2026-04-09T17:31:40.998Z</time></trkpt><trkpt lat="41.93593408837119" lon="12.349023470060501"><ele>47.0</ele><time>2026-04-09T17:31:41.998Z</time></trkpt><trkpt lat="41.93572843474347" lon="12.349113759276797"><ele>47.0</ele><time>2026-04-09T17:31:42.998Z</time></trkpt><trkpt lat="41.93552052349981" lon="12.349211600228012"><ele>46.666666666666664</ele><time>2026-04-09T17:31:43.998Z</time></trkpt><trkpt lat="41.93532383947948" lon="12.349301958738838"><ele>46.333333333333336</ele><time>2026-04-09T17:31:44.998Z</time></trkpt><trkpt lat="41.93514812861326" lon="12.349378454826319"><ele>46.0</ele><time>2026-04-09T17:31:45.998Z</time></trkpt><trkpt lat="41.93498363814996" lon="12.349456810240307"><ele>46.0</ele><time>2026-04-09T17:31:46.998Z</time></trkpt><trkpt lat="41.93481939238491" lon="12.34953503551127"><ele>46.0</ele><time>2026-04-09T17:31:47.997Z</time></trkpt><trkpt lat="41.934647347472726" lon="12.349613672261272"><ele>46.0</ele><time>2026-04-09T17:31:48.997Z</time></trkpt><trkpt lat="41.9344720075012" lon="12.349695258068836"><ele>46.0</ele><time>2026-04-09T17:31:49.997Z</time></trkpt><trkpt lat="41.93429468793499" lon="12.349780534271446"><ele>46.0</ele><time>2026-04-09T17:31:50.997Z</time></trkpt><trkpt lat="41.934109132193896" lon="12.349875975355008"><ele>46.0</ele><time>2026-04-09T17:31:51.997Z</time></trkpt><trkpt lat="41.93392156165221" lon="12.349974374632616"><ele>46.0</ele><time>2026-04-09T17:31:52.997Z</time></trkpt><trkpt lat="41.93372921764014" lon="12.350074458765848"><ele>46.0</ele><time>2026-04-09T17:31:53.997Z</time></trkpt><trkpt lat="41.933530787511124" lon="12.350170882736641"><ele>46.0</ele><time>2026-04-09T17:31:54.997Z</time></trkpt><trkpt lat="41.93333033796528" lon="12.350268965166007"><ele>46.0</ele><time>2026-04-09T17:31:55.997Z</time></trkpt><trkpt lat="41.93312945526169" lon="12.350368500244487"><ele>46.0</ele><time>2026-04-09T17:31:56.997Z</time></trkpt><trkpt lat="41.93292393238615" lon="12.350468156992752"><ele>46.0</ele><time>2026-04-09T17:31:57.997Z</time></trkpt><trkpt lat="41.93271439510943" lon="12.350572731472704"><ele>46.0</ele><time>2026-04-09T17:31:58.997Z</time></trkpt><trkpt lat="41.93252337729972" lon="12.350663027972294"><ele>46.0</ele><time>2026-04-09T17:31:59.997Z</time></trkpt><trkpt lat="41.932344333077026" lon="12.350751149023006"><ele>46.0</ele><time>2026-04-09T17:32:00.997Z</time></trkpt><trkpt lat="41.93218334563845" lon="12.350834480601318"><ele>46.0</ele><time>2026-04-09T17:32:01.997Z</time></trkpt><trkpt lat="41.932025708539896" lon="12.350916042029258"><ele>46.0</ele><time>2026-04-09T17:32:02.997Z</time></trkpt><trkpt lat="41.93186769106627" lon="12.350995624818657"><ele>46.0</ele><time>2026-04-09T17:32:03.997Z</time></trkpt><trkpt lat="41.9317028237926" lon="12.351072416804916"><ele>46.333333333333336</ele><time>2026-04-09T17:32:04.997Z</time></trkpt><trkpt lat="41.93153936302721" lon="12.35115322252007"><ele>46.666666666666664</ele><time>2026-04-09T17:32:05.997Z</time></trkpt><trkpt lat="41.93139132855075" lon="12.351229937900815"><ele>47.0</ele><time>2026-04-09T17:32:06.997Z</time></trkpt><trkpt lat="41.931251502524354" lon="12.351302466360607"><ele>47.0</ele><time>2026-04-09T17:32:07.997Z</time></trkpt><trkpt lat="41.93110812748459" lon="12.351368602535914"><ele>47.0</ele><time>2026-04-09T17:32:08.997Z</time></trkpt><trkpt lat="41.93095866894711" lon="12.351434472477639"><ele>47.0</ele><time>2026-04-09T17:32:09.997Z</time></trkpt><trkpt lat="41.93080966742754" lon="12.35151064616719"><ele>46.666666666666664</ele><time>2026-04-09T17:32:10.997Z</time></trkpt><trkpt lat="41.930655981539985" lon="12.35158402193715"><ele>46.333333333333336</ele><time>2026-04-09T17:32:11.997Z</time></trkpt><trkpt lat="41.93050327466874" lon="12.35166214768578"><ele>46.0</ele><time>2026-04-09T17:32:12.997Z</time></trkpt><trkpt lat="41.93034711998289" lon="12.351740954726784"><ele>46.0</ele><time>2026-04-09T17:32:13.997Z</time></trkpt><trkpt lat="41.930192247672245" lon="12.35181992999567"><ele>46.0</ele><time>2026-04-09T17:32:14.997Z</time></trkpt><trkpt lat="41.930043831756876" lon="12.35189050556212"><ele>46.0</ele><time>2026-04-09T17:32:15.997Z</time></trkpt><trkpt lat="41.929909870436845" lon="12.351960424448055"><ele>46.0</ele><time>2026-04-09T17:32:16.997Z</time></trkpt><trkpt lat="41.9297840726926" lon="12.352022524934792"><ele>46.0</ele><time>2026-04-09T17:32:18Z</time></trkpt><trkpt lat="41.929666147232595" lon="12.35208310840091"><ele>46.0</ele><time>2026-04-09T17:32:19Z</time></trkpt><trkpt lat="41.92954679293646" lon="12.352150877149748"><ele>46.0</ele><time>2026-04-09T17:32:20Z</time></trkpt><trkpt lat="41.92942375823842" lon="12.35222025296019"><ele>46.0</ele><time>2026-04-09T17:32:21Z</time></trkpt><trkpt lat="41.92930291030497" lon="12.352290516447058"><ele>46.0</ele><time>2026-04-09T17:32:22Z</time></trkpt><trkpt lat="41.92918051139907" lon="12.352364460413074"><ele>46.0</ele><time>2026-04-09T17:32:23Z</time></trkpt><trkpt lat="41.929059843296216" lon="12.352439989905148"><ele>46.0</ele><time>2026-04-09T17:32:24Z</time></trkpt><trkpt lat="41.92894638723831" lon="12.352515569790604"><ele>46.599999999999994</ele><time>2026-04-09T17:32:25Z</time></trkpt><trkpt lat="41.92884164985592" lon="12.352602879656501"><ele>47.2</ele><time>2026-04-09T17:32:26Z</time></trkpt><trkpt lat="41.92874469656694" lon="12.352682223283848"><ele>47.8</ele><time>2026-04-09T17:32:27Z</time></trkpt><trkpt lat="41.92865696463919" lon="12.352751260651072"><ele>48.400000000000006</ele><time>2026-04-09T17:32:28Z</time></trkpt><trkpt lat="41.928570463909814" lon="12.352816697634813"><ele>49.0</ele><time>2026-04-09T17:32:29Z</time></trkpt><trkpt lat="41.92848426463376" lon="12.352876659092544"><ele>48.99999999999999</ele><time>2026-04-09T17:32:30Z</time></trkpt><trkpt lat="41.92840913353862" lon="12.352932384843347"><ele>49.0</ele><time>2026-04-09T17:32:31Z</time></trkpt><trkpt lat="41.928344396006004" lon="12.352985519775496"><ele>49.0</ele><time>2026-04-09T17:32:32Z</time></trkpt><trkpt lat="41.92828588241273" lon="12.353034017127367"><ele>49.0</ele><time>2026-04-09T17:32:33Z</time></trkpt><trkpt lat="41.928195318668664" lon="12.35310284329821"><ele>48.99999999999999</ele><time>2026-04-09T17:32:35Z</time></trkpt><trkpt lat="41.9281174502198" lon="12.353169110574473"><ele>49.0</ele><time>2026-04-09T17:32:37Z</time></trkpt><trkpt lat="41.92804992560771" lon="12.353225504084714"><ele>49.0</ele><time>2026-04-09T17:32:40Z</time></trkpt><trkpt lat="41.92798994122634" lon="12.353295812734245"><ele>49.0</ele><time>2026-04-09T17:33:06.999Z</time></trkpt><trkpt lat="41.92801888290723" lon="12.353433038654984"><ele>49.0</ele><time>2026-04-09T17:33:08.999Z</time></trkpt><trkpt lat="41.92807139492506" lon="12.35351297737944"><ele>49.0</ele><time>2026-04-09T17:33:15.999Z</time></trkpt><trkpt lat="41.92811269189315" lon="12.353654800254834"><ele>49.0</ele><time>2026-04-09T17:33:17.998Z</time></trkpt><trkpt lat="41.92812599428389" lon="12.353781591236663"><ele>48.6</ele><time>2026-04-09T17:33:18.998Z</time></trkpt><trkpt lat="41.928158431479694" lon="12.353921052759196"><ele>48.2</ele><time>2026-04-09T17:33:19.998Z</time></trkpt><trkpt lat="41.92819063825473" lon="12.354029249512694"><ele>47.800000000000004</ele><time>2026-04-09T17:33:20.998Z</time></trkpt><trkpt lat="41.928213816573574" lon="12.354180226281793"><ele>47.400000000000006</ele><time>2026-04-09T17:33:21.998Z</time></trkpt><trkpt lat="41.92822717777692" lon="12.35434606845613"><ele>47.0</ele><time>2026-04-09T17:33:22.998Z</time></trkpt><trkpt lat="41.92823226562197" lon="12.354533259686876"><ele>46.666666666666664</ele><time>2026-04-09T17:33:23.998Z</time></trkpt><trkpt lat="41.92822400894321" lon="12.354731345324325"><ele>46.333333333333336</ele><time>2026-04-09T17:33:24.998Z</time></trkpt><trkpt lat="41.928229512846386" lon="12.35493342388473"><ele>46.0</ele><time>2026-04-09T17:33:25.998Z</time></trkpt><trkpt lat="41.92823080691347" lon="12.355147626106941"><ele>46.0</ele><time>2026-04-09T17:33:26.998Z</time></trkpt><trkpt lat="41.928227633360294" lon="12.355330635853162"><ele>46.0</ele><time>2026-04-09T17:33:27.998Z</time></trkpt><trkpt lat="41.92822632766104" lon="12.355504077172004"><ele>46.0</ele><time>2026-04-09T17:33:28.998Z</time></trkpt><trkpt lat="41.92822226587793" lon="12.355658111553954"><ele>46.0</ele><time>2026-04-09T17:33:29.998Z</time></trkpt><trkpt lat="41.92821874604406" lon="12.355806406808187"><ele>46.0</ele><time>2026-04-09T17:33:30.998Z</time></trkpt><trkpt lat="41.928218533664264" lon="12.355946304307926"><ele>46.0</ele><time>2026-04-09T17:33:31.998Z</time></trkpt><trkpt lat="41.92822132721277" lon="12.35607560004701"><ele>46.0</ele><time>2026-04-09T17:33:32.998Z</time></trkpt><trkpt lat="41.9282277952606" lon="12.356189646273323"><ele>46.0</ele><time>2026-04-09T17:33:33.998Z</time></trkpt><trkpt lat="41.928250848425286" lon="12.356297928129594"><ele>46.0</ele><time>2026-04-09T17:33:34.998Z</time></trkpt><trkpt lat="41.928284290448126" lon="12.356406811433299"><ele>46.75</ele><time>2026-04-09T17:33:35.998Z</time></trkpt><trkpt lat="41.92841376257815" lon="12.356576985033564"><ele>47.5</ele><time>2026-04-09T17:33:36.998Z</time></trkpt><trkpt lat="41.92850553747554" lon="12.356686581098147"><ele>48.25</ele><time>2026-04-09T17:33:37.998Z</time></trkpt><trkpt lat="41.92855608046678" lon="12.356796954645063"><ele>49.0</ele><time>2026-04-09T17:33:38.998Z</time></trkpt><trkpt lat="41.92857211632444" lon="12.356911603766896"><ele>49.0</ele><time>2026-04-09T17:33:39.998Z</time></trkpt><trkpt lat="41.928530651755594" lon="12.357030243655247"><ele>49.0</ele><time>2026-04-09T17:33:40.998Z</time></trkpt><trkpt lat="41.92848735913664" lon="12.357130410589683"><ele>49.0</ele><time>2026-04-09T17:33:41.998Z</time></trkpt><trkpt lat="41.92843033806251" lon="12.357244040625538"><ele>49.0</ele><time>2026-04-09T17:33:42.998Z</time></trkpt><trkpt lat="41.928355346428646" lon="12.357371788824981"><ele>49.0</ele><time>2026-04-09T17:33:43.998Z</time></trkpt><trkpt lat="41.92826856568385" lon="12.357508014901592"><ele>50.75</ele><time>2026-04-09T17:33:44.998Z</time></trkpt><trkpt lat="41.928178650981636" lon="12.357651438318541"><ele>52.5</ele><time>2026-04-09T17:33:45.998Z</time></trkpt><trkpt lat="41.92811015459856" lon="12.357828723147401"><ele>54.25</ele><time>2026-04-09T17:33:46.998Z</time></trkpt><trkpt lat="41.92803774149665" lon="12.357985707825103"><ele>56.0</ele><time>2026-04-09T17:33:47.998Z</time></trkpt><trkpt lat="41.927975394281205" lon="12.3581275684907"><ele>56.599999999999994</ele><time>2026-04-09T17:33:48.998Z</time></trkpt><trkpt lat="41.927922833929436" lon="12.358271860202109"><ele>57.199999999999996</ele><time>2026-04-09T17:33:49.998Z</time></trkpt><trkpt lat="41.92787208386306" lon="12.35840745156107"><ele>57.800000000000004</ele><time>2026-04-09T17:33:50.998Z</time></trkpt><trkpt lat="41.92782230268199" lon="12.358530864455165"><ele>58.400000000000006</ele><time>2026-04-09T17:33:51.998Z</time></trkpt><trkpt lat="41.92777674928322" lon="12.358618408743494"><ele>59.0</ele><time>2026-04-09T17:33:52.998Z</time></trkpt><trkpt lat="41.92773425344093" lon="12.358687047951797"><ele>59.00000000000001</ele><time>2026-04-09T17:33:53.997Z</time></trkpt><trkpt lat="41.927676697536846" lon="12.358749155304126"><ele>59.0</ele><time>2026-04-09T17:33:54.997Z</time></trkpt><trkpt lat="41.92760208375512" lon="12.358804032464786"><ele>59.0</ele><time>2026-04-09T17:33:55.997Z</time></trkpt><trkpt lat="41.92752021251714" lon="12.358833963611945"><ele>59.0</ele><time>2026-04-09T17:33:56.997Z</time></trkpt><trkpt lat="41.92742331969168" lon="12.358827446874606"><ele>59.00000000000001</ele><time>2026-04-09T17:33:57.997Z</time></trkpt><trkpt lat="41.92732015478218" lon="12.358791364658808"><ele>59.0</ele><time>2026-04-09T17:33:58.997Z</time></trkpt><trkpt lat="41.92723169140737" lon="12.358805292628281"><ele>59.16666666666667</ele><time>2026-04-09T17:33:59.997Z</time></trkpt><trkpt lat="41.927156959000534" lon="12.35883367311987"><ele>59.333333333333336</ele><time>2026-04-09T17:34:00.997Z</time></trkpt><trkpt lat="41.927087369777" lon="12.35888145812098"><ele>59.5</ele><time>2026-04-09T17:34:01.997Z</time></trkpt><trkpt lat="41.92702107690342" lon="12.358940917082283"><ele>59.66666666666667</ele><time>2026-04-09T17:34:02.997Z</time></trkpt><trkpt lat="41.926957640365806" lon="12.359002394546291"><ele>59.833333333333336</ele><time>2026-04-09T17:34:03.997Z</time></trkpt><trkpt lat="41.9268914061233" lon="12.359063509325935"><ele>60.0</ele><time>2026-04-09T17:34:04.997Z</time></trkpt><trkpt lat="41.926823352519314" lon="12.359120176698088"><ele>60.0</ele><time>2026-04-09T17:34:05.997Z</time></trkpt><trkpt lat="41.92674848081175" lon="12.359176656774585"><ele>60.0</ele><time>2026-04-09T17:34:06.997Z</time></trkpt><trkpt lat="41.926672863603784" lon="12.35923090744663"><ele>60.0</ele><time>2026-04-09T17:34:07.997Z</time></trkpt><trkpt lat="41.926594939786526" lon="12.359292383981492"><ele>60.0</ele><time>2026-04-09T17:34:08.997Z</time></trkpt><trkpt lat="41.92651190632751" lon="12.359356695026529"><ele>60.0</ele><time>2026-04-09T17:34:09.997Z</time></trkpt><trkpt lat="41.926426374506846" lon="12.359426059051264"><ele>60.0</ele><time>2026-04-09T17:34:10.997Z</time></trkpt><trkpt lat="41.92634645697905" lon="12.359507434237724"><ele>60.0</ele><time>2026-04-09T17:34:11.997Z</time></trkpt><trkpt lat="41.92627648413286" lon="12.359604394811722"><ele>60.0</ele><time>2026-04-09T17:34:12.997Z</time></trkpt><trkpt lat="41.926209808575614" lon="12.359708945882694"><ele>60.0</ele><time>2026-04-09T17:34:13.997Z</time></trkpt><trkpt lat="41.92614555725571" lon="12.359816115041575"><ele>60.0</ele><time>2026-04-09T17:34:14.997Z</time></trkpt><trkpt lat="41.92608421834993" lon="12.359930179089739"><ele>59.666666666666664</ele><time>2026-04-09T17:34:15.997Z</time></trkpt><trkpt lat="41.92603613085638" lon="12.360036095408148"><ele>59.33333333333333</ele><time>2026-04-09T17:34:16.997Z</time></trkpt><trkpt lat="41.925996124235695" lon="12.360137605022283"><ele>59.0</ele><time>2026-04-09T17:34:17.997Z</time></trkpt><trkpt lat="41.92595584005528" lon="12.360242145504929"><ele>58.666666666666664</ele><time>2026-04-09T17:34:18.997Z</time></trkpt><trkpt lat="41.92591837445734" lon="12.360352750688264"><ele>58.33333333333333</ele><time>2026-04-09T17:34:19.997Z</time></trkpt><trkpt lat="41.925887416443594" lon="12.360459745344246"><ele>58.0</ele><time>2026-04-09T17:34:20.997Z</time></trkpt><trkpt lat="41.9258548112692" lon="12.360558346001602"><ele>57.83333333333333</ele><time>2026-04-09T17:34:21.997Z</time></trkpt><trkpt lat="41.925831804573626" lon="12.360659838300457"><ele>57.666666666666664</ele><time>2026-04-09T17:34:22.997Z</time></trkpt><trkpt lat="41.92581053854289" lon="12.360769207056384"><ele>57.5</ele><time>2026-04-09T17:34:24Z</time></trkpt><trkpt lat="41.925785421771" lon="12.36087053455663"><ele>57.33333333333333</ele><time>2026-04-09T17:34:25Z</time></trkpt><trkpt lat="41.92576871033958" lon="12.360985181376526"><ele>57.166666666666664</ele><time>2026-04-09T17:34:26Z</time></trkpt><trkpt lat="41.925751560221876" lon="12.361091006543708"><ele>57.0</ele><time>2026-04-09T17:34:27Z</time></trkpt><trkpt lat="41.92571509009397" lon="12.361190182089532"><ele>57.0</ele><time>2026-04-09T17:34:28Z</time></trkpt><trkpt lat="41.92571053483233" lon="12.361295599931443"><ele>56.99999999999999</ele><time>2026-04-09T17:34:29Z</time></trkpt><trkpt lat="41.925691315797174" lon="12.361378610610775"><ele>57.0</ele><time>2026-04-09T17:34:30Z</time></trkpt><trkpt lat="41.925671577698516" lon="12.36146769723028"><ele>57.0</ele><time>2026-04-09T17:34:31Z</time></trkpt><trkpt lat="41.92564577238842" lon="12.361559887484391"><ele>56.99999999999999</ele><time>2026-04-09T17:34:32Z</time></trkpt><trkpt lat="41.92561968808048" lon="12.361640476753943"><ele>57.0</ele><time>2026-04-09T17:34:33Z</time></trkpt><trkpt lat="41.925595467039535" lon="12.361730256529052"><ele>57.0</ele><time>2026-04-09T17:34:34Z</time></trkpt><trkpt lat="41.9255660605597" lon="12.361816934646027"><ele>56.666666666666664</ele><time>2026-04-09T17:34:35Z</time></trkpt><trkpt lat="41.925536895300795" lon="12.361924619128066"><ele>56.33333333333333</ele><time>2026-04-09T17:34:37Z</time></trkpt><trkpt lat="41.92549405377335" lon="12.362012354494812"><ele>56.0</ele><time>2026-04-09T17:34:41Z</time></trkpt><trkpt lat="41.92547023686399" lon="12.36209196257181"><ele>55.666666666666664</ele><time>2026-04-09T17:34:42Z</time></trkpt><trkpt lat="41.925436883232905" lon="12.362204029931101"><ele>55.33333333333333</ele><time>2026-04-09T17:34:43Z</time></trkpt><trkpt lat="41.925402433330284" lon="12.362330153569713"><ele>55.0</ele><time>2026-04-09T17:34:44Z</time></trkpt><trkpt lat="41.92537711816182" lon="12.362428202067326"><ele>54.99999999999999</ele><time>2026-04-09T17:34:44.999Z</time></trkpt><trkpt lat="41.92535180776702" lon="12.36252623244738"><ele>55.0</ele><time>2026-04-09T17:34:45.999Z</time></trkpt><trkpt lat="41.92532938711089" lon="12.362625389184972"><ele>55.0</ele><time>2026-04-09T17:34:46.999Z</time></trkpt><trkpt lat="41.92530950959325" lon="12.36271870720103"><ele>55.0</ele><time>2026-04-09T17:34:47.999Z</time></trkpt><trkpt lat="41.92529436682256" lon="12.362812389335053"><ele>55.0</ele><time>2026-04-09T17:34:48.999Z</time></trkpt><trkpt lat="41.925284984370236" lon="12.362905767440703"><ele>54.99999999999999</ele><time>2026-04-09T17:34:49.999Z</time></trkpt><trkpt lat="41.925275468530636" lon="12.362999419716662"><ele>55.0</ele><time>2026-04-09T17:34:50.999Z</time></trkpt><trkpt lat="41.92528061285051" lon="12.363092523319386"><ele>54.99999999999999</ele><time>2026-04-09T17:34:51.999Z</time></trkpt><trkpt lat="41.925270021682195" lon="12.363193758926517"><ele>55.0</ele><time>2026-04-09T17:34:52.999Z</time></trkpt><trkpt lat="41.92525331844583" lon="12.363311815757003"><ele>55.0</ele><time>2026-04-09T17:34:53.999Z</time></trkpt><trkpt lat="41.92524088259706" lon="12.363439031935997"><ele>55.0</ele><time>2026-04-09T17:34:54.999Z</time></trkpt><trkpt lat="41.925219418295256" lon="12.363569832340957"><ele>54.99999999999999</ele><time>2026-04-09T17:34:55.999Z</time></trkpt><trkpt lat="41.92520556823935" lon="12.363683992833485"><ele>55.0</ele><time>2026-04-09T17:34:56.999Z</time></trkpt><trkpt lat="41.92518081960351" lon="12.363793766027834"><ele>56.4</ele><time>2026-04-09T17:34:57.999Z</time></trkpt><trkpt lat="41.925131570410784" lon="12.363894287259823"><ele>57.8</ele><time>2026-04-09T17:34:58.999Z</time></trkpt><trkpt lat="41.92508583093166" lon="12.363998207778426"><ele>59.2</ele><time>2026-04-09T17:34:59.999Z</time></trkpt><trkpt lat="41.925035575966014" lon="12.364107043302168"><ele>60.6</ele><time>2026-04-09T17:35:00.999Z</time></trkpt><trkpt lat="41.92497506356435" lon="12.364208765970881"><ele>62.0</ele><time>2026-04-09T17:35:01.999Z</time></trkpt><trkpt lat="41.924910394952846" lon="12.364307352097814"><ele>62.6</ele><time>2026-04-09T17:35:02.999Z</time></trkpt><trkpt lat="41.9248374830754" lon="12.364405794901755"><ele>63.2</ele><time>2026-04-09T17:35:03.999Z</time></trkpt><trkpt lat="41.92475496142755" lon="12.364499490589571"><ele>63.8</ele><time>2026-04-09T17:35:04.999Z</time></trkpt><trkpt lat="41.92468646430506" lon="12.36458079521501"><ele>64.4</ele><time>2026-04-09T17:35:05.999Z</time></trkpt><trkpt lat="41.92461915834073" lon="12.364660511680853"><ele>65.0</ele><time>2026-04-09T17:35:06.999Z</time></trkpt><trkpt lat="41.92455799362052" lon="12.364757930916994"><ele>66.2</ele><time>2026-04-09T17:35:07.999Z</time></trkpt><trkpt lat="41.92449493254568" lon="12.36484823130264"><ele>67.4</ele><time>2026-04-09T17:35:08.999Z</time></trkpt><trkpt lat="41.92444636172503" lon="12.36494760138683"><ele>68.6</ele><time>2026-04-09T17:35:09.999Z</time></trkpt><trkpt lat="41.9244131243834" lon="12.365057650980484"><ele>69.8</ele><time>2026-04-09T17:35:10.999Z</time></trkpt><trkpt lat="41.924403970335675" lon="12.365175950472054"><ele>71.0</ele><time>2026-04-09T17:35:11.999Z</time></trkpt><trkpt lat="41.92439654430672" lon="12.365302028911001"><ele>71.0</ele><time>2026-04-09T17:35:12.999Z</time></trkpt><trkpt lat="41.924398548975674" lon="12.365425608698976"><ele>71.0</ele><time>2026-04-09T17:35:13.999Z</time></trkpt><trkpt lat="41.924399229769655" lon="12.365554485800429"><ele>71.0</ele><time>2026-04-09T17:35:14.999Z</time></trkpt><trkpt lat="41.92438888652279" lon="12.365681097142282"><ele>71.0</ele><time>2026-04-09T17:35:15.999Z</time></trkpt><trkpt lat="41.92437103013477" lon="12.365798619926132"><ele>71.0</ele><time>2026-04-09T17:35:16.999Z</time></trkpt><trkpt lat="41.924349577833226" lon="12.365908588939979"><ele>71.42857142857143</ele><time>2026-04-09T17:35:17.999Z</time></trkpt><trkpt lat="41.924326059265745" lon="12.365998927350969"><ele>71.85714285714285</ele><time>2026-04-09T17:35:18.999Z</time></trkpt><trkpt lat="41.92429681642095" lon="12.366092390122487"><ele>72.28571428571428</ele><time>2026-04-09T17:35:19.999Z</time></trkpt><trkpt lat="41.924261345972525" lon="12.3661857138439"><ele>72.71428571428571</ele><time>2026-04-09T17:35:20.999Z</time></trkpt><trkpt lat="41.92423966412209" lon="12.366279225161563"><ele>73.14285714285714</ele><time>2026-04-09T17:35:21.998Z</time></trkpt><trkpt lat="41.92419932246228" lon="12.366358597292948"><ele>73.57142857142857</ele><time>2026-04-09T17:35:22.998Z</time></trkpt><trkpt lat="41.92414524162995" lon="12.366437054784166"><ele>74.0</ele><time>2026-04-09T17:35:23.998Z</time></trkpt><trkpt lat="41.92410811536035" lon="12.366537477786347"><ele>72.60000000000001</ele><time>2026-04-09T17:35:24.998Z</time></trkpt><trkpt lat="41.92404050669367" lon="12.36662203779033"><ele>71.2</ele><time>2026-04-09T17:35:25.998Z</time></trkpt><trkpt lat="41.923988664599996" lon="12.36673458807915"><ele>69.80000000000001</ele><time>2026-04-09T17:35:26.998Z</time></trkpt><trkpt lat="41.92391718555779" lon="12.366813491275403"><ele>68.4</ele><time>2026-04-09T17:35:27.998Z</time></trkpt><trkpt lat="41.92385662856383" lon="12.366903567129159"><ele>67.0</ele><time>2026-04-09T17:35:28.998Z</time></trkpt><trkpt lat="41.92380492034629" lon="12.367002128980829"><ele>67.0</ele><time>2026-04-09T17:35:29.998Z</time></trkpt><trkpt lat="41.92374276703374" lon="12.367078743017647"><ele>67.0</ele><time>2026-04-09T17:35:30.998Z</time></trkpt><trkpt lat="41.92369136364875" lon="12.367142780005468"><ele>67.0</ele><time>2026-04-09T17:35:31.998Z</time></trkpt><trkpt lat="41.92364443723366" lon="12.367200811381993"><ele>67.0</ele><time>2026-04-09T17:35:32.998Z</time></trkpt><trkpt lat="41.92359154609063" lon="12.367265962047155"><ele>67.0</ele><time>2026-04-09T17:35:33.998Z</time></trkpt><trkpt lat="41.92353289322482" lon="12.367337925098955"><ele>67.0</ele><time>2026-04-09T17:35:34.998Z</time></trkpt><trkpt lat="41.92346700723361" lon="12.367410674124956"><ele>67.4</ele><time>2026-04-09T17:35:35.998Z</time></trkpt><trkpt lat="41.92339767813638" lon="12.367483305393256"><ele>67.80000000000001</ele><time>2026-04-09T17:35:36.998Z</time></trkpt><trkpt lat="41.92333765761101" lon="12.367583487629636"><ele>68.2</ele><time>2026-04-09T17:35:37.998Z</time></trkpt><trkpt lat="41.92327959775165" lon="12.367698879260468"><ele>68.60000000000001</ele><time>2026-04-09T17:35:38.998Z</time></trkpt><trkpt lat="41.92321790999515" lon="12.367830114229365"><ele>69.0</ele><time>2026-04-09T17:35:39.998Z</time></trkpt><trkpt lat="41.92315255090403" lon="12.367976389418901"><ele>67.25</ele><time>2026-04-09T17:35:40.998Z</time></trkpt><trkpt lat="41.9230856093759" lon="12.368118299798118"><ele>65.5</ele><time>2026-04-09T17:35:41.998Z</time></trkpt><trkpt lat="41.92301276550129" lon="12.368261855242249"><ele>63.75</ele><time>2026-04-09T17:35:42.998Z</time></trkpt><trkpt lat="41.92294424901524" lon="12.36842094689223"><ele>62.0</ele><time>2026-04-09T17:35:43.998Z</time></trkpt><trkpt lat="41.92288156959262" lon="12.368590099606939"><ele>62.0</ele><time>2026-04-09T17:35:44.998Z</time></trkpt><trkpt lat="41.92282681626995" lon="12.368746376492272"><ele>62.0</ele><time>2026-04-09T17:35:45.998Z</time></trkpt><trkpt lat="41.922770542852646" lon="12.368895615622979"><ele>62.0</ele><time>2026-04-09T17:35:46.998Z</time></trkpt><trkpt lat="41.922718701804826" lon="12.36905370848699"><ele>62.0</ele><time>2026-04-09T17:35:47.998Z</time></trkpt><trkpt lat="41.92266500107003" lon="12.369220256841873"><ele>63.0</ele><time>2026-04-09T17:35:48.998Z</time></trkpt><trkpt lat="41.92262142178771" lon="12.36936966372438"><ele>64.0</ele><time>2026-04-09T17:35:49.998Z</time></trkpt><trkpt lat="41.922580757226946" lon="12.369500778304598"><ele>65.0</ele><time>2026-04-09T17:35:50.998Z</time></trkpt><trkpt lat="41.92254677034779" lon="12.369611408664499"><ele>66.0</ele><time>2026-04-09T17:35:51.998Z</time></trkpt><trkpt lat="41.922510577116846" lon="12.36970204806568"><ele>67.0</ele><time>2026-04-09T17:35:52.998Z</time></trkpt><trkpt lat="41.922487628998745" lon="12.369796435626366"><ele>67.8</ele><time>2026-04-09T17:35:53.998Z</time></trkpt><trkpt lat="41.922478568597" lon="12.369913377936184"><ele>68.6</ele><time>2026-04-09T17:35:54.998Z</time></trkpt><trkpt lat="41.922444159397045" lon="12.370022193031476"><ele>69.39999999999999</ele><time>2026-04-09T17:35:55.998Z</time></trkpt><trkpt lat="41.92242551870671" lon="12.370145772791762"><ele>70.2</ele><time>2026-04-09T17:35:56.998Z</time></trkpt><trkpt lat="41.92240745464875" lon="12.370270196891704"><ele>71.0</ele><time>2026-04-09T17:35:57.998Z</time></trkpt><trkpt lat="41.92239239425192" lon="12.370384540249344"><ele>71.0</ele><time>2026-04-09T17:35:58.997Z</time></trkpt><trkpt lat="41.922381114257455" lon="12.370472394264787"><ele>71.0</ele><time>2026-04-09T17:35:59.997Z</time></trkpt><trkpt lat="41.92236168657913" lon="12.370628559186825"><ele>71.0</ele><time>2026-04-09T17:36:01.997Z</time></trkpt><trkpt lat="41.9223363288305" lon="12.370788572771474"><ele>71.0</ele><time>2026-04-09T17:36:03.997Z</time></trkpt><trkpt lat="41.92231305160203" lon="12.370874517106596"><ele>71.0</ele><time>2026-04-09T17:36:04.997Z</time></trkpt><trkpt lat="41.922284442228914" lon="12.370969386460263"><ele>70.8</ele><time>2026-04-09T17:36:05.997Z</time></trkpt><trkpt lat="41.92224559504755" lon="12.371077306169179"><ele>70.6</ele><time>2026-04-09T17:36:06.997Z</time></trkpt><trkpt lat="41.92220531664331" lon="12.371201987507442"><ele>70.4</ele><time>2026-04-09T17:36:07.997Z</time></trkpt><trkpt lat="41.92214301108107" lon="12.371329973897845"><ele>70.2</ele><time>2026-04-09T17:36:08.997Z</time></trkpt><trkpt lat="41.92207015136594" lon="12.371453521082266"><ele>70.0</ele><time>2026-04-09T17:36:09.997Z</time></trkpt><trkpt lat="41.92201579888447" lon="12.371586939570545"><ele>70.75</ele><time>2026-04-09T17:36:10.997Z</time></trkpt><trkpt lat="41.92195456581042" lon="12.371704063930505"><ele>71.5</ele><time>2026-04-09T17:36:11.997Z</time></trkpt><trkpt lat="41.92189124691073" lon="12.371825911815103"><ele>72.25</ele><time>2026-04-09T17:36:12.997Z</time></trkpt><trkpt lat="41.92183864098055" lon="12.37195279369371"><ele>73.0</ele><time>2026-04-09T17:36:13.997Z</time></trkpt><trkpt lat="41.921772132533434" lon="12.372102376299749"><ele>74.0</ele><time>2026-04-09T17:36:14.997Z</time></trkpt><trkpt lat="41.921743873265235" lon="12.372244104637746"><ele>75.0</ele><time>2026-04-09T17:36:15.997Z</time></trkpt><trkpt lat="41.9217587163551" lon="12.372381330541604"><ele>76.0</ele><time>2026-04-09T17:36:16.997Z</time></trkpt><trkpt lat="41.9217875605275" lon="12.372521087915574"><ele>77.0</ele><time>2026-04-09T17:36:17.997Z</time></trkpt><trkpt lat="41.92184965120103" lon="12.372657210227262"><ele>78.0</ele><time>2026-04-09T17:36:18.997Z</time></trkpt><trkpt lat="41.92192018357868" lon="12.37278989742892"><ele>78.0</ele><time>2026-04-09T17:36:19.997Z</time></trkpt><trkpt lat="41.92199308588799" lon="12.372916021946873"><ele>78.0</ele><time>2026-04-09T17:36:20.997Z</time></trkpt><trkpt lat="41.92205477663449" lon="12.373031473368188"><ele>78.0</ele><time>2026-04-09T17:36:21.997Z</time></trkpt><trkpt lat="41.92211035838293" lon="12.373164504994431"><ele>78.0</ele><time>2026-04-09T17:36:22.997Z</time></trkpt><trkpt lat="41.9221462331625" lon="12.373319826180776"><ele>79.5</ele><time>2026-04-09T17:36:23.997Z</time></trkpt><trkpt lat="41.922168826150106" lon="12.373487758878086"><ele>81.0</ele><time>2026-04-09T17:36:24.997Z</time></trkpt><trkpt lat="41.92218106733939" lon="12.373663029484826"><ele>82.5</ele><time>2026-04-09T17:36:25.997Z</time></trkpt><trkpt lat="41.922172550157285" lon="12.373808230337152"><ele>84.0</ele><time>2026-04-09T17:36:26.997Z</time></trkpt><trkpt lat="41.92216444352796" lon="12.373945161019037"><ele>84.5</ele><time>2026-04-09T17:36:27.997Z</time></trkpt><trkpt lat="41.922150635045924" lon="12.374102607279948"><ele>85.0</ele><time>2026-04-09T17:36:28.997Z</time></trkpt><trkpt lat="41.922134011134325" lon="12.37424749794962"><ele>85.5</ele><time>2026-04-09T17:36:30Z</time></trkpt><trkpt lat="41.92207887407942" lon="12.374387465769198"><ele>86.0</ele><time>2026-04-09T17:36:31Z</time></trkpt><trkpt lat="41.92204394016603" lon="12.374531292875302"><ele>86.0</ele><time>2026-04-09T17:36:32Z</time></trkpt><trkpt lat="41.92198089238785" lon="12.374649257874363"><ele>86.0</ele><time>2026-04-09T17:36:33Z</time></trkpt><trkpt lat="41.921913649597585" lon="12.374759043438477"><ele>86.0</ele><time>2026-04-09T17:36:34Z</time></trkpt><trkpt lat="41.921857449528275" lon="12.374854946397774"><ele>86.0</ele><time>2026-04-09T17:36:35Z</time></trkpt><trkpt lat="41.921793479933164" lon="12.374954304374285"><ele>86.0</ele><time>2026-04-09T17:36:36Z</time></trkpt><trkpt lat="41.92175395301469" lon="12.375073096039824"><ele>85.0</ele><time>2026-04-09T17:36:37Z</time></trkpt><trkpt lat="41.92170165390174" lon="12.375165567954692"><ele>84.0</ele><time>2026-04-09T17:36:38Z</time></trkpt><trkpt lat="41.92167939377933" lon="12.375274959232167"><ele>83.0</ele><time>2026-04-09T17:36:39Z</time></trkpt><trkpt lat="41.92166107719612" lon="12.375388865020103"><ele>82.0</ele><time>2026-04-09T17:36:40Z</time></trkpt><trkpt lat="41.92160574007143" lon="12.375495516621205"><ele>81.0</ele><time>2026-04-09T17:36:41Z</time></trkpt><trkpt lat="41.92154905900063" lon="12.375596047821565"><ele>80.0</ele><time>2026-04-09T17:36:42Z</time></trkpt><trkpt lat="41.92146945210482" lon="12.375678359812802"><ele>80.0</ele><time>2026-04-09T17:36:43Z</time></trkpt><trkpt lat="41.92139197851258" lon="12.375756999691278"><ele>80.0</ele><time>2026-04-09T17:36:44Z</time></trkpt><trkpt lat="41.921293864200706" lon="12.375791918571629"><ele>80.0</ele><time>2026-04-09T17:36:45Z</time></trkpt><trkpt lat="41.9212036775071" lon="12.375837064270973"><ele>80.0</ele><time>2026-04-09T17:36:46Z</time></trkpt><trkpt lat="41.92110744446876" lon="12.375895209537807"><ele>80.0</ele><time>2026-04-09T17:36:47Z</time></trkpt><trkpt lat="41.92099716337223" lon="12.37596092365812"><ele>79.5</ele><time>2026-04-09T17:36:48Z</time></trkpt><trkpt lat="41.92089456206631" lon="12.376022358745846"><ele>79.0</ele><time>2026-04-09T17:36:49Z</time></trkpt><trkpt lat="41.92078584942671" lon="12.37608661902059"><ele>78.5</ele><time>2026-04-09T17:36:49.999Z</time></trkpt><trkpt lat="41.920678504666014" lon="12.376152183824104"><ele>78.0</ele><time>2026-04-09T17:36:50.999Z</time></trkpt><trkpt lat="41.920576619516254" lon="12.376210551318994"><ele>78.0</ele><time>2026-04-09T17:36:51.999Z</time></trkpt><trkpt lat="41.920479050159635" lon="12.376274481292137"><ele>78.0</ele><time>2026-04-09T17:36:52.999Z</time></trkpt><trkpt lat="41.92038628505157" lon="12.376346600673152"><ele>78.0</ele><time>2026-04-09T17:36:53.999Z</time></trkpt><trkpt lat="41.920307130333" lon="12.376402679085938"><ele>78.0</ele><time>2026-04-09T17:36:54.999Z</time></trkpt><trkpt lat="41.92024620524039" lon="12.376447166497051"><ele>78.0</ele><time>2026-04-09T17:36:55.999Z</time></trkpt><trkpt lat="41.920113216372386" lon="12.37654305913565"><ele>79.25</ele><time>2026-04-09T17:36:57.999Z</time></trkpt><trkpt lat="41.92000746781651" lon="12.376600752276335"><ele>80.5</ele><time>2026-04-09T17:36:58.999Z</time></trkpt><trkpt lat="41.919886712858094" lon="12.376679076656577"><ele>81.75</ele><time>2026-04-09T17:36:59.999Z</time></trkpt><trkpt lat="41.9197820265916" lon="12.376745927383148"><ele>83.0</ele><time>2026-04-09T17:37:00.999Z</time></trkpt><trkpt lat="41.919696273033026" lon="12.37680634601864"><ele>83.0</ele><time>2026-04-09T17:37:01.999Z</time></trkpt><trkpt lat="41.91961635075582" lon="12.376867550504066"><ele>83.0</ele><time>2026-04-09T17:37:02.999Z</time></trkpt><trkpt lat="41.919543309235195" lon="12.37693639706151"><ele>83.0</ele><time>2026-04-09T17:37:03.999Z</time></trkpt><trkpt lat="41.91947442644376" lon="12.377006039054145"><ele>83.0</ele><time>2026-04-09T17:37:04.999Z</time></trkpt><trkpt lat="41.91940299960199" lon="12.377040341005447"><ele>83.0</ele><time>2026-04-09T17:37:05.999Z</time></trkpt><trkpt lat="41.91932439287911" lon="12.377049614073774"><ele>83.0</ele><time>2026-04-09T17:37:06.999Z</time></trkpt><trkpt lat="41.91924172937382" lon="12.377052976359936"><ele>82.66666666666667</ele><time>2026-04-09T17:37:07.999Z</time></trkpt><trkpt lat="41.91916562961312" lon="12.377082037254935"><ele>82.33333333333334</ele><time>2026-04-09T17:37:08.999Z</time></trkpt><trkpt lat="41.91909539457376" lon="12.377131815104574"><ele>82.0</ele><time>2026-04-09T17:37:09.999Z</time></trkpt><trkpt lat="41.919029095734274" lon="12.377189604111013"><ele>81.66666666666667</ele><time>2026-04-09T17:37:10.999Z</time></trkpt><trkpt lat="41.91895305937249" lon="12.377235688405019"><ele>81.33333333333333</ele><time>2026-04-09T17:37:11.999Z</time></trkpt><trkpt lat="41.91888996188138" lon="12.37732719032929"><ele>81.0</ele><time>2026-04-09T17:37:12.999Z</time></trkpt><trkpt lat="41.9188530076287" lon="12.377473001898556"><ele>81.0</ele><time>2026-04-09T17:37:13.999Z</time></trkpt><trkpt lat="41.9187868168445" lon="12.377580994260079"><ele>81.0</ele><time>2026-04-09T17:37:14.999Z</time></trkpt><trkpt lat="41.918696029672624" lon="12.377640210863987"><ele>81.0</ele><time>2026-04-09T17:37:15.999Z</time></trkpt><trkpt lat="41.918627244793676" lon="12.377718424746174"><ele>81.0</ele><time>2026-04-09T17:37:16.999Z</time></trkpt><trkpt lat="41.91855973102495" lon="12.377795655789404"><ele>81.0</ele><time>2026-04-09T17:37:17.999Z</time></trkpt><trkpt lat="41.918481420669465" lon="12.377874981713637"><ele>81.25</ele><time>2026-04-09T17:37:18.999Z</time></trkpt><trkpt lat="41.918386044595195" lon="12.377952430680281"><ele>81.5</ele><time>2026-04-09T17:37:19.999Z</time></trkpt><trkpt lat="41.91827311917768" lon="12.378025409671666"><ele>81.75</ele><time>2026-04-09T17:37:20.999Z</time></trkpt><trkpt lat="41.918153092280804" lon="12.378092891918538"><ele>82.0</ele><time>2026-04-09T17:37:21.999Z</time></trkpt><trkpt lat="41.91802741343778" lon="12.378159063057096"><ele>81.5</ele><time>2026-04-09T17:37:22.999Z</time></trkpt><trkpt lat="41.91789924885234" lon="12.37823145915929"><ele>81.0</ele><time>2026-04-09T17:37:23.999Z</time></trkpt><trkpt lat="41.91778199018082" lon="12.378305743284571"><ele>80.5</ele><time>2026-04-09T17:37:24.999Z</time></trkpt><trkpt lat="41.91766505941924" lon="12.37838244946786"><ele>80.0</ele><time>2026-04-09T17:37:25.998Z</time></trkpt><trkpt lat="41.9175482115387" lon="12.37844791022611"><ele>79.0</ele><time>2026-04-09T17:37:26.998Z</time></trkpt><trkpt lat="41.917436210426224" lon="12.37850396319778"><ele>78.0</ele><time>2026-04-09T17:37:27.998Z</time></trkpt><trkpt lat="41.91732073192664" lon="12.378565870524254"><ele>77.0</ele><time>2026-04-09T17:37:28.998Z</time></trkpt><trkpt lat="41.91720398054543" lon="12.378624100008274"><ele>76.0</ele><time>2026-04-09T17:37:29.998Z</time></trkpt><trkpt lat="41.917080550906" lon="12.378677633873664"><ele>76.0</ele><time>2026-04-09T17:37:30.998Z</time></trkpt><trkpt lat="41.91695388267644" lon="12.378730785393662"><ele>76.0</ele><time>2026-04-09T17:37:31.998Z</time></trkpt><trkpt lat="41.91682557733353" lon="12.378787417157136"><ele>76.0</ele><time>2026-04-09T17:37:32.998Z</time></trkpt><trkpt lat="41.91669895894796" lon="12.37885486163058"><ele>76.0</ele><time>2026-04-09T17:37:33.998Z</time></trkpt><trkpt lat="41.916582126736984" lon="12.37893348891666"><ele>75.66666666666666</ele><time>2026-04-09T17:37:34.998Z</time></trkpt><trkpt lat="41.91648657081635" lon="12.379017216300024"><ele>75.33333333333333</ele><time>2026-04-09T17:37:35.998Z</time></trkpt><trkpt lat="41.91640481635695" lon="12.379096825467233"><ele>75.0</ele><time>2026-04-09T17:37:36.998Z</time></trkpt><trkpt lat="41.91633485051338" lon="12.379163249519658"><ele>74.66666666666667</ele><time>2026-04-09T17:37:37.998Z</time></trkpt><trkpt lat="41.91627946988753" lon="12.379212761392928"><ele>74.33333333333334</ele><time>2026-04-09T17:37:38.998Z</time></trkpt><trkpt lat="41.91622059933476" lon="12.37925919193588"><ele>74.0</ele><time>2026-04-09T17:37:39.998Z</time></trkpt><trkpt lat="41.91615610297709" lon="12.379282657515564"><ele>74.0</ele><time>2026-04-09T17:37:40.998Z</time></trkpt><trkpt lat="41.91608272840112" lon="12.379281161192552"><ele>74.0</ele><time>2026-04-09T17:37:41.998Z</time></trkpt><trkpt lat="41.916005898806155" lon="12.379235893718178"><ele>74.0</ele><time>2026-04-09T17:37:42.998Z</time></trkpt><trkpt lat="41.915936450919894" lon="12.379166224918887"><ele>74.0</ele><time>2026-04-09T17:37:43.998Z</time></trkpt><trkpt lat="41.9158512188318" lon="12.379141069584458"><ele>74.0</ele><time>2026-04-09T17:37:44.998Z</time></trkpt><trkpt lat="41.91575919049816" lon="12.379168552106082"><ele>74.0</ele><time>2026-04-09T17:37:45.998Z</time></trkpt><trkpt lat="41.91568238229341" lon="12.379243651315765"><ele>72.83333333333334</ele><time>2026-04-09T17:37:46.998Z</time></trkpt><trkpt lat="41.91564116045226" lon="12.379337577015535"><ele>71.66666666666667</ele><time>2026-04-09T17:37:47.998Z</time></trkpt><trkpt lat="41.91563153455496" lon="12.379450180849869"><ele>70.5</ele><time>2026-04-09T17:37:48.998Z</time></trkpt><trkpt lat="41.91566902641744" lon="12.379564474891987"><ele>69.33333333333333</ele><time>2026-04-09T17:37:49.998Z</time></trkpt><trkpt lat="41.915711210282765" lon="12.379671471718726"><ele>68.16666666666666</ele><time>2026-04-09T17:37:50.998Z</time></trkpt><trkpt lat="41.91574492558063" lon="12.379776266383772"><ele>67.0</ele><time>2026-04-09T17:37:51.998Z</time></trkpt><trkpt lat="41.91574823157813" lon="12.379884941497025"><ele>67.0</ele><time>2026-04-09T17:37:52.998Z</time></trkpt><trkpt lat="41.91572537663521" lon="12.380009049126043"><ele>67.0</ele><time>2026-04-09T17:37:53.998Z</time></trkpt><trkpt lat="41.915693340608556" lon="12.380146326937501"><ele>67.0</ele><time>2026-04-09T17:37:54.998Z</time></trkpt><trkpt lat="41.91565997117541" lon="12.380306120899101"><ele>67.0</ele><time>2026-04-09T17:37:55.998Z</time></trkpt><trkpt lat="41.91563074627748" lon="12.380470875312765"><ele>67.75</ele><time>2026-04-09T17:37:56.998Z</time></trkpt><trkpt lat="41.91560023266339" lon="12.380641595187166"><ele>68.5</ele><time>2026-04-09T17:37:57.998Z</time></trkpt><trkpt lat="41.91557440887534" lon="12.380805968248907"><ele>69.25</ele><time>2026-04-09T17:37:58.998Z</time></trkpt><trkpt lat="41.91554651207607" lon="12.380980267863448"><ele>70.0</ele><time>2026-04-09T17:37:59.998Z</time></trkpt><trkpt lat="41.915509426289056" lon="12.381166088455515"><ele>68.5</ele><time>2026-04-09T17:38:00.998Z</time></trkpt><trkpt lat="41.91546679959612" lon="12.381353603352608"><ele>67.0</ele><time>2026-04-09T17:38:01.998Z</time></trkpt><trkpt lat="41.91543108924675" lon="12.38151167238891"><ele>65.5</ele><time>2026-04-09T17:38:02.997Z</time></trkpt><trkpt lat="41.915396597762964" lon="12.38165845408367"><ele>64.0</ele><time>2026-04-09T17:38:03.997Z</time></trkpt><trkpt lat="41.915357171237886" lon="12.38179414612573"><ele>64.0</ele><time>2026-04-09T17:38:04.997Z</time></trkpt><trkpt lat="41.9153142256262" lon="12.381928807568386"><ele>64.0</ele><time>2026-04-09T17:38:05.997Z</time></trkpt><trkpt lat="41.915268049212024" lon="12.382059370224821"><ele>64.0</ele><time>2026-04-09T17:38:06.997Z</time></trkpt><trkpt lat="41.915214155608446" lon="12.382187712882068"><ele>64.0</ele><time>2026-04-09T17:38:07.997Z</time></trkpt><trkpt lat="41.91515415403859" lon="12.382316245741775"><ele>64.0</ele><time>2026-04-09T17:38:08.997Z</time></trkpt><trkpt lat="41.915093243895605" lon="12.38243886892002"><ele>63.25</ele><time>2026-04-09T17:38:09.997Z</time></trkpt><trkpt lat="41.915017792968825" lon="12.382577818911207"><ele>62.5</ele><time>2026-04-09T17:38:10.997Z</time></trkpt><trkpt lat="41.914945726952865" lon="12.382726585068331"><ele>61.75</ele><time>2026-04-09T17:38:11.997Z</time></trkpt><trkpt lat="41.914865396383966" lon="12.382893162591673"><ele>61.0</ele><time>2026-04-09T17:38:12.997Z</time></trkpt><trkpt lat="41.914788571250604" lon="12.383048873624594"><ele>59.5</ele><time>2026-04-09T17:38:13.997Z</time></trkpt><trkpt lat="41.91472002388738" lon="12.383187156709088"><ele>58.0</ele><time>2026-04-09T17:38:14.997Z</time></trkpt><trkpt lat="41.91465780780825" lon="12.38330861478448"><ele>56.5</ele><time>2026-04-09T17:38:15.997Z</time></trkpt><trkpt lat="41.91459527791202" lon="12.38343277790342"><ele>55.0</ele><time>2026-04-09T17:38:16.997Z</time></trkpt><trkpt lat="41.91453217805615" lon="12.383551067443411"><ele>55.0</ele><time>2026-04-09T17:38:17.997Z</time></trkpt><trkpt lat="41.91446646202209" lon="12.38366516111677"><ele>55.0</ele><time>2026-04-09T17:38:18.997Z</time></trkpt><trkpt lat="41.91439367509838" lon="12.383771195693859"><ele>55.0</ele><time>2026-04-09T17:38:19.997Z</time></trkpt><trkpt lat="41.91431040565241" lon="12.383866637445895"><ele>55.0</ele><time>2026-04-09T17:38:20.997Z</time></trkpt><trkpt lat="41.91421622177696" lon="12.383958310978402"><ele>55.0</ele><time>2026-04-09T17:38:21.997Z</time></trkpt><trkpt lat="41.91413893986187" lon="12.384070925946665"><ele>55.5</ele><time>2026-04-09T17:38:22.997Z</time></trkpt><trkpt lat="41.91404501386384" lon="12.384175018536915"><ele>56.0</ele><time>2026-04-09T17:38:23.997Z</time></trkpt><trkpt lat="41.913936207887204" lon="12.384270083404147"><ele>56.5</ele><time>2026-04-09T17:38:24.997Z</time></trkpt><trkpt lat="41.91383453036387" lon="12.384388894874471"><ele>57.0</ele><time>2026-04-09T17:38:25.997Z</time></trkpt><trkpt lat="41.91373996910588" lon="12.384498906658338"><ele>57.0</ele><time>2026-04-09T17:38:26.997Z</time></trkpt><trkpt lat="41.913645316662176" lon="12.38460209808381"><ele>57.0</ele><time>2026-04-09T17:38:27.997Z</time></trkpt><trkpt lat="41.9135382715509" lon="12.384689899836454"><ele>57.0</ele><time>2026-04-09T17:38:28.997Z</time></trkpt><trkpt lat="41.91342219121075" lon="12.38475611053065"><ele>57.0</ele><time>2026-04-09T17:38:29.997Z</time></trkpt><trkpt lat="41.91331080549968" lon="12.384799477469178"><ele>57.25</ele><time>2026-04-09T17:38:30.997Z</time></trkpt><trkpt lat="41.91319918857401" lon="12.384834405390071"><ele>57.5</ele><time>2026-04-09T17:38:31.997Z</time></trkpt><trkpt lat="41.91308178074012" lon="12.384853034015551"><ele>57.75</ele><time>2026-04-09T17:38:32.997Z</time></trkpt><trkpt lat="41.9129605146277" lon="12.384863515075455"><ele>58.0</ele><time>2026-04-09T17:38:33.997Z</time></trkpt><trkpt lat="41.91282569248228" lon="12.384865162013735"><ele>58.0</ele><time>2026-04-09T17:38:34.997Z</time></trkpt><trkpt lat="41.9126915398839" lon="12.3848493667318"><ele>58.0</ele><time>2026-04-09T17:38:36Z</time></trkpt><trkpt lat="41.912578715495705" lon="12.38481909782311"><ele>58.0</ele><time>2026-04-09T17:38:37Z</time></trkpt><trkpt lat="41.91246893658442" lon="12.38477790356469"><ele>58.0</ele><time>2026-04-09T17:38:38Z</time></trkpt><trkpt lat="41.912362791096676" lon="12.38471634525842"><ele>58.0</ele><time>2026-04-09T17:38:39Z</time></trkpt><trkpt lat="41.912268125843426" lon="12.384643960950187"><ele>58.0</ele><time>2026-04-09T17:38:40Z</time></trkpt><trkpt lat="41.91217962047478" lon="12.384575888200622"><ele>58.0</ele><time>2026-04-09T17:38:41Z</time></trkpt><trkpt lat="41.912087302966754" lon="12.384501453286617"><ele>58.0</ele><time>2026-04-09T17:38:42Z</time></trkpt><trkpt lat="41.912013390694895" lon="12.384419363666947"><ele>58.0</ele><time>2026-04-09T17:38:43Z</time></trkpt><trkpt lat="41.911929745244464" lon="12.384323029649517"><ele>58.0</ele><time>2026-04-09T17:38:44Z</time></trkpt><trkpt lat="41.911852805592865" lon="12.384215124507913"><ele>58.0</ele><time>2026-04-09T17:38:45Z</time></trkpt><trkpt lat="41.911777780172024" lon="12.384101141955233"><ele>58.0</ele><time>2026-04-09T17:38:46Z</time></trkpt><trkpt lat="41.91171269959795" lon="12.384001944598769"><ele>58.0</ele><time>2026-04-09T17:38:47Z</time></trkpt><trkpt lat="41.911648499616255" lon="12.383905822321097"><ele>58.0</ele><time>2026-04-09T17:38:48Z</time></trkpt><trkpt lat="41.91158720829501" lon="12.383808459911078"><ele>57.4</ele><time>2026-04-09T17:38:49Z</time></trkpt><trkpt lat="41.91152487170355" lon="12.383712775479697"><ele>56.8</ele><time>2026-04-09T17:38:50Z</time></trkpt><trkpt lat="41.9114610327287" lon="12.383614996851376"><ele>56.2</ele><time>2026-04-09T17:38:51Z</time></trkpt><trkpt lat="41.91139247822635" lon="12.383517861495822"><ele>55.6</ele><time>2026-04-09T17:38:52Z</time></trkpt><trkpt lat="41.91130758455446" lon="12.383416829784789"><ele>55.0</ele><time>2026-04-09T17:38:53Z</time></trkpt><trkpt lat="41.911227020362396" lon="12.383309006831274"><ele>55.0</ele><time>2026-04-09T17:38:53.999Z</time></trkpt><trkpt lat="41.91112004538631" lon="12.383227249413808"><ele>55.0</ele><time>2026-04-09T17:38:54.999Z</time></trkpt><trkpt lat="41.91100595853742" lon="12.383144991970854"><ele>55.0</ele><time>2026-04-09T17:38:55.999Z</time></trkpt><trkpt lat="41.91088129191059" lon="12.383076947397416"><ele>55.0</ele><time>2026-04-09T17:38:56.999Z</time></trkpt><trkpt lat="41.910749573808644" lon="12.383017590296774"><ele>55.666666666666664</ele><time>2026-04-09T17:38:57.999Z</time></trkpt><trkpt lat="41.91060261611601" lon="12.382963242075432"><ele>56.33333333333333</ele><time>2026-04-09T17:38:58.999Z</time></trkpt><trkpt lat="41.910433509222244" lon="12.382915695871509"><ele>57.0</ele><time>2026-04-09T17:38:59.999Z</time></trkpt><trkpt lat="41.910254001634556" lon="12.38282245851053"><ele>57.0</ele><time>2026-04-09T17:39:00.999Z</time></trkpt><trkpt lat="41.91005168197343" lon="12.382767265250758"><ele>57.0</ele><time>2026-04-09T17:39:01.999Z</time></trkpt><trkpt lat="41.90986110444328" lon="12.382700404297928"><ele>57.0</ele><time>2026-04-09T17:39:02.999Z</time></trkpt><trkpt lat="41.909657118168035" lon="12.382616336336403"><ele>57.0</ele><time>2026-04-09T17:39:03.999Z</time></trkpt><trkpt lat="41.90946684940117" lon="12.382540143114348"><ele>57.0</ele><time>2026-04-09T17:39:04.999Z</time></trkpt><trkpt lat="41.90928947429312" lon="12.382469241162624"><ele>57.0</ele><time>2026-04-09T17:39:05.999Z</time></trkpt><trkpt lat="41.909131531479645" lon="12.382413828075551"><ele>55.75</ele><time>2026-04-09T17:39:06.999Z</time></trkpt><trkpt lat="41.90898258421769" lon="12.382374493744251"><ele>54.5</ele><time>2026-04-09T17:39:07.999Z</time></trkpt><trkpt lat="41.908840187541806" lon="12.382350112758223"><ele>53.25</ele><time>2026-04-09T17:39:08.999Z</time></trkpt><trkpt lat="41.90870581844656" lon="12.382327322057508"><ele>52.0</ele><time>2026-04-09T17:39:09.999Z</time></trkpt><trkpt lat="41.90858420665866" lon="12.382313371037636"><ele>52.0</ele><time>2026-04-09T17:39:10.999Z</time></trkpt><trkpt lat="41.90845825039459" lon="12.382308127894806"><ele>52.0</ele><time>2026-04-09T17:39:11.999Z</time></trkpt><trkpt lat="41.90833117292726" lon="12.382301772767104"><ele>52.0</ele><time>2026-04-09T17:39:12.999Z</time></trkpt><trkpt lat="41.90821784888793" lon="12.382298373893555"><ele>52.0</ele><time>2026-04-09T17:39:13.999Z</time></trkpt><trkpt lat="41.90811011966721" lon="12.382295858146527"><ele>52.0</ele><time>2026-04-09T17:39:14.999Z</time></trkpt><trkpt lat="41.9080008119642" lon="12.382283415729338"><ele>52.0</ele><time>2026-04-09T17:39:15.999Z</time></trkpt><trkpt lat="41.90788979944784" lon="12.382277524018185"><ele>52.0</ele><time>2026-04-09T17:39:16.999Z</time></trkpt><trkpt lat="41.90778047370096" lon="12.382269396198282"><ele>52.0</ele><time>2026-04-09T17:39:17.999Z</time></trkpt><trkpt lat="41.90767413870415" lon="12.382251116303319"><ele>52.0</ele><time>2026-04-09T17:39:18.999Z</time></trkpt><trkpt lat="41.90756063790019" lon="12.382225022485331"><ele>52.0</ele><time>2026-04-09T17:39:19.999Z</time></trkpt><trkpt lat="41.90745085772472" lon="12.382195285243757"><ele>52.0</ele><time>2026-04-09T17:39:20.999Z</time></trkpt><trkpt lat="41.9073438151567" lon="12.382238490852243"><ele>52.0</ele><time>2026-04-09T17:39:21.999Z</time></trkpt><trkpt lat="41.90723073595055" lon="12.38222546940036"><ele>52.0</ele><time>2026-04-09T17:39:22.999Z</time></trkpt><trkpt lat="41.90712004630913" lon="12.382217734027133"><ele>52.0</ele><time>2026-04-09T17:39:23.999Z</time></trkpt><trkpt lat="41.90700594975686" lon="12.382216575450471"><ele>52.0</ele><time>2026-04-09T17:39:24.999Z</time></trkpt><trkpt lat="41.9068957058851" lon="12.382213910016192"><ele>52.0</ele><time>2026-04-09T17:39:25.999Z</time></trkpt><trkpt lat="41.90678352473811" lon="12.382175083139893"><ele>52.0</ele><time>2026-04-09T17:39:26.999Z</time></trkpt><trkpt lat="41.906667691970526" lon="12.382187293659339"><ele>52.0</ele><time>2026-04-09T17:39:27.999Z</time></trkpt><trkpt lat="41.9065657974095" lon="12.382172705267168"><ele>52.0</ele><time>2026-04-09T17:39:28.999Z</time></trkpt><trkpt lat="41.906461981229306" lon="12.382169507094254"><ele>52.2</ele><time>2026-04-09T17:39:29.999Z</time></trkpt><trkpt lat="41.90635834285897" lon="12.382160757602252"><ele>52.400000000000006</ele><time>2026-04-09T17:39:30.999Z</time></trkpt><trkpt lat="41.90625001479981" lon="12.382147007932353"><ele>52.599999999999994</ele><time>2026-04-09T17:39:31.998Z</time></trkpt><trkpt lat="41.906140334564725" lon="12.382136175473606"><ele>52.8</ele><time>2026-04-09T17:39:32.998Z</time></trkpt><trkpt lat="41.90602363025101" lon="12.38212541305183"><ele>53.0</ele><time>2026-04-09T17:39:33.998Z</time></trkpt><trkpt lat="41.90590785331435" lon="12.382117609996387"><ele>53.0</ele><time>2026-04-09T17:39:34.998Z</time></trkpt><trkpt lat="41.90579649917385" lon="12.382128458100047"><ele>53.0</ele><time>2026-04-09T17:39:35.998Z</time></trkpt><trkpt lat="41.90569070778106" lon="12.382163836021885"><ele>53.0</ele><time>2026-04-09T17:39:36.998Z</time></trkpt><trkpt lat="41.905585029685874" lon="12.382217993404629"><ele>53.0</ele><time>2026-04-09T17:39:37.998Z</time></trkpt><trkpt lat="41.90547531000699" lon="12.382297639481441"><ele>52.25</ele><time>2026-04-09T17:39:38.998Z</time></trkpt><trkpt lat="41.90535795896017" lon="12.382382115580308"><ele>51.5</ele><time>2026-04-09T17:39:39.998Z</time></trkpt><trkpt lat="41.9052420605248" lon="12.382442567268452"><ele>50.75</ele><time>2026-04-09T17:39:40.998Z</time></trkpt><trkpt lat="41.905122311854484" lon="12.382483632915548"><ele>50.0</ele><time>2026-04-09T17:39:41.998Z</time></trkpt><trkpt lat="41.904996309326094" lon="12.382501707444087"><ele>50.0</ele><time>2026-04-09T17:39:42.998Z</time></trkpt><trkpt lat="41.904863847693576" lon="12.382499188213698"><ele>50.0</ele><time>2026-04-09T17:39:43.998Z</time></trkpt><trkpt lat="41.904726332823" lon="12.382499612734332"><ele>50.0</ele><time>2026-04-09T17:39:44.998Z</time></trkpt><trkpt lat="41.90458907956159" lon="12.382486983515328"><ele>50.0</ele><time>2026-04-09T17:39:45.998Z</time></trkpt><trkpt lat="41.90446557954942" lon="12.382453811031997"><ele>50.0</ele><time>2026-04-09T17:39:46.998Z</time></trkpt><trkpt lat="41.90434542213032" lon="12.382398667849197"><ele>50.0</ele><time>2026-04-09T17:39:47.998Z</time></trkpt><trkpt lat="41.90424219244466" lon="12.38233820662431"><ele>50.0</ele><time>2026-04-09T17:39:48.998Z</time></trkpt><trkpt lat="41.90415142664277" lon="12.382276089579207"><ele>50.0</ele><time>2026-04-09T17:39:49.998Z</time></trkpt><trkpt lat="41.90406398399418" lon="12.382217282476777"><ele>50.0</ele><time>2026-04-09T17:39:50.998Z</time></trkpt><trkpt lat="41.90396858682281" lon="12.382152732779726"><ele>49.8</ele><time>2026-04-09T17:39:51.998Z</time></trkpt><trkpt lat="41.903868701076505" lon="12.382082911022785"><ele>49.6</ele><time>2026-04-09T17:39:52.998Z</time></trkpt><trkpt lat="41.90377197117391" lon="12.382007707440032"><ele>49.400000000000006</ele><time>2026-04-09T17:39:53.998Z</time></trkpt><trkpt lat="41.90368714584836" lon="12.381943305611742"><ele>49.2</ele><time>2026-04-09T17:39:54.998Z</time></trkpt><trkpt lat="41.90361026161434" lon="12.381884974462492"><ele>49.0</ele><time>2026-04-09T17:39:55.998Z</time></trkpt><trkpt lat="41.9035394775762" lon="12.381834868585372"><ele>48.99999999999999</ele><time>2026-04-09T17:39:56.998Z</time></trkpt><trkpt lat="41.903480178748126" lon="12.381798057611105"><ele>49.0</ele><time>2026-04-09T17:39:57.998Z</time></trkpt><trkpt lat="41.90340247527456" lon="12.381725862348667"><ele>49.0</ele><time>2026-04-09T17:39:59.998Z</time></trkpt><trkpt lat="41.90333658673531" lon="12.381680234757713"><ele>49.0</ele><time>2026-04-09T17:40:01.998Z</time></trkpt><trkpt lat="41.90327363281147" lon="12.381637054589204"><ele>48.99999999999999</ele><time>2026-04-09T17:40:03.998Z</time></trkpt><trkpt lat="41.903201476335205" lon="12.38159089731519"><ele>49.0</ele><time>2026-04-09T17:40:05.998Z</time></trkpt><trkpt lat="41.90313416198008" lon="12.381546559308855"><ele>49.0</ele><time>2026-04-09T17:40:07.998Z</time></trkpt><trkpt lat="41.90306398942384" lon="12.381658058626185"><ele>49.0</ele><time>2026-04-09T17:40:08.997Z</time></trkpt><trkpt lat="41.90302391968882" lon="12.381789069568063"><ele>49.0</ele><time>2026-04-09T17:40:10.997Z</time></trkpt><trkpt lat="41.90301707423582" lon="12.381919898978088"><ele>49.0</ele><time>2026-04-09T17:40:12.997Z</time></trkpt><trkpt lat="41.90299788434398" lon="12.382058126476073"><ele>49.0</ele><time>2026-04-09T17:40:14.997Z</time></trkpt><trkpt lat="41.90301689489157" lon="12.382182746397293"><ele>49.0</ele><time>2026-04-09T17:40:15.997Z</time></trkpt><trkpt lat="41.903023340798974" lon="12.38232478245616"><ele>49.0</ele><time>2026-04-09T17:40:16.997Z</time></trkpt><trkpt lat="41.90303961195015" lon="12.382464353497104"><ele>49.0</ele><time>2026-04-09T17:40:17.997Z</time></trkpt><trkpt lat="41.903044680666945" lon="12.382619594781513"><ele>49.0</ele><time>2026-04-09T17:40:18.997Z</time></trkpt><trkpt lat="41.90301980713505" lon="12.382778634211279"><ele>49.0</ele><time>2026-04-09T17:40:19.997Z</time></trkpt><trkpt lat="41.90296257283256" lon="12.382925535669699"><ele>48.75</ele><time>2026-04-09T17:40:20.997Z</time></trkpt><trkpt lat="41.90289551659209" lon="12.383054309867411"><ele>48.5</ele><time>2026-04-09T17:40:21.997Z</time></trkpt><trkpt lat="41.90281532169848" lon="12.383165814340003"><ele>48.25</ele><time>2026-04-09T17:40:22.997Z</time></trkpt><trkpt lat="41.90272008429717" lon="12.383252054987935"><ele>48.0</ele><time>2026-04-09T17:40:23.997Z</time></trkpt><trkpt lat="41.902603020832366" lon="12.383316691058674"><ele>50.5</ele><time>2026-04-09T17:40:24.997Z</time></trkpt><trkpt lat="41.902472174779774" lon="12.383353402018553"><ele>53.0</ele><time>2026-04-09T17:40:25.997Z</time></trkpt><trkpt lat="41.90233863985941" lon="12.383355163313833"><ele>55.5</ele><time>2026-04-09T17:40:26.997Z</time></trkpt><trkpt lat="41.902204273603694" lon="12.383322391366093"><ele>58.0</ele><time>2026-04-09T17:40:27.997Z</time></trkpt><trkpt lat="41.90207388822797" lon="12.38328155858761"><ele>58.0</ele><time>2026-04-09T17:40:28.997Z</time></trkpt><trkpt lat="41.90194250377375" lon="12.383250181114283"><ele>58.0</ele><time>2026-04-09T17:40:29.997Z</time></trkpt><trkpt lat="41.90180872735529" lon="12.383217630209383"><ele>58.0</ele><time>2026-04-09T17:40:30.997Z</time></trkpt><trkpt lat="41.90167167368353" lon="12.383179812019025"><ele>58.0</ele><time>2026-04-09T17:40:31.997Z</time></trkpt><trkpt lat="41.901531453613174" lon="12.383139475730788"><ele>59.5</ele><time>2026-04-09T17:40:32.997Z</time></trkpt><trkpt lat="41.90139994125465" lon="12.383099700400718"><ele>61.0</ele><time>2026-04-09T17:40:33.997Z</time></trkpt><trkpt lat="41.90126639674589" lon="12.383063695358066"><ele>62.5</ele><time>2026-04-09T17:40:34.997Z</time></trkpt><trkpt lat="41.90113067923683" lon="12.383028535403215"><ele>64.0</ele><time>2026-04-09T17:40:35.997Z</time></trkpt><trkpt lat="41.90099089605202" lon="12.383001107833037"><ele>65.33333333333333</ele><time>2026-04-09T17:40:36.997Z</time></trkpt><trkpt lat="41.900844622347535" lon="12.382976943909279"><ele>66.66666666666667</ele><time>2026-04-09T17:40:37.997Z</time></trkpt><trkpt lat="41.900691135166824" lon="12.382943014465129"><ele>68.0</ele><time>2026-04-09T17:40:38.997Z</time></trkpt><trkpt lat="41.90053685692276" lon="12.382905364347907"><ele>68.0</ele><time>2026-04-09T17:40:39.997Z</time></trkpt><trkpt lat="41.9003841884648" lon="12.382862741104391"><ele>68.0</ele><time>2026-04-09T17:40:41Z</time></trkpt><trkpt lat="41.90022891107343" lon="12.382814095158157"><ele>68.0</ele><time>2026-04-09T17:40:42Z</time></trkpt><trkpt lat="41.900072469008876" lon="12.382763285822861"><ele>66.33333333333334</ele><time>2026-04-09T17:40:43Z</time></trkpt><trkpt lat="41.899904937223766" lon="12.382714031997793"><ele>64.66666666666667</ele><time>2026-04-09T17:40:44Z</time></trkpt><trkpt lat="41.89972272284663" lon="12.382662302977147"><ele>63.0</ele><time>2026-04-09T17:40:45Z</time></trkpt><trkpt lat="41.899539990374606" lon="12.3826064660653"><ele>63.0</ele><time>2026-04-09T17:40:46Z</time></trkpt><trkpt lat="41.89937860196824" lon="12.382548424157374"><ele>63.0</ele><time>2026-04-09T17:40:47Z</time></trkpt><trkpt lat="41.8992321580859" lon="12.38249186494371"><ele>63.0</ele><time>2026-04-09T17:40:48Z</time></trkpt><trkpt lat="41.899091821519136" lon="12.38243725936107"><ele>61.0</ele><time>2026-04-09T17:40:49Z</time></trkpt><trkpt lat="41.898951694909144" lon="12.382385436374108"><ele>59.0</ele><time>2026-04-09T17:40:50Z</time></trkpt><trkpt lat="41.89880427068565" lon="12.382335681631066"><ele>57.0</ele><time>2026-04-09T17:40:51Z</time></trkpt><trkpt lat="41.89865044056352" lon="12.382282680520108"><ele>57.0</ele><time>2026-04-09T17:40:52Z</time></trkpt><trkpt lat="41.89849134099683" lon="12.382228918628833"><ele>57.0</ele><time>2026-04-09T17:40:53Z</time></trkpt><trkpt lat="41.898329089805806" lon="12.38217497844537"><ele>57.0</ele><time>2026-04-09T17:40:54Z</time></trkpt><trkpt lat="41.898155287774614" lon="12.382124628935244"><ele>59.33333333333333</ele><time>2026-04-09T17:40:55Z</time></trkpt><trkpt lat="41.89795154215015" lon="12.382078781811424"><ele>61.666666666666664</ele><time>2026-04-09T17:40:56Z</time></trkpt><trkpt lat="41.89772889493945" lon="12.382021393096577"><ele>64.0</ele><time>2026-04-09T17:40:57Z</time></trkpt><trkpt lat="41.89749095942508" lon="12.381935794102672"><ele>64.0</ele><time>2026-04-09T17:40:58Z</time></trkpt><trkpt lat="41.89724589767415" lon="12.381841161389751"><ele>64.0</ele><time>2026-04-09T17:40:58.999Z</time></trkpt><trkpt lat="41.89700049434558" lon="12.381750649896562"><ele>58.5</ele><time>2026-04-09T17:40:59.999Z</time></trkpt><trkpt lat="41.89673908064232" lon="12.38167404894563"><ele>53.0</ele><time>2026-04-09T17:41:00.999Z</time></trkpt><trkpt lat="41.89647287038554" lon="12.38160639585509"><ele>53.0</ele><time>2026-04-09T17:41:01.999Z</time></trkpt><trkpt lat="41.89620545508938" lon="12.381550652235251"><ele>53.0</ele><time>2026-04-09T17:41:02.999Z</time></trkpt><trkpt lat="41.89594943826627" lon="12.38150487641834"><ele>50.5</ele><time>2026-04-09T17:41:03.999Z</time></trkpt><trkpt lat="41.8956913152813" lon="12.381460980225315"><ele>48.0</ele><time>2026-04-09T17:41:04.999Z</time></trkpt><trkpt lat="41.89542423399463" lon="12.381420614467475"><ele>48.0</ele><time>2026-04-09T17:41:05.999Z</time></trkpt><trkpt lat="41.89515297360378" lon="12.381390220395305"><ele>48.0</ele><time>2026-04-09T17:41:06.999Z</time></trkpt><trkpt lat="41.894880463639886" lon="12.381369582275955"><ele>48.0</ele><time>2026-04-09T17:41:07.999Z</time></trkpt><trkpt lat="41.894610558787704" lon="12.38135269975012"><ele>48.0</ele><time>2026-04-09T17:41:08.999Z</time></trkpt><trkpt lat="41.894334696282606" lon="12.381333192314425"><ele>45.0</ele><time>2026-04-09T17:41:09.999Z</time></trkpt><trkpt lat="41.8940566160801" lon="12.381308290569303"><ele>42.0</ele><time>2026-04-09T17:41:10.999Z</time></trkpt><trkpt lat="41.893777515372314" lon="12.38128411372722"><ele>42.0</ele><time>2026-04-09T17:41:11.999Z</time></trkpt><trkpt lat="41.89349825365377" lon="12.381258121581785"><ele>42.0</ele><time>2026-04-09T17:41:12.999Z</time></trkpt><trkpt lat="41.893215201989676" lon="12.381236554084172"><ele>41.5</ele><time>2026-04-09T17:41:13.999Z</time></trkpt><trkpt lat="41.89293733319772" lon="12.381214374817487"><ele>41.0</ele><time>2026-04-09T17:41:14.999Z</time></trkpt><trkpt lat="41.89268464675033" lon="12.381198278384739"><ele>43.0</ele><time>2026-04-09T17:41:15.999Z</time></trkpt><trkpt lat="41.89244257204252" lon="12.381183943797454"><ele>45.0</ele><time>2026-04-09T17:41:16.999Z</time></trkpt><trkpt lat="41.89220756808625" lon="12.381164974337112"><ele>45.0</ele><time>2026-04-09T17:41:17.999Z</time></trkpt><trkpt lat="41.89197390209282" lon="12.381142097195486"><ele>45.0</ele><time>2026-04-09T17:41:18.999Z</time></trkpt><trkpt lat="41.89174000633769" lon="12.381122428050197"><ele>44.666666666666664</ele><time>2026-04-09T17:41:19.999Z</time></trkpt><trkpt lat="41.891495356878714" lon="12.381089537871095"><ele>44.33333333333333</ele><time>2026-04-09T17:41:20.999Z</time></trkpt><trkpt lat="41.891303118980915" lon="12.381075345670368"><ele>44.0</ele><time>2026-04-09T17:41:21.999Z</time></trkpt><trkpt lat="41.891083525621056" lon="12.381057798039537"><ele>42.666666666666664</ele><time>2026-04-09T17:41:22.999Z</time></trkpt><trkpt lat="41.89086528423657" lon="12.38103447482094"><ele>41.333333333333336</ele><time>2026-04-09T17:41:23.999Z</time></trkpt><trkpt lat="41.890644292915205" lon="12.381007464077564"><ele>40.0</ele><time>2026-04-09T17:41:24.999Z</time></trkpt><trkpt lat="41.890428464418704" lon="12.380971336776332"><ele>40.0</ele><time>2026-04-09T17:41:25.999Z</time></trkpt><trkpt lat="41.89020774089222" lon="12.380965231069101"><ele>40.0</ele><time>2026-04-09T17:41:26.999Z</time></trkpt><trkpt lat="41.88999790829188" lon="12.380910671064626"><ele>40.0</ele><time>2026-04-09T17:41:27.999Z</time></trkpt><trkpt lat="41.8897793231187" lon="12.380888100057337"><ele>39.333333333333336</ele><time>2026-04-09T17:41:28.999Z</time></trkpt><trkpt lat="41.88956382826224" lon="12.380866254985627"><ele>38.666666666666664</ele><time>2026-04-09T17:41:29.999Z</time></trkpt><trkpt lat="41.88934999434163" lon="12.380842741930751"><ele>38.0</ele><time>2026-04-09T17:41:30.999Z</time></trkpt><trkpt lat="41.88913188677099" lon="12.380820344544759"><ele>37.33333333333333</ele><time>2026-04-09T17:41:31.999Z</time></trkpt><trkpt lat="41.88891344367366" lon="12.380800913006125"><ele>36.666666666666664</ele><time>2026-04-09T17:41:32.999Z</time></trkpt><trkpt lat="41.888691248385285" lon="12.380787960870556"><ele>36.0</ele><time>2026-04-09T17:41:33.999Z</time></trkpt><trkpt lat="41.88846291844367" lon="12.380781632854598"><ele>37.0</ele><time>2026-04-09T17:41:34.999Z</time></trkpt><trkpt lat="41.88823092342645" lon="12.380775414654186"><ele>38.0</ele><time>2026-04-09T17:41:35.999Z</time></trkpt><trkpt lat="41.8880023952087" lon="12.38076889175744"><ele>38.0</ele><time>2026-04-09T17:41:36.998Z</time></trkpt><trkpt lat="41.88778955262116" lon="12.380760963207319"><ele>38.0</ele><time>2026-04-09T17:41:37.998Z</time></trkpt><trkpt lat="41.88757795757642" lon="12.380753807767588"><ele>38.0</ele><time>2026-04-09T17:41:38.998Z</time></trkpt><trkpt lat="41.887356976549654" lon="12.380743787304551"><ele>37.666666666666664</ele><time>2026-04-09T17:41:39.998Z</time></trkpt><trkpt lat="41.88713757017015" lon="12.38073367663044"><ele>37.333333333333336</ele><time>2026-04-09T17:41:40.998Z</time></trkpt><trkpt lat="41.88692482553284" lon="12.38072640979583"><ele>37.0</ele><time>2026-04-09T17:41:41.998Z</time></trkpt><trkpt lat="41.88671520592075" lon="12.380720595480133"><ele>37.0</ele><time>2026-04-09T17:41:42.998Z</time></trkpt><trkpt lat="41.88650793716755" lon="12.38071519254972"><ele>37.0</ele><time>2026-04-09T17:41:43.998Z</time></trkpt><trkpt lat="41.886292839112706" lon="12.38078831626703"><ele>37.0</ele><time>2026-04-09T17:41:44.998Z</time></trkpt><trkpt lat="41.88608325299379" lon="12.380777070292728"><ele>38.333333333333336</ele><time>2026-04-09T17:41:45.998Z</time></trkpt><trkpt lat="41.88587471141408" lon="12.380685857293601"><ele>39.666666666666664</ele><time>2026-04-09T17:41:46.998Z</time></trkpt><trkpt lat="41.88566795014534" lon="12.380681364113395"><ele>41.0</ele><time>2026-04-09T17:41:47.998Z</time></trkpt><trkpt lat="41.885474964955066" lon="12.38067624046383"><ele>41.0</ele><time>2026-04-09T17:41:48.998Z</time></trkpt><trkpt lat="41.885286787403274" lon="12.380672064610142"><ele>41.0</ele><time>2026-04-09T17:41:49.998Z</time></trkpt><trkpt lat="41.885093785267294" lon="12.380667314192308"><ele>41.0</ele><time>2026-04-09T17:41:50.998Z</time></trkpt><trkpt lat="41.88489607312796" lon="12.380659938639653"><ele>39.666666666666664</ele><time>2026-04-09T17:41:51.998Z</time></trkpt><trkpt lat="41.88469552581706" lon="12.3806481603725"><ele>38.333333333333336</ele><time>2026-04-09T17:41:52.998Z</time></trkpt><trkpt lat="41.8845087052119" lon="12.380634064679136"><ele>37.0</ele><time>2026-04-09T17:41:53.998Z</time></trkpt><trkpt lat="41.88433610029769" lon="12.38062489378205"><ele>36.0</ele><time>2026-04-09T17:41:54.998Z</time></trkpt><trkpt lat="41.884167699118045" lon="12.380611885720885"><ele>35.0</ele><time>2026-04-09T17:41:55.998Z</time></trkpt><trkpt lat="41.884012225238614" lon="12.380599083430539"><ele>34.0</ele><time>2026-04-09T17:41:56.998Z</time></trkpt><trkpt lat="41.88385872158536" lon="12.380587062974138"><ele>34.0</ele><time>2026-04-09T17:41:57.998Z</time></trkpt><trkpt lat="41.88370615127235" lon="12.380577405804864"><ele>34.0</ele><time>2026-04-09T17:41:58.998Z</time></trkpt><trkpt lat="41.88354908450715" lon="12.380573249961524"><ele>34.0</ele><time>2026-04-09T17:41:59.998Z</time></trkpt><trkpt lat="41.883384173471306" lon="12.38056706658143"><ele>34.5</ele><time>2026-04-09T17:42:00.998Z</time></trkpt><trkpt lat="41.88322272187732" lon="12.380561299384514"><ele>35.0</ele><time>2026-04-09T17:42:01.998Z</time></trkpt><trkpt lat="41.88307694785851" lon="12.380552684585776"><ele>35.5</ele><time>2026-04-09T17:42:02.998Z</time></trkpt><trkpt lat="41.8829385480898" lon="12.380544164364498"><ele>36.0</ele><time>2026-04-09T17:42:03.998Z</time></trkpt><trkpt lat="41.882806581391264" lon="12.380530487751402"><ele>35.75</ele><time>2026-04-09T17:42:04.998Z</time></trkpt><trkpt lat="41.88266911042437" lon="12.380506781658761"><ele>35.5</ele><time>2026-04-09T17:42:05.998Z</time></trkpt><trkpt lat="41.882543039367064" lon="12.38045395904399"><ele>35.25</ele><time>2026-04-09T17:42:06.998Z</time></trkpt><trkpt lat="41.88242382052725" lon="12.380382953723235"><ele>35.0</ele><time>2026-04-09T17:42:07.998Z</time></trkpt><trkpt lat="41.8823281288761" lon="12.380275733903193"><ele>34.5</ele><time>2026-04-09T17:42:08.998Z</time></trkpt><trkpt lat="41.88226490679392" lon="12.38015814487602"><ele>34.0</ele><time>2026-04-09T17:42:09.998Z</time></trkpt><trkpt lat="41.88221906750002" lon="12.380017029768913"><ele>33.5</ele><time>2026-04-09T17:42:10.998Z</time></trkpt><trkpt lat="41.882200007242204" lon="12.379861337992509"><ele>33.0</ele><time>2026-04-09T17:42:11.998Z</time></trkpt><trkpt lat="41.882187909672844" lon="12.379714879074577"><ele>32.75</ele><time>2026-04-09T17:42:12.998Z</time></trkpt><trkpt lat="41.882221694515586" lon="12.379552533525791"><ele>32.5</ele><time>2026-04-09T17:42:13.997Z</time></trkpt><trkpt lat="41.882285364332404" lon="12.37940238082445"><ele>32.25</ele><time>2026-04-09T17:42:14.997Z</time></trkpt><trkpt lat="41.88237244175646" lon="12.379271319051808"><ele>32.0</ele><time>2026-04-09T17:42:15.997Z</time></trkpt><trkpt lat="41.882481289088936" lon="12.379163858963297"><ele>33.75</ele><time>2026-04-09T17:42:16.997Z</time></trkpt><trkpt lat="41.882604823231134" lon="12.379069720802368"><ele>35.5</ele><time>2026-04-09T17:42:17.997Z</time></trkpt><trkpt lat="41.882734680703486" lon="12.378996410736482"><ele>37.25</ele><time>2026-04-09T17:42:18.997Z</time></trkpt><trkpt lat="41.88285684322672" lon="12.378975872060241"><ele>39.0</ele><time>2026-04-09T17:42:19.997Z</time></trkpt><trkpt lat="41.88297233660287" lon="12.378999725756481"><ele>39.0</ele><time>2026-04-09T17:42:20.997Z</time></trkpt><trkpt lat="41.88308764072618" lon="12.379067057871074"><ele>39.0</ele><time>2026-04-09T17:42:21.997Z</time></trkpt><trkpt lat="41.88319257779033" lon="12.379169586958447"><ele>39.0</ele><time>2026-04-09T17:42:22.997Z</time></trkpt><trkpt lat="41.88327928106653" lon="12.379306908943512"><ele>39.0</ele><time>2026-04-09T17:42:23.997Z</time></trkpt><trkpt lat="41.883358819662305" lon="12.379484262364903"><ele>39.333333333333336</ele><time>2026-04-09T17:42:24.997Z</time></trkpt><trkpt lat="41.88344273132438" lon="12.379670056143596"><ele>39.66666666666667</ele><time>2026-04-09T17:42:25.997Z</time></trkpt><trkpt lat="41.8835374122851" lon="12.379860091045327"><ele>40.0</ele><time>2026-04-09T17:42:26.997Z</time></trkpt><trkpt lat="41.88364176049249" lon="12.380060020989848"><ele>40.0</ele><time>2026-04-09T17:42:27.997Z</time></trkpt><trkpt lat="41.88375733715295" lon="12.380278611133853"><ele>40.0</ele><time>2026-04-09T17:42:28.997Z</time></trkpt><trkpt lat="41.88388001042805" lon="12.380508626834565"><ele>40.0</ele><time>2026-04-09T17:42:29.997Z</time></trkpt><trkpt lat="41.88400098281818" lon="12.380742205884232"><ele>38.66666666666667</ele><time>2026-04-09T17:42:30.997Z</time></trkpt><trkpt lat="41.88412216023687" lon="12.38098193186922"><ele>37.333333333333336</ele><time>2026-04-09T17:42:31.997Z</time></trkpt><trkpt lat="41.88424934559875" lon="12.381225593111852"><ele>36.0</ele><time>2026-04-09T17:42:32.997Z</time></trkpt><trkpt lat="41.88438379912473" lon="12.381475197400032"><ele>36.0</ele><time>2026-04-09T17:42:33.997Z</time></trkpt><trkpt lat="41.884519964098644" lon="12.381736078693883"><ele>36.0</ele><time>2026-04-09T17:42:34.997Z</time></trkpt><trkpt lat="41.884648974118655" lon="12.381990417775766"><ele>36.5</ele><time>2026-04-09T17:42:35.997Z</time></trkpt><trkpt lat="41.884793216008354" lon="12.38227313098988"><ele>37.0</ele><time>2026-04-09T17:42:36.997Z</time></trkpt><trkpt lat="41.884939389375944" lon="12.382562094495224"><ele>37.0</ele><time>2026-04-09T17:42:37.997Z</time></trkpt><trkpt lat="41.88507766734758" lon="12.382845995545944"><ele>37.0</ele><time>2026-04-09T17:42:38.997Z</time></trkpt><trkpt lat="41.88521650383113" lon="12.383127179697679"><ele>39.5</ele><time>2026-04-09T17:42:39.997Z</time></trkpt><trkpt lat="41.88534834132657" lon="12.383401730016093"><ele>42.0</ele><time>2026-04-09T17:42:40.997Z</time></trkpt><trkpt lat="41.88550035457749" lon="12.38369646223189"><ele>44.5</ele><time>2026-04-09T17:42:41.997Z</time></trkpt><trkpt lat="41.88563565891072" lon="12.383986750856335"><ele>47.0</ele><time>2026-04-09T17:42:42.997Z</time></trkpt><trkpt lat="41.88577807032355" lon="12.384276135918137"><ele>47.0</ele><time>2026-04-09T17:42:43.997Z</time></trkpt><trkpt lat="41.88591785545474" lon="12.38456967668991"><ele>47.0</ele><time>2026-04-09T17:42:44.997Z</time></trkpt><trkpt lat="41.88604879379684" lon="12.38484827442363"><ele>50.5</ele><time>2026-04-09T17:42:46Z</time></trkpt><trkpt lat="41.88616774206288" lon="12.38511759858898"><ele>54.0</ele><time>2026-04-09T17:42:47Z</time></trkpt><trkpt lat="41.886264514972225" lon="12.385383143568808"><ele>54.66666666666667</ele><time>2026-04-09T17:42:48Z</time></trkpt><trkpt lat="41.88635160031744" lon="12.385665260759053"><ele>55.333333333333336</ele><time>2026-04-09T17:42:49Z</time></trkpt><trkpt lat="41.88640854252559" lon="12.385937842445161"><ele>56.0</ele><time>2026-04-09T17:42:50Z</time></trkpt><trkpt lat="41.88643718890249" lon="12.38622560624668"><ele>57.0</ele><time>2026-04-09T17:42:51Z</time></trkpt><trkpt lat="41.88644481920633" lon="12.386520254945863"><ele>58.0</ele><time>2026-04-09T17:42:52Z</time></trkpt><trkpt lat="41.88643385260647" lon="12.386817403751843"><ele>59.0</ele><time>2026-04-09T17:42:53Z</time></trkpt><trkpt lat="41.88639999117873" lon="12.387120355131351"><ele>61.5</ele><time>2026-04-09T17:42:54Z</time></trkpt><trkpt lat="41.88633565605434" lon="12.387425597981183"><ele>64.0</ele><time>2026-04-09T17:42:55Z</time></trkpt><trkpt lat="41.88625955226162" lon="12.387724129934272"><ele>64.0</ele><time>2026-04-09T17:42:56Z</time></trkpt><trkpt lat="41.88615873222982" lon="12.388008312649168"><ele>64.0</ele><time>2026-04-09T17:42:57Z</time></trkpt><trkpt lat="41.88603389065968" lon="12.388294277087809"><ele>64.5</ele><time>2026-04-09T17:42:58Z</time></trkpt><trkpt lat="41.8859033205009" lon="12.388585441409866"><ele>65.0</ele><time>2026-04-09T17:42:59Z</time></trkpt><trkpt lat="41.88577128347319" lon="12.388890922537115"><ele>64.0</ele><time>2026-04-09T17:43:00Z</time></trkpt><trkpt lat="41.885640739942865" lon="12.389186330613338"><ele>63.0</ele><time>2026-04-09T17:43:01Z</time></trkpt><trkpt lat="41.88551475827596" lon="12.38947621562079"><ele>60.0</ele><time>2026-04-09T17:43:02Z</time></trkpt><trkpt lat="41.88538301068258" lon="12.389773479139288"><ele>57.0</ele><time>2026-04-09T17:43:03Z</time></trkpt><trkpt lat="41.885253232582535" lon="12.390075679214231"><ele>57.0</ele><time>2026-04-09T17:43:03.999Z</time></trkpt><trkpt lat="41.8851259576765" lon="12.39037994182578"><ele>57.0</ele><time>2026-04-09T17:43:04.999Z</time></trkpt><trkpt lat="41.88499886428867" lon="12.39067920409803"><ele>55.0</ele><time>2026-04-09T17:43:05.999Z</time></trkpt><trkpt lat="41.88486996461987" lon="12.390977050030054"><ele>53.0</ele><time>2026-04-09T17:43:06.999Z</time></trkpt><trkpt lat="41.88473701700487" lon="12.391273754905514"><ele>51.0</ele><time>2026-04-09T17:43:07.999Z</time></trkpt><trkpt lat="41.88460547760249" lon="12.391577056633341"><ele>49.0</ele><time>2026-04-09T17:43:08.999Z</time></trkpt><trkpt lat="41.884482702702606" lon="12.391899028009806"><ele>46.0</ele><time>2026-04-09T17:43:09.999Z</time></trkpt><trkpt lat="41.88437409242207" lon="12.392234652851423"><ele>43.0</ele><time>2026-04-09T17:43:10.999Z</time></trkpt><trkpt lat="41.88428370154165" lon="12.392577477667416"><ele>43.5</ele><time>2026-04-09T17:43:11.999Z</time></trkpt><trkpt lat="41.88421030609513" lon="12.392926483375328"><ele>44.0</ele><time>2026-04-09T17:43:12.999Z</time></trkpt><trkpt lat="41.88415067775156" lon="12.393279578711715"><ele>44.0</ele><time>2026-04-09T17:43:13.999Z</time></trkpt><trkpt lat="41.88411515761927" lon="12.393642028030321"><ele>44.0</ele><time>2026-04-09T17:43:14.999Z</time></trkpt><trkpt lat="41.88408962766599" lon="12.394000512069203"><ele>45.0</ele><time>2026-04-09T17:43:15.999Z</time></trkpt><trkpt lat="41.884072460609474" lon="12.394343638037476"><ele>46.0</ele><time>2026-04-09T17:43:16.999Z</time></trkpt><trkpt lat="41.884051696041766" lon="12.394658020815115"><ele>47.0</ele><time>2026-04-09T17:43:17.999Z</time></trkpt><trkpt lat="41.88403979313045" lon="12.39498126341111"><ele>48.0</ele><time>2026-04-09T17:43:18.999Z</time></trkpt><trkpt lat="41.88405951199685" lon="12.395297136176717"><ele>47.5</ele><time>2026-04-09T17:43:19.999Z</time></trkpt><trkpt lat="41.884096803584455" lon="12.39561617744772"><ele>47.0</ele><time>2026-04-09T17:43:20.999Z</time></trkpt><trkpt lat="41.88414388938691" lon="12.395930458591868"><ele>47.0</ele><time>2026-04-09T17:43:21.999Z</time></trkpt><trkpt lat="41.88420382980907" lon="12.396243803732794"><ele>47.0</ele><time>2026-04-09T17:43:22.999Z</time></trkpt><trkpt lat="41.88427408884383" lon="12.39653730202231"><ele>47.33333333333333</ele><time>2026-04-09T17:43:23.999Z</time></trkpt><trkpt lat="41.884359082900524" lon="12.396803422912605"><ele>47.666666666666664</ele><time>2026-04-09T17:43:24.999Z</time></trkpt><trkpt lat="41.88443399043363" lon="12.397054122613396"><ele>48.0</ele><time>2026-04-09T17:43:25.999Z</time></trkpt><trkpt lat="41.88450556581682" lon="12.397297922549813"><ele>48.0</ele><time>2026-04-09T17:43:26.999Z</time></trkpt><trkpt lat="41.884577475507335" lon="12.397528100034508"><ele>48.0</ele><time>2026-04-09T17:43:27.999Z</time></trkpt><trkpt lat="41.884650166913886" lon="12.397734516741536"><ele>48.0</ele><time>2026-04-09T17:43:28.999Z</time></trkpt><trkpt lat="41.88471900136937" lon="12.397912443327721"><ele>48.0</ele><time>2026-04-09T17:43:29.999Z</time></trkpt><trkpt lat="41.8847777912431" lon="12.3980627698927"><ele>48.0</ele><time>2026-04-09T17:43:30.999Z</time></trkpt><trkpt lat="41.884831655564334" lon="12.39820789380366"><ele>48.0</ele><time>2026-04-09T17:43:31.999Z</time></trkpt><trkpt lat="41.88488470828018" lon="12.398360793747148"><ele>48.0</ele><time>2026-04-09T17:43:32.999Z</time></trkpt><trkpt lat="41.88493259883601" lon="12.39850276794409"><ele>48.0</ele><time>2026-04-09T17:43:33.999Z</time></trkpt><trkpt lat="41.88497944056668" lon="12.398631924404235"><ele>48.0</ele><time>2026-04-09T17:43:34.999Z</time></trkpt><trkpt lat="41.8850273459842" lon="12.398757847880933"><ele>48.0</ele><time>2026-04-09T17:43:35.999Z</time></trkpt><trkpt lat="41.885078549549405" lon="12.398889316445704"><ele>48.0</ele><time>2026-04-09T17:43:36.999Z</time></trkpt><trkpt lat="41.88512841625833" lon="12.399021763494497"><ele>48.0</ele><time>2026-04-09T17:43:37.999Z</time></trkpt><trkpt lat="41.885175856149004" lon="12.399150006557326"><ele>49.0</ele><time>2026-04-09T17:43:38.999Z</time></trkpt><trkpt lat="41.885216092079546" lon="12.399260066982936"><ele>50.0</ele><time>2026-04-09T17:43:39.999Z</time></trkpt><trkpt lat="41.885260177369474" lon="12.399371418571189"><ele>51.0</ele><time>2026-04-09T17:43:40.998Z</time></trkpt><trkpt lat="41.8853054152312" lon="12.39948713637756"><ele>52.0</ele><time>2026-04-09T17:43:41.998Z</time></trkpt><trkpt lat="41.88535441843941" lon="12.399602708947084"><ele>53.0</ele><time>2026-04-09T17:43:42.998Z</time></trkpt><trkpt lat="41.88542091867549" lon="12.399741979803133"><ele>53.0</ele><time>2026-04-09T17:43:43.998Z</time></trkpt><trkpt lat="41.885501292607344" lon="12.39989584743287"><ele>53.0</ele><time>2026-04-09T17:43:44.998Z</time></trkpt><trkpt lat="41.88556644686736" lon="12.400062346750335"><ele>53.0</ele><time>2026-04-09T17:43:45.998Z</time></trkpt><trkpt lat="41.88561531692775" lon="12.400233286582049"><ele>53.0</ele><time>2026-04-09T17:43:46.998Z</time></trkpt><trkpt lat="41.885664551766844" lon="12.400394479970094"><ele>53.0</ele><time>2026-04-09T17:43:47.998Z</time></trkpt><trkpt lat="41.88572872862016" lon="12.400569319874112"><ele>53.0</ele><time>2026-04-09T17:43:48.998Z</time></trkpt><trkpt lat="41.88579274574008" lon="12.40072284479757"><ele>53.0</ele><time>2026-04-09T17:43:49.998Z</time></trkpt><trkpt lat="41.885853774234626" lon="12.400868781706851"><ele>53.0</ele><time>2026-04-09T17:43:50.998Z</time></trkpt><trkpt lat="41.885916238822176" lon="12.401022555833057"><ele>53.0</ele><time>2026-04-09T17:43:51.998Z</time></trkpt><trkpt lat="41.885984302459974" lon="12.401183084177239"><ele>53.0</ele><time>2026-04-09T17:43:52.998Z</time></trkpt><trkpt lat="41.88605798344824" lon="12.401360312333704"><ele>53.0</ele><time>2026-04-09T17:43:53.998Z</time></trkpt><trkpt lat="41.88613083748871" lon="12.401554171102983"><ele>53.0</ele><time>2026-04-09T17:43:54.998Z</time></trkpt><trkpt lat="41.88620584195446" lon="12.40176225755056"><ele>53.0</ele><time>2026-04-09T17:43:55.998Z</time></trkpt><trkpt lat="41.88627357135476" lon="12.40195339602681"><ele>53.0</ele><time>2026-04-09T17:43:56.998Z</time></trkpt><trkpt lat="41.886337447336736" lon="12.40211627882245"><ele>53.25</ele><time>2026-04-09T17:43:57.998Z</time></trkpt><trkpt lat="41.886403103839704" lon="12.402260801525943"><ele>53.5</ele><time>2026-04-09T17:43:58.998Z</time></trkpt><trkpt lat="41.886476323414875" lon="12.402405372363589"><ele>53.75</ele><time>2026-04-09T17:43:59.998Z</time></trkpt><trkpt lat="41.886552364764846" lon="12.402545164549188"><ele>54.0</ele><time>2026-04-09T17:44:00.998Z</time></trkpt><trkpt lat="41.88662864862817" lon="12.402685975287492"><ele>54.0</ele><time>2026-04-09T17:44:01.998Z</time></trkpt><trkpt lat="41.88670973085883" lon="12.402824371885133"><ele>54.0</ele><time>2026-04-09T17:44:02.998Z</time></trkpt><trkpt lat="41.886798198824806" lon="12.402967769877668"><ele>54.0</ele><time>2026-04-09T17:44:03.998Z</time></trkpt><trkpt lat="41.886896149469784" lon="12.403125318610094"><ele>54.0</ele><time>2026-04-09T17:44:04.998Z</time></trkpt><trkpt lat="41.88700011430286" lon="12.403295139946824"><ele>55.66666666666667</ele><time>2026-04-09T17:44:05.998Z</time></trkpt><trkpt lat="41.88710428647916" lon="12.403460343720651"><ele>57.333333333333336</ele><time>2026-04-09T17:44:06.998Z</time></trkpt><trkpt lat="41.88720827755026" lon="12.403618340131485"><ele>59.0</ele><time>2026-04-09T17:44:07.998Z</time></trkpt><trkpt lat="41.88731307972475" lon="12.40378104604848"><ele>60.0</ele><time>2026-04-09T17:44:08.998Z</time></trkpt><trkpt lat="41.88742397865428" lon="12.403952669591733"><ele>61.0</ele><time>2026-04-09T17:44:09.998Z</time></trkpt><trkpt lat="41.88753468525354" lon="12.40412210911298"><ele>62.0</ele><time>2026-04-09T17:44:10.998Z</time></trkpt><trkpt lat="41.887649349126164" lon="12.404296344491224"><ele>62.0</ele><time>2026-04-09T17:44:11.998Z</time></trkpt><trkpt lat="41.88776721228987" lon="12.404472340228471"><ele>62.0</ele><time>2026-04-09T17:44:12.998Z</time></trkpt><trkpt lat="41.887872502184216" lon="12.404630813159867"><ele>62.0</ele><time>2026-04-09T17:44:13.998Z</time></trkpt><trkpt lat="41.887976658110794" lon="12.404795727509413"><ele>62.66666666666667</ele><time>2026-04-09T17:44:14.998Z</time></trkpt><trkpt lat="41.8880692816067" lon="12.404972241689439"><ele>63.33333333333333</ele><time>2026-04-09T17:44:15.998Z</time></trkpt><trkpt lat="41.88815372078643" lon="12.405163903319307"><ele>64.0</ele><time>2026-04-09T17:44:16.998Z</time></trkpt><trkpt lat="41.888227795192655" lon="12.405370594379349"><ele>66.33333333333333</ele><time>2026-04-09T17:44:17.998Z</time></trkpt><trkpt lat="41.88829479569004" lon="12.405573243285135"><ele>68.66666666666667</ele><time>2026-04-09T17:44:18.997Z</time></trkpt><trkpt lat="41.88835317736101" lon="12.4057641799914"><ele>71.0</ele><time>2026-04-09T17:44:19.997Z</time></trkpt><trkpt lat="41.888409817885744" lon="12.405954563918256"><ele>71.33333333333334</ele><time>2026-04-09T17:44:20.997Z</time></trkpt><trkpt lat="41.8884616984385" lon="12.40614709776348"><ele>71.66666666666667</ele><time>2026-04-09T17:44:21.997Z</time></trkpt><trkpt lat="41.88851511956378" lon="12.406343545973222"><ele>72.0</ele><time>2026-04-09T17:44:22.997Z</time></trkpt><trkpt lat="41.888569732698265" lon="12.406542286091751"><ele>73.25</ele><time>2026-04-09T17:44:23.997Z</time></trkpt><trkpt lat="41.88861650112795" lon="12.406722044140261"><ele>74.5</ele><time>2026-04-09T17:44:24.997Z</time></trkpt><trkpt lat="41.8886614066001" lon="12.406900955775633"><ele>75.75</ele><time>2026-04-09T17:44:25.997Z</time></trkpt><trkpt lat="41.888702031356" lon="12.407073567239905"><ele>77.0</ele><time>2026-04-09T17:44:26.997Z</time></trkpt><trkpt lat="41.88875174895805" lon="12.407245052139467"><ele>77.25</ele><time>2026-04-09T17:44:27.997Z</time></trkpt><trkpt lat="41.88879954382089" lon="12.407421205855414"><ele>77.5</ele><time>2026-04-09T17:44:28.997Z</time></trkpt><trkpt lat="41.888846198179586" lon="12.407594227315847"><ele>77.75</ele><time>2026-04-09T17:44:29.997Z</time></trkpt><trkpt lat="41.88889711146807" lon="12.407770010968262"><ele>78.0</ele><time>2026-04-09T17:44:30.997Z</time></trkpt><trkpt lat="41.88894554987116" lon="12.40793648924075"><ele>77.75</ele><time>2026-04-09T17:44:31.997Z</time></trkpt><trkpt lat="41.888995233324046" lon="12.408097250294704"><ele>77.5</ele><time>2026-04-09T17:44:32.997Z</time></trkpt><trkpt lat="41.88905155192032" lon="12.408256989198492"><ele>77.25</ele><time>2026-04-09T17:44:33.997Z</time></trkpt><trkpt lat="41.88909628496957" lon="12.408428958529987"><ele>77.0</ele><time>2026-04-09T17:44:34.997Z</time></trkpt><trkpt lat="41.88913783883038" lon="12.408608721131108"><ele>77.0</ele><time>2026-04-09T17:44:35.997Z</time></trkpt><trkpt lat="41.889164133095115" lon="12.40879188241761"><ele>77.0</ele><time>2026-04-09T17:44:36.997Z</time></trkpt><trkpt lat="41.88931773390467" lon="12.40886497457015"><ele>77.0</ele><time>2026-04-09T17:44:37.997Z</time></trkpt><trkpt lat="41.88937170984896" lon="12.409003464151489"><ele>77.0</ele><time>2026-04-09T17:44:38.997Z</time></trkpt><trkpt lat="41.88940950055897" lon="12.409137234702929"><ele>77.6</ele><time>2026-04-09T17:44:39.997Z</time></trkpt><trkpt lat="41.88943635509763" lon="12.409258957279846"><ele>78.2</ele><time>2026-04-09T17:44:40.997Z</time></trkpt><trkpt lat="41.889459296045324" lon="12.409392815850312"><ele>78.8</ele><time>2026-04-09T17:44:41.997Z</time></trkpt><trkpt lat="41.889470756790836" lon="12.40954911371229"><ele>79.4</ele><time>2026-04-09T17:44:42.997Z</time></trkpt><trkpt lat="41.889483735224154" lon="12.409716925168627"><ele>80.0</ele><time>2026-04-09T17:44:43.997Z</time></trkpt><trkpt lat="41.88949265992094" lon="12.409860119770569"><ele>80.0</ele><time>2026-04-09T17:44:44.997Z</time></trkpt><trkpt lat="41.88950111344947" lon="12.409973263107183"><ele>80.0</ele><time>2026-04-09T17:44:45.997Z</time></trkpt><trkpt lat="41.88950713098075" lon="12.410061499356669"><ele>80.0</ele><time>2026-04-09T17:44:46.997Z</time></trkpt><trkpt lat="41.8895303412833" lon="12.410232928622122"><ele>80.0</ele><time>2026-04-09T17:44:48.997Z</time></trkpt><trkpt lat="41.889541698128696" lon="12.410358214538727"><ele>80.0</ele><time>2026-04-09T17:44:49.997Z</time></trkpt><trkpt lat="41.889555023202696" lon="12.410448641594803"><ele>80.0</ele><time>2026-04-09T17:44:50.997Z</time></trkpt><trkpt lat="41.88957584229344" lon="12.410562116794756"><ele>79.4</ele><time>2026-04-09T17:44:52Z</time></trkpt><trkpt lat="41.88960541909534" lon="12.410671333003199"><ele>78.8</ele><time>2026-04-09T17:44:53Z</time></trkpt><trkpt lat="41.889635882395496" lon="12.41077142811884"><ele>78.2</ele><time>2026-04-09T17:44:54Z</time></trkpt><trkpt lat="41.88968451021658" lon="12.410891392873133"><ele>77.6</ele><time>2026-04-09T17:44:55Z</time></trkpt><trkpt lat="41.88971849508598" lon="12.411058765699394"><ele>77.0</ele><time>2026-04-09T17:44:56Z</time></trkpt><trkpt lat="41.88975972374097" lon="12.411231022697715"><ele>76.66666666666667</ele><time>2026-04-09T17:44:57Z</time></trkpt><trkpt lat="41.88980978686144" lon="12.411415957747282"><ele>76.33333333333333</ele><time>2026-04-09T17:44:58Z</time></trkpt><trkpt lat="41.88987121924599" lon="12.411624265039174"><ele>76.0</ele><time>2026-04-09T17:44:59Z</time></trkpt><trkpt lat="41.889937815407755" lon="12.411854198328323"><ele>76.0</ele><time>2026-04-09T17:45:00Z</time></trkpt><trkpt lat="41.890014154031284" lon="12.412050638116657"><ele>76.0</ele><time>2026-04-09T17:45:01Z</time></trkpt><trkpt lat="41.89010939620023" lon="12.412239785298402"><ele>76.0</ele><time>2026-04-09T17:45:02Z</time></trkpt><trkpt lat="41.89022351612008" lon="12.412416554559945"><ele>76.66666666666666</ele><time>2026-04-09T17:45:03Z</time></trkpt><trkpt lat="41.89035457528996" lon="12.412587097963433"><ele>77.33333333333333</ele><time>2026-04-09T17:45:04Z</time></trkpt><trkpt lat="41.89050291458772" lon="12.412752488774128"><ele>78.0</ele><time>2026-04-09T17:45:05Z</time></trkpt><trkpt lat="41.89066852633692" lon="12.412915068819563"><ele>78.33333333333333</ele><time>2026-04-09T17:45:06Z</time></trkpt><trkpt lat="41.89084774582489" lon="12.41306686272971"><ele>78.66666666666666</ele><time>2026-04-09T17:45:07Z</time></trkpt><trkpt lat="41.89103731267849" lon="12.413198629354868"><ele>79.0</ele><time>2026-04-09T17:45:08Z</time></trkpt><trkpt lat="41.89122267035731" lon="12.413309398773185"><ele>79.0</ele><time>2026-04-09T17:45:09Z</time></trkpt><trkpt lat="41.891402894453705" lon="12.413415530140478"><ele>79.0</ele><time>2026-04-09T17:45:09.999Z</time></trkpt><trkpt lat="41.89156666454453" lon="12.413517267159335"><ele>79.0</ele><time>2026-04-09T17:45:10.999Z</time></trkpt><trkpt lat="41.89171702196445" lon="12.413612371030165"><ele>79.66666666666666</ele><time>2026-04-09T17:45:11.999Z</time></trkpt><trkpt lat="41.89187370159624" lon="12.413710911767529"><ele>80.33333333333333</ele><time>2026-04-09T17:45:12.999Z</time></trkpt><trkpt lat="41.892024490778766" lon="12.41380991795724"><ele>81.0</ele><time>2026-04-09T17:45:13.999Z</time></trkpt><trkpt lat="41.89216496973351" lon="12.413907050325623"><ele>81.0</ele><time>2026-04-09T17:45:14.999Z</time></trkpt><trkpt lat="41.89230272683382" lon="12.414016989614105"><ele>81.0</ele><time>2026-04-09T17:45:15.999Z</time></trkpt><trkpt lat="41.892438324901875" lon="12.414140689027501"><ele>81.0</ele><time>2026-04-09T17:45:16.999Z</time></trkpt><trkpt lat="41.8925756958217" lon="12.41427571828924"><ele>81.0</ele><time>2026-04-09T17:45:17.999Z</time></trkpt><trkpt lat="41.89270651500219" lon="12.41441287224159"><ele>81.0</ele><time>2026-04-09T17:45:18.999Z</time></trkpt><trkpt lat="41.89283149811464" lon="12.414558359307335"><ele>81.0</ele><time>2026-04-09T17:45:19.999Z</time></trkpt><trkpt lat="41.89294897731586" lon="12.414698880551068"><ele>81.0</ele><time>2026-04-09T17:45:20.999Z</time></trkpt><trkpt lat="41.89305918041248" lon="12.414833948440252"><ele>81.0</ele><time>2026-04-09T17:45:21.999Z</time></trkpt><trkpt lat="41.893167549320275" lon="12.414964713630555"><ele>81.0</ele><time>2026-04-09T17:45:22.999Z</time></trkpt><trkpt lat="41.89325975492515" lon="12.415079986743006"><ele>81.0</ele><time>2026-04-09T17:45:23.999Z</time></trkpt><trkpt lat="41.89334375810056" lon="12.415181478590034"><ele>81.4</ele><time>2026-04-09T17:45:24.999Z</time></trkpt><trkpt lat="41.8934243615732" lon="12.415280218742469"><ele>81.8</ele><time>2026-04-09T17:45:25.999Z</time></trkpt><trkpt lat="41.89350285450739" lon="12.415380889021787"><ele>82.2</ele><time>2026-04-09T17:45:26.999Z</time></trkpt><trkpt lat="41.89357734787961" lon="12.415478536406093"><ele>82.60000000000001</ele><time>2026-04-09T17:45:27.999Z</time></trkpt><trkpt lat="41.893650563348814" lon="12.41556999088868"><ele>83.0</ele><time>2026-04-09T17:45:28.999Z</time></trkpt><trkpt lat="41.89371915534311" lon="12.415659030419336"><ele>83.33333333333334</ele><time>2026-04-09T17:45:29.999Z</time></trkpt><trkpt lat="41.89378327876448" lon="12.415740068545793"><ele>83.66666666666667</ele><time>2026-04-09T17:45:30.999Z</time></trkpt><trkpt lat="41.89384185089796" lon="12.41581528543142"><ele>84.0</ele><time>2026-04-09T17:45:31.999Z</time></trkpt><trkpt lat="41.89389565141661" lon="12.415887356924953"><ele>84.33333333333333</ele><time>2026-04-09T17:45:32.999Z</time></trkpt><trkpt lat="41.89395251364427" lon="12.41596077479502"><ele>84.66666666666666</ele><time>2026-04-09T17:45:33.999Z</time></trkpt><trkpt lat="41.89401614658649" lon="12.416044413226047"><ele>85.0</ele><time>2026-04-09T17:45:34.999Z</time></trkpt><trkpt lat="41.89408264083616" lon="12.416119465856028"><ele>85.0</ele><time>2026-04-09T17:45:35.999Z</time></trkpt><trkpt lat="41.89414649809477" lon="12.416186894899448"><ele>85.0</ele><time>2026-04-09T17:45:36.999Z</time></trkpt><trkpt lat="41.89421084523115" lon="12.416256547923862"><ele>85.0</ele><time>2026-04-09T17:45:37.999Z</time></trkpt><trkpt lat="41.89427546808048" lon="12.416328081996994"><ele>85.0</ele><time>2026-04-09T17:45:38.999Z</time></trkpt><trkpt lat="41.894358300780645" lon="12.416445216371825"><ele>85.0</ele><time>2026-04-09T17:45:40.999Z</time></trkpt><trkpt lat="41.8944415587241" lon="12.41655241603669"><ele>85.0</ele><time>2026-04-09T17:45:42.999Z</time></trkpt><trkpt lat="41.894482110413584" lon="12.416629189742716"><ele>85.0</ele><time>2026-04-09T17:45:43.999Z</time></trkpt><trkpt lat="41.894552775624476" lon="12.416713413613685"><ele>85.0</ele><time>2026-04-09T17:45:44.999Z</time></trkpt><trkpt lat="41.89462165443092" lon="12.41683061982806"><ele>85.0</ele><time>2026-04-09T17:45:45.999Z</time></trkpt><trkpt lat="41.89469528469056" lon="12.416936517077065"><ele>85.0</ele><time>2026-04-09T17:45:46.998Z</time></trkpt><trkpt lat="41.894767595373374" lon="12.417028405366526"><ele>85.0</ele><time>2026-04-09T17:45:47.998Z</time></trkpt><trkpt lat="41.89484066815008" lon="12.41712862497186"><ele>85.0</ele><time>2026-04-09T17:45:48.998Z</time></trkpt><trkpt lat="41.894899792240885" lon="12.417216999181894"><ele>85.0</ele><time>2026-04-09T17:45:49.998Z</time></trkpt><trkpt lat="41.89495715871865" lon="12.417301821914245"><ele>85.0</ele><time>2026-04-09T17:45:50.998Z</time></trkpt><trkpt lat="41.89502405472486" lon="12.417385452178875"><ele>85.0</ele><time>2026-04-09T17:45:51.998Z</time></trkpt><trkpt lat="41.89509876389797" lon="12.417486509557653"><ele>85.0</ele><time>2026-04-09T17:45:52.998Z</time></trkpt><trkpt lat="41.895180791568684" lon="12.417603289109612"><ele>85.0</ele><time>2026-04-09T17:45:53.998Z</time></trkpt><trkpt lat="41.895269006636035" lon="12.417738426851447"><ele>85.0</ele><time>2026-04-09T17:45:54.998Z</time></trkpt><trkpt lat="41.89535963239315" lon="12.417886310897085"><ele>85.0</ele><time>2026-04-09T17:45:55.998Z</time></trkpt><trkpt lat="41.895448735480635" lon="12.418041058598227"><ele>85.25</ele><time>2026-04-09T17:45:56.998Z</time></trkpt><trkpt lat="41.895536055460596" lon="12.418191770488441"><ele>85.5</ele><time>2026-04-09T17:45:57.998Z</time></trkpt><trkpt lat="41.89562469195943" lon="12.418344346164195"><ele>85.75</ele><time>2026-04-09T17:45:58.998Z</time></trkpt><trkpt lat="41.895712555715434" lon="12.418498199587367"><ele>86.0</ele><time>2026-04-09T17:45:59.998Z</time></trkpt><trkpt lat="41.89579876572773" lon="12.418649896302497"><ele>86.0</ele><time>2026-04-09T17:46:00.998Z</time></trkpt><trkpt lat="41.8958809060787" lon="12.41879618050629"><ele>86.0</ele><time>2026-04-09T17:46:01.998Z</time></trkpt><trkpt lat="41.89596619143521" lon="12.418948489543164"><ele>86.0</ele><time>2026-04-09T17:46:02.998Z</time></trkpt><trkpt lat="41.89604414115793" lon="12.419098246588423"><ele>86.0</ele><time>2026-04-09T17:46:03.998Z</time></trkpt><trkpt lat="41.89612310702098" lon="12.419245752323306"><ele>86.0</ele><time>2026-04-09T17:46:04.998Z</time></trkpt><trkpt lat="41.89620885141738" lon="12.41939914343141"><ele>86.0</ele><time>2026-04-09T17:46:05.998Z</time></trkpt><trkpt lat="41.89628044096217" lon="12.419565620086475"><ele>86.0</ele><time>2026-04-09T17:46:06.998Z</time></trkpt><trkpt lat="41.89636637704452" lon="12.419730136753781"><ele>86.0</ele><time>2026-04-09T17:46:07.998Z</time></trkpt><trkpt lat="41.89645298950836" lon="12.419895849786487"><ele>86.0</ele><time>2026-04-09T17:46:08.998Z</time></trkpt><trkpt lat="41.896537178632705" lon="12.42006160187011"><ele>86.0</ele><time>2026-04-09T17:46:09.998Z</time></trkpt><trkpt lat="41.896624454422515" lon="12.42022715486467"><ele>86.0</ele><time>2026-04-09T17:46:10.998Z</time></trkpt><trkpt lat="41.896714029760886" lon="12.420397897564271"><ele>88.0</ele><time>2026-04-09T17:46:11.998Z</time></trkpt><trkpt lat="41.896811254252235" lon="12.420552160220527"><ele>90.0</ele><time>2026-04-09T17:46:12.998Z</time></trkpt><trkpt lat="41.8968960041203" lon="12.420724419634785"><ele>92.0</ele><time>2026-04-09T17:46:13.998Z</time></trkpt><trkpt lat="41.89697593759233" lon="12.420892749935412"><ele>92.0</ele><time>2026-04-09T17:46:14.998Z</time></trkpt><trkpt lat="41.89704955287451" lon="12.421076734963979"><ele>92.0</ele><time>2026-04-09T17:46:15.998Z</time></trkpt><trkpt lat="41.897133145477255" lon="12.421249201278416"><ele>92.0</ele><time>2026-04-09T17:46:16.998Z</time></trkpt><trkpt lat="41.89721845957225" lon="12.421425219276115"><ele>92.0</ele><time>2026-04-09T17:46:17.998Z</time></trkpt><trkpt lat="41.897309872620596" lon="12.421575745229395"><ele>92.0</ele><time>2026-04-09T17:46:18.998Z</time></trkpt><trkpt lat="41.89739121664778" lon="12.421742095241214"><ele>92.0</ele><time>2026-04-09T17:46:19.998Z</time></trkpt><trkpt lat="41.89747094820433" lon="12.421906649451914"><ele>92.0</ele><time>2026-04-09T17:46:20.998Z</time></trkpt><trkpt lat="41.89754823389156" lon="12.422074502794457"><ele>92.5</ele><time>2026-04-09T17:46:21.998Z</time></trkpt><trkpt lat="41.89762724496155" lon="12.422246900461708"><ele>93.0</ele><time>2026-04-09T17:46:22.998Z</time></trkpt><trkpt lat="41.8976982626549" lon="12.422417109204368"><ele>93.5</ele><time>2026-04-09T17:46:23.997Z</time></trkpt><trkpt lat="41.89776040569179" lon="12.42257773382574"><ele>94.0</ele><time>2026-04-09T17:46:24.997Z</time></trkpt><trkpt lat="41.89782751909549" lon="12.422742188427142"><ele>94.0</ele><time>2026-04-09T17:46:25.997Z</time></trkpt><trkpt lat="41.89789373502378" lon="12.422902675885325"><ele>94.0</ele><time>2026-04-09T17:46:26.997Z</time></trkpt><trkpt lat="41.8979551004704" lon="12.423063452740221"><ele>94.0</ele><time>2026-04-09T17:46:27.997Z</time></trkpt><trkpt lat="41.89800975729298" lon="12.423210260421428"><ele>94.0</ele><time>2026-04-09T17:46:28.997Z</time></trkpt><trkpt lat="41.89806335919319" lon="12.423358601510975"><ele>93.25</ele><time>2026-04-09T17:46:29.997Z</time></trkpt><trkpt lat="41.8981080566003" lon="12.423501950621674"><ele>92.5</ele><time>2026-04-09T17:46:30.997Z</time></trkpt><trkpt lat="41.89814995565898" lon="12.423639986395004"><ele>91.75</ele><time>2026-04-09T17:46:31.997Z</time></trkpt><trkpt lat="41.898188449302395" lon="12.423781421835857"><ele>91.0</ele><time>2026-04-09T17:46:32.997Z</time></trkpt><trkpt lat="41.898226916751426" lon="12.423921962816772"><ele>89.6</ele><time>2026-04-09T17:46:33.997Z</time></trkpt><trkpt lat="41.898268548335146" lon="12.424069257761047"><ele>88.19999999999999</ele><time>2026-04-09T17:46:34.997Z</time></trkpt><trkpt lat="41.89830662271949" lon="12.424221786189669"><ele>86.80000000000001</ele><time>2026-04-09T17:46:35.997Z</time></trkpt><trkpt lat="41.89834165989422" lon="12.424360084114479"><ele>85.4</ele><time>2026-04-09T17:46:36.997Z</time></trkpt><trkpt lat="41.89836332665151" lon="12.424485804958977"><ele>84.0</ele><time>2026-04-09T17:46:37.997Z</time></trkpt><trkpt lat="41.89838959713697" lon="12.424605413518071"><ele>84.0</ele><time>2026-04-09T17:46:38.997Z</time></trkpt><trkpt lat="41.898411993865814" lon="12.42471542362075"><ele>84.0</ele><time>2026-04-09T17:46:39.997Z</time></trkpt><trkpt lat="41.89842850087667" lon="12.424815977340593"><ele>84.0</ele><time>2026-04-09T17:46:40.997Z</time></trkpt><trkpt lat="41.89845452260773" lon="12.424974814888525"><ele>84.0</ele><time>2026-04-09T17:46:42.997Z</time></trkpt><trkpt lat="41.89847423221618" lon="12.42510624525477"><ele>84.0</ele><time>2026-04-09T17:46:44.997Z</time></trkpt><trkpt lat="41.89849588275024" lon="12.425223213918477"><ele>84.80000000000001</ele><time>2026-04-09T17:46:46.997Z</time></trkpt><trkpt lat="41.89851557387465" lon="12.425349915629509"><ele>85.60000000000001</ele><time>2026-04-09T17:46:53.997Z</time></trkpt><trkpt lat="41.898528962048864" lon="12.425455314069648"><ele>86.4</ele><time>2026-04-09T17:46:55.997Z</time></trkpt><trkpt lat="41.89854373620542" lon="12.425589086212524"><ele>87.2</ele><time>2026-04-09T17:46:58Z</time></trkpt><trkpt lat="41.89856676290394" lon="12.425771307332093"><ele>88.0</ele><time>2026-04-09T17:47:00Z</time></trkpt><trkpt lat="41.89857689482143" lon="12.425870652305477"><ele>88.60000000000001</ele><time>2026-04-09T17:47:01Z</time></trkpt><trkpt lat="41.89858790564107" lon="12.425975571001977"><ele>89.2</ele><time>2026-04-09T17:47:02Z</time></trkpt><trkpt lat="41.89859994456755" lon="12.426094206442185"><ele>89.8</ele><time>2026-04-09T17:47:03Z</time></trkpt><trkpt lat="41.898606236990176" lon="12.426216173164837"><ele>90.4</ele><time>2026-04-09T17:47:04Z</time></trkpt><trkpt lat="41.89860224240196" lon="12.426347435874433"><ele>91.0</ele><time>2026-04-09T17:47:05Z</time></trkpt><trkpt lat="41.898591265997965" lon="12.426489408990724"><ele>91.0</ele><time>2026-04-09T17:47:06Z</time></trkpt><trkpt lat="41.89857854498506" lon="12.42662477962687"><ele>91.0</ele><time>2026-04-09T17:47:07Z</time></trkpt><trkpt lat="41.898565341908636" lon="12.426725596014387"><ele>91.0</ele><time>2026-04-09T17:47:08Z</time></trkpt><trkpt lat="41.89855742412907" lon="12.426809950292807"><ele>91.0</ele><time>2026-04-09T17:47:09Z</time></trkpt><trkpt lat="41.89851904289927" lon="12.426974002123362"><ele>91.0</ele><time>2026-04-09T17:47:11Z</time></trkpt><trkpt lat="41.898489510317646" lon="12.427078679435494"><ele>90.5</ele><time>2026-04-09T17:47:12Z</time></trkpt><trkpt lat="41.89845928143387" lon="12.427189989776746"><ele>90.0</ele><time>2026-04-09T17:47:13Z</time></trkpt><trkpt lat="41.89842247291843" lon="12.427323810521278"><ele>89.5</ele><time>2026-04-09T17:47:14.999Z</time></trkpt><trkpt lat="41.898424075245856" lon="12.427425978131401"><ele>89.0</ele><time>2026-04-09T17:48:18.998Z</time></trkpt><trkpt lat="41.8984249041691" lon="12.427518454026952"><ele>88.5</ele><time>2026-04-09T17:48:19.998Z</time></trkpt><trkpt lat="41.89842757143233" lon="12.42764128050606"><ele>88.0</ele><time>2026-04-09T17:48:20.998Z</time></trkpt><trkpt lat="41.898442800721696" lon="12.427772260244746"><ele>88.0</ele><time>2026-04-09T17:48:21.998Z</time></trkpt><trkpt lat="41.898464289961204" lon="12.427908247399204"><ele>88.0</ele><time>2026-04-09T17:48:22.998Z</time></trkpt><trkpt lat="41.89846271019717" lon="12.428017555486196"><ele>88.0</ele><time>2026-04-09T17:48:23.998Z</time></trkpt><trkpt lat="41.89847674989722" lon="12.428176955093727"><ele>88.0</ele><time>2026-04-09T17:48:24.998Z</time></trkpt><trkpt lat="41.8984956972584" lon="12.428352535336671"><ele>88.0</ele><time>2026-04-09T17:48:25.998Z</time></trkpt><trkpt lat="41.89851584309422" lon="12.428504719037617"><ele>88.16666666666666</ele><time>2026-04-09T17:48:26.998Z</time></trkpt><trkpt lat="41.89851635522132" lon="12.428626579742629"><ele>88.33333333333333</ele><time>2026-04-09T17:48:27.998Z</time></trkpt><trkpt lat="41.898517623371" lon="12.428744072321257"><ele>88.5</ele><time>2026-04-09T17:48:28.998Z</time></trkpt><trkpt lat="41.89851872453226" lon="12.428859409803637"><ele>88.66666666666667</ele><time>2026-04-09T17:48:29.997Z</time></trkpt><trkpt lat="41.89851276564244" lon="12.428971646899434"><ele>88.83333333333334</ele><time>2026-04-09T17:48:30.997Z</time></trkpt><trkpt lat="41.898510700797786" lon="12.4290842731458"><ele>89.0</ele><time>2026-04-09T17:48:31.997Z</time></trkpt><trkpt lat="41.89850746003565" lon="12.429210507948726"><ele>89.25</ele><time>2026-04-09T17:48:32.997Z</time></trkpt><trkpt lat="41.89849942679192" lon="12.429351259328438"><ele>89.5</ele><time>2026-04-09T17:48:33.997Z</time></trkpt><trkpt lat="41.89848696279866" lon="12.429503588395226"><ele>89.75</ele><time>2026-04-09T17:48:34.997Z</time></trkpt><trkpt lat="41.898471379600046" lon="12.429667895820595"><ele>90.0</ele><time>2026-04-09T17:48:35.997Z</time></trkpt><trkpt lat="41.89845596633208" lon="12.429846949488825"><ele>91.0</ele><time>2026-04-09T17:48:36.997Z</time></trkpt><trkpt lat="41.89844319811473" lon="12.43001611733125"><ele>92.0</ele><time>2026-04-09T17:48:37.997Z</time></trkpt><trkpt lat="41.89843384256548" lon="12.430166275557335"><ele>93.0</ele><time>2026-04-09T17:48:38.997Z</time></trkpt><trkpt lat="41.89842583853396" lon="12.43031384428533"><ele>94.0</ele><time>2026-04-09T17:48:39.997Z</time></trkpt><trkpt lat="41.89842137525143" lon="12.43047177954471"><ele>93.80000000000001</ele><time>2026-04-09T17:48:40.997Z</time></trkpt><trkpt lat="41.89841894665429" lon="12.430611762902378"><ele>93.60000000000001</ele><time>2026-04-09T17:48:41.997Z</time></trkpt><trkpt lat="41.898425566494396" lon="12.43073665421063"><ele>93.4</ele><time>2026-04-09T17:48:42.997Z</time></trkpt><trkpt lat="41.89842830374363" lon="12.430873036671779"><ele>93.2</ele><time>2026-04-09T17:48:43.997Z</time></trkpt><trkpt lat="41.89843418492039" lon="12.430981052391232"><ele>93.0</ele><time>2026-04-09T17:48:44.997Z</time></trkpt><trkpt lat="41.89843040588008" lon="12.431087461120558"><ele>93.0</ele><time>2026-04-09T17:48:46.997Z</time></trkpt><trkpt lat="41.89844069044753" lon="12.431190631701481"><ele>93.0</ele><time>2026-04-09T17:48:48.997Z</time></trkpt><trkpt lat="41.8984599460213" lon="12.431339855588265"><ele>93.0</ele><time>2026-04-09T17:48:50.997Z</time></trkpt><trkpt lat="41.89847714586118" lon="12.431432385335537"><ele>93.0</ele><time>2026-04-09T17:48:51.997Z</time></trkpt><trkpt lat="41.89848776828662" lon="12.431534754457749"><ele>93.0</ele><time>2026-04-09T17:48:52.997Z</time></trkpt><trkpt lat="41.898510397079214" lon="12.43164490250331"><ele>93.0</ele><time>2026-04-09T17:48:53.997Z</time></trkpt><trkpt lat="41.89853540882473" lon="12.431758779819983"><ele>92.2</ele><time>2026-04-09T17:48:54.997Z</time></trkpt><trkpt lat="41.898570899212835" lon="12.431914648887375"><ele>91.4</ele><time>2026-04-09T17:48:56.997Z</time></trkpt><trkpt lat="41.898589289047074" lon="12.431998642539945"><ele>90.60000000000001</ele><time>2026-04-09T17:48:57.997Z</time></trkpt><trkpt lat="41.89861239549028" lon="12.432089148097875"><ele>89.80000000000001</ele><time>2026-04-09T17:48:58.997Z</time></trkpt><trkpt lat="41.898650222491646" lon="12.432251044629588"><ele>89.0</ele><time>2026-04-09T17:49:00.997Z</time></trkpt><trkpt lat="41.89866935233682" lon="12.432337056763794"><ele>88.85714285714285</ele><time>2026-04-09T17:49:01.997Z</time></trkpt><trkpt lat="41.89869125569502" lon="12.432423263142654"><ele>88.71428571428571</ele><time>2026-04-09T17:49:02.997Z</time></trkpt><trkpt lat="41.89871531773503" lon="12.432514773203645"><ele>88.57142857142857</ele><time>2026-04-09T17:49:04Z</time></trkpt><trkpt lat="41.89874079367746" lon="12.432610463911583"><ele>88.42857142857142</ele><time>2026-04-09T17:49:05Z</time></trkpt><trkpt lat="41.89875874880641" lon="12.432692288055943"><ele>88.28571428571428</ele><time>2026-04-09T17:49:06Z</time></trkpt><trkpt lat="41.89878292491573" lon="12.432774618046462"><ele>88.14285714285714</ele><time>2026-04-09T17:49:07Z</time></trkpt><trkpt lat="41.89880728140173" lon="12.432859745530601"><ele>88.0</ele><time>2026-04-09T17:49:08Z</time></trkpt><trkpt lat="41.8988326094824" lon="12.432952402976369"><ele>87.0</ele><time>2026-04-09T17:49:09Z</time></trkpt><trkpt lat="41.89885730706832" lon="12.433043373753806"><ele>86.0</ele><time>2026-04-09T17:49:10Z</time></trkpt><trkpt lat="41.89887294987197" lon="12.43313346729555"><ele>85.0</ele><time>2026-04-09T17:49:11Z</time></trkpt><trkpt lat="41.89890372643884" lon="12.433279790209214"><ele>84.0</ele><time>2026-04-09T17:49:13Z</time></trkpt><trkpt lat="41.89893792224929" lon="12.433388404262702"><ele>83.0</ele><time>2026-04-09T17:49:15Z</time></trkpt><trkpt lat="41.898964601200376" lon="12.433507371225014"><ele>82.0</ele><time>2026-04-09T17:49:17Z</time></trkpt><trkpt lat="41.89899308041061" lon="12.433624822474398"><ele>82.0</ele><time>2026-04-09T17:49:19Z</time></trkpt><trkpt lat="41.89903395622431" lon="12.433770279571904"><ele>82.0</ele><time>2026-04-09T17:49:21Z</time></trkpt><trkpt lat="41.899082899749644" lon="12.433887896550877"><ele>82.0</ele><time>2026-04-09T17:49:22.999Z</time></trkpt><trkpt lat="41.899112242418234" lon="12.433988340847984"><ele>82.0</ele><time>2026-04-09T17:49:24.999Z</time></trkpt><trkpt lat="41.899134562693895" lon="12.434068849453743"><ele>82.0</ele><time>2026-04-09T17:49:26.999Z</time></trkpt><trkpt lat="41.899128131382206" lon="12.43419968198969"><ele>81.8</ele><time>2026-04-09T17:49:31.999Z</time></trkpt><trkpt lat="41.89914850980202" lon="12.434285969858832"><ele>81.6</ele><time>2026-04-09T17:49:32.999Z</time></trkpt><trkpt lat="41.89918407524455" lon="12.434388758625984"><ele>81.39999999999999</ele><time>2026-04-09T17:49:33.999Z</time></trkpt><trkpt lat="41.89921891996027" lon="12.4344997978623"><ele>81.19999999999999</ele><time>2026-04-09T17:49:34.999Z</time></trkpt><trkpt lat="41.8992557448775" lon="12.4346181422398"><ele>81.0</ele><time>2026-04-09T17:49:35.999Z</time></trkpt><trkpt lat="41.89930322451639" lon="12.434757873202026"><ele>78.75</ele><time>2026-04-09T17:49:36.999Z</time></trkpt><trkpt lat="41.8993530118953" lon="12.434934167540456"><ele>76.5</ele><time>2026-04-09T17:49:37.999Z</time></trkpt><trkpt lat="41.89939496637086" lon="12.435122703062012"><ele>74.25</ele><time>2026-04-09T17:49:38.999Z</time></trkpt><trkpt lat="41.89942841698035" lon="12.435279121472243"><ele>72.0</ele><time>2026-04-09T17:49:39.999Z</time></trkpt><trkpt lat="41.89946348727588" lon="12.435419658487705"><ele>71.0</ele><time>2026-04-09T17:49:40.999Z</time></trkpt><trkpt lat="41.8994979160219" lon="12.435570745979456"><ele>70.0</ele><time>2026-04-09T17:49:41.999Z</time></trkpt><trkpt lat="41.89953735302512" lon="12.435696065666406"><ele>69.0</ele><time>2026-04-09T17:49:42.999Z</time></trkpt><trkpt lat="41.899575269400195" lon="12.435806346084695"><ele>68.0</ele><time>2026-04-09T17:49:43.999Z</time></trkpt><trkpt lat="41.89961182106555" lon="12.435908557767409"><ele>67.0</ele><time>2026-04-09T17:49:44.999Z</time></trkpt><trkpt lat="41.89964151243904" lon="12.436001109816589"><ele>67.0</ele><time>2026-04-09T17:49:45.999Z</time></trkpt><trkpt lat="41.899671424594565" lon="12.436092034151676"><ele>67.0</ele><time>2026-04-09T17:49:46.999Z</time></trkpt><trkpt lat="41.89971109281342" lon="12.436186677373865"><ele>67.0</ele><time>2026-04-09T17:49:47.999Z</time></trkpt><trkpt lat="41.89975224946077" lon="12.436284956891631"><ele>67.0</ele><time>2026-04-09T17:49:48.999Z</time></trkpt><trkpt lat="41.89978717984392" lon="12.436365797278649"><ele>67.0</ele><time>2026-04-09T17:49:49.999Z</time></trkpt><trkpt lat="41.89984228243626" lon="12.436485131055669"><ele>67.0</ele><time>2026-04-09T17:49:51.999Z</time></trkpt><trkpt lat="41.899895533601104" lon="12.43660657425946"><ele>66.5</ele><time>2026-04-09T17:49:53.999Z</time></trkpt><trkpt lat="41.8999418694169" lon="12.436675402450573"><ele>66.0</ele><time>2026-04-09T17:49:54.999Z</time></trkpt><trkpt lat="41.89999786155094" lon="12.436763330772836"><ele>65.5</ele><time>2026-04-09T17:49:56.999Z</time></trkpt><trkpt lat="41.90004174340667" lon="12.436832770857269"><ele>65.0</ele><time>2026-04-09T17:49:59.998Z</time></trkpt><trkpt lat="41.90009937244875" lon="12.43692747963615"><ele>64.5</ele><time>2026-04-09T17:50:01.998Z</time></trkpt><trkpt lat="41.900164316178454" lon="12.4370445654832"><ele>64.0</ele><time>2026-04-09T17:50:03.998Z</time></trkpt><trkpt lat="41.90020450936691" lon="12.437114866167992"><ele>62.2</ele><time>2026-04-09T17:50:04.998Z</time></trkpt><trkpt lat="41.90024415916039" lon="12.437199959561065"><ele>60.400000000000006</ele><time>2026-04-09T17:50:05.998Z</time></trkpt><trkpt lat="41.90028431650046" lon="12.43727469961177"><ele>58.6</ele><time>2026-04-09T17:50:06.998Z</time></trkpt><trkpt lat="41.90035455499911" lon="12.437393128467884"><ele>56.8</ele><time>2026-04-09T17:50:08.998Z</time></trkpt><trkpt lat="41.90044352393889" lon="12.437520283524162"><ele>55.0</ele><time>2026-04-09T17:50:10.998Z</time></trkpt><trkpt lat="41.90048832272446" lon="12.437596383397116"><ele>55.0</ele><time>2026-04-09T17:50:11.998Z</time></trkpt><trkpt lat="41.9005438732003" lon="12.43768020994061"><ele>55.0</ele><time>2026-04-09T17:50:12.998Z</time></trkpt><trkpt lat="41.900593292976154" lon="12.437770624880697"><ele>55.0</ele><time>2026-04-09T17:50:13.998Z</time></trkpt><trkpt lat="41.900655624791106" lon="12.437873129795792"><ele>55.0</ele><time>2026-04-09T17:50:14.998Z</time></trkpt><trkpt lat="41.900721654349205" lon="12.437971325168359"><ele>55.0</ele><time>2026-04-09T17:50:15.998Z</time></trkpt><trkpt lat="41.900788969419914" lon="12.438073674284833"><ele>55.2</ele><time>2026-04-09T17:50:16.998Z</time></trkpt><trkpt lat="41.90086483318096" lon="12.438179428277351"><ele>55.4</ele><time>2026-04-09T17:50:17.998Z</time></trkpt><trkpt lat="41.90093374690925" lon="12.438300341070901"><ele>55.599999999999994</ele><time>2026-04-09T17:50:18.998Z</time></trkpt><trkpt lat="41.90099663588342" lon="12.43839635537178"><ele>55.8</ele><time>2026-04-09T17:50:19.998Z</time></trkpt><trkpt lat="41.90104607114052" lon="12.438501087615187"><ele>56.0</ele><time>2026-04-09T17:50:20.998Z</time></trkpt><trkpt lat="41.90109266980241" lon="12.438575413054762"><ele>53.599999999999994</ele><time>2026-04-09T17:50:21.998Z</time></trkpt><trkpt lat="41.90114139086691" lon="12.438649810384009"><ele>51.199999999999996</ele><time>2026-04-09T17:51:36.999Z</time></trkpt><trkpt lat="41.90111953404962" lon="12.438850955192711"><ele>48.8</ele><time>2026-04-09T17:51:39.999Z</time></trkpt><trkpt lat="41.901070260404026" lon="12.438929209820559"><ele>46.400000000000006</ele><time>2026-04-09T17:51:40.999Z</time></trkpt><trkpt lat="41.90100502234214" lon="12.439017405999005"><ele>44.0</ele><time>2026-04-09T17:51:41.999Z</time></trkpt><trkpt lat="41.9009443086499" lon="12.439093268260772"><ele>46.6</ele><time>2026-04-09T17:51:42.999Z</time></trkpt><trkpt lat="41.90087479034654" lon="12.43917765303082"><ele>49.2</ele><time>2026-04-09T17:51:43.999Z</time></trkpt><trkpt lat="41.90080445953137" lon="12.43926331894486"><ele>51.800000000000004</ele><time>2026-04-09T17:51:44.999Z</time></trkpt><trkpt lat="41.90073586312715" lon="12.439354434464427"><ele>54.400000000000006</ele><time>2026-04-09T17:51:45.999Z</time></trkpt><trkpt lat="41.900670929993176" lon="12.439449047930674"><ele>57.0</ele><time>2026-04-09T17:51:46.999Z</time></trkpt><trkpt lat="41.900611067856794" lon="12.43956581242913"><ele>57.8</ele><time>2026-04-09T17:51:47.999Z</time></trkpt><trkpt lat="41.90056742633496" lon="12.439703901753624"><ele>58.6</ele><time>2026-04-09T17:51:48.999Z</time></trkpt><trkpt lat="41.90050696156556" lon="12.439808805469902"><ele>59.39999999999999</ele><time>2026-04-09T17:51:49.999Z</time></trkpt><trkpt lat="41.900448596602125" lon="12.439920107555318"><ele>60.199999999999996</ele><time>2026-04-09T17:51:50.999Z</time></trkpt><trkpt lat="41.90039280579385" lon="12.440037488872518"><ele>61.0</ele><time>2026-04-09T17:51:51.999Z</time></trkpt><trkpt lat="41.900348447375144" lon="12.440138261057175"><ele>60.99999999999999</ele><time>2026-04-09T17:51:52.999Z</time></trkpt><trkpt lat="41.90030139214186" lon="12.440237751846965"><ele>61.0</ele><time>2026-04-09T17:51:53.999Z</time></trkpt><trkpt lat="41.90025531099392" lon="12.440375303784213"><ele>61.0</ele><time>2026-04-09T17:51:55.999Z</time></trkpt><trkpt lat="41.90023141481644" lon="12.440459309257509"><ele>61.0</ele><time>2026-04-09T17:51:56.999Z</time></trkpt><trkpt lat="41.90021159780625" lon="12.440557177763885"><ele>60.99999999999999</ele><time>2026-04-09T17:51:57.999Z</time></trkpt><trkpt lat="41.9001968004718" lon="12.44066058579117"><ele>61.0</ele><time>2026-04-09T17:51:58.999Z</time></trkpt><trkpt lat="41.90018186946605" lon="12.440774841656255"><ele>60.99999999999999</ele><time>2026-04-09T17:51:59.999Z</time></trkpt><trkpt lat="41.90017078421301" lon="12.440903517005461"><ele>61.0</ele><time>2026-04-09T17:52:00.999Z</time></trkpt><trkpt lat="41.900160048291724" lon="12.44103602143236"><ele>61.0</ele><time>2026-04-09T17:52:01.999Z</time></trkpt><trkpt lat="41.90016212196764" lon="12.44114463869237"><ele>61.0</ele><time>2026-04-09T17:52:02.999Z</time></trkpt><trkpt lat="41.90016122399312" lon="12.441243236154603"><ele>60.99999999999999</ele><time>2026-04-09T17:52:03.998Z</time></trkpt><trkpt lat="41.90016593025157" lon="12.441358744120782"><ele>61.0</ele><time>2026-04-09T17:52:04.998Z</time></trkpt><trkpt lat="41.900163633071024" lon="12.441458655222515"><ele>59.83333333333333</ele><time>2026-04-09T17:52:05.998Z</time></trkpt><trkpt lat="41.9001630480866" lon="12.441547553831485"><ele>58.666666666666664</ele><time>2026-04-09T17:52:06.998Z</time></trkpt><trkpt lat="41.900174401295615" lon="12.44167443700008"><ele>57.5</ele><time>2026-04-09T17:52:08.998Z</time></trkpt><trkpt lat="41.90011263062405" lon="12.441727297448773"><ele>56.33333333333333</ele><time>2026-04-09T17:52:44.997Z</time></trkpt><trkpt lat="41.90015667978068" lon="12.441796868793778"><ele>55.166666666666664</ele><time>2026-04-09T17:52:49.997Z</time></trkpt><trkpt lat="41.90017104811354" lon="12.441886571996157"><ele>54.0</ele><time>2026-04-09T17:52:53.052Z</time></trkpt><trkpt lat="41.90026532086873" lon="12.441974575275244"><ele>54.0</ele><time>2026-04-09T17:53:13.749Z</time></trkpt><trkpt lat="41.90066160067312" lon="12.442224841411441"><ele>54.0</ele><time>2026-04-09T17:53:30.988Z</time></trkpt><trkpt lat="41.900492134148124" lon="12.442026315721696"><ele>54.0</ele><time>2026-04-09T17:53:32.225Z</time></trkpt><trkpt lat="41.9003231778638" lon="12.442045876901327"><ele>54.0</ele><time>2026-04-09T17:53:38.963Z</time></trkpt></trkseg></trk></gpx>